[[{"header":{"parameterUnit":"m.s-1","parameterCategory":1,"la1":31.0,"la2":29.5877,"lo1":-88.7671,"lo2":-86.6584,"dy":0.0162,"dx":0.0185,"nx":115,"ny":88,"refTime":"2024-02-02T18:00:00:Z","depth":0,"parameterNumber":2,"parameterNumberName":"U-component_of_WINDS"},"data":[0.0,0.0,0.0,0.0,0.0,0.0,0.0,0.0,0.0,0.0,0.0,0.0,0.0,0.0,0.0,0.0,0.0,0.0,0.0,0.0,0.0,0.0,0.0,0.0,0.0,0.0,0.0,0.0,0.0,0.0,0.0,0.0,0.0,0.0,0.0,0.0,0.0,0.0,0.0,0.0,0.0,0.0,0.0,0.0,0.0,0.0,0.0,0.0,0.0,0.0,0.0,0.0,0.0,0.0,0.0,0.0,0.0,0.0,0.0,0.0,0.0,0.0,0.0,0.0,0.0,0.0,0.0,0.0,0.0,0.0,0.0,0.0,0.0,0.0,0.0,0.0,0.0,0.0,0.0,0.0,0.0,0.0,0.0,0.0,0.0,0.0,0.0,0.0,0.0,0.0,0.0,0.0,0.0,0.0,0.0,0.0,0.0,0.0,0.0,0.0,0.0,0.0,0.0,0.0,0.0,0.0,0.0,0.0,0.0,0.0,0.0,0.0,0.0,0.0,0.0,0.0,0.0,0.0,0.0,0.0,0.0,0.0,0.0,0.0,0.0,0.0,0.0,0.0,0.0,0.0,0.0,0.0,0.0,0.0,0.0,0.0,0.0,0.0,0.0,0.0,0.0,0.0,0.0,0.0,0.0,0.0,0.0,0.0,0.0,0.0,0.0,0.0,0.0,0.0,0.0,0.0,0.0,0.0,0.0,0.0,0.0,0.0,0.0,0.0,0.0,0.0,0.0,0.0,0.0,0.0,0.0,0.0,0.0,0.0,0.0,0.0,0.0,0.0,0.0,0.0,0.0,0.0,0.0,0.0,0.0,0.0,0.0,0.0,0.0,0.0,0.0,0.0,0.0,0.0,0.0,0.0,0.0,0.0,0.0,0.0,0.0,0.0,0.0,0.0,0.0,0.0,0.0,0.0,0.0,0.0,0.0,0.0,0.0,0.0,0.0,0.0,0.0,0.0,0.0,0.0,0.0,0.0,0.0,0.0,0.0,0.0,0.0,0.0,0.0,0.0,0.0,0.0,0.0,0.0,0.0,0.0,0.0,0.0,0.0,0.0,0.0,0.0,0.0,0.0,0.0,0.0,0.0,0.0,0.0,0.0,0.0,0.0,0.0,0.0,0.0,0.0,0.0,0.0,0.0,0.0,0.0,0.0,0.0,0.0,0.0,0.0,0.0,0.0,0.0,0.0,0.0,0.0,0.0,0.0,0.0,0.0,0.0,0.0,0.0,0.0,0.0,0.0,0.0,0.0,0.0,0.0,0.0,0.0,0.0,0.0,0.0,0.0,0.0,0.0,0.0,0.0,0.0,0.0,0.0,0.0,0.0,0.0,0.0,0.0,0.0,0.0,0.0,0.0,0.0,0.0,0.0,0.0,0.0,0.0,0.0,0.0,0.0,0.0,0.0,0.0,0.0,0.0,0.0,0.0,0.0,0.0,0.0,0.0,0.0,0.0,0.0,0.0,0.0,0.0,0.0,0.0,0.0,0.0,0.0,0.0,0.0,0.0,0.0,0.0,0.0,0.0,0.0,0.0,0.0,0.0,0.0,0.0,0.0,0.0,0.0,0.0,0.0,0.0,0.0,0.0,0.0,0.0,0.0,0.0,0.0,0.0,0.0,0.0,0.0,0.0,0.0,0.0,0.0,0.0,0.0,0.0,0.0,0.0,0.0,0.0,0.0,0.0,0.0,0.0,0.0,0.0,0.0,0.0,0.0,0.0,0.0,0.0,0.0,0.0,0.0,0.0,0.0,0.0,0.0,0.0,0.0,0.0,0.0,0.0,0.0,0.0,0.0,0.0,0.0,0.0,0.0,0.0,0.0,0.0,0.0,0.0,0.0,0.0,0.0,0.0,0.0,0.0,0.0,0.0,0.0,0.0,0.0,0.0,0.0,0.0,0.0,0.0,0.0,0.0,0.0,0.0,0.0,0.0,0.0,0.0,0.0,0.0,0.0,0.0,0.0,0.0,0.0,0.0,0.0,0.0,0.0,0.0,0.0,0.0,0.0,0.0,0.0,0.0,0.0,0.0,0.0,0.0,0.0,0.0,0.0,0.0,0.0,0.0,0.0,0.0,0.0,0.0,0.0,0.0,0.0,0.0,0.0,0.0,0.0,0.0,0.0,0.0,0.0,0.0,0.0,0.0,0.0,0.0,0.0,0.0,0.0,0.0,0.0,0.0,0.0,0.0,0.0,0.0,0.0,0.0,0.0,0.0,0.0,0.0,0.0,0.0,0.0,0.0,0.0,0.0,0.0,0.0,0.0,0.0,0.0,0.0,0.0,0.0,0.0,0.0,0.0,0.0,0.0,0.0,0.0,0.0,0.0,0.0,0.0,0.0,0.0,0.0,0.0,0.0,0.0,0.0,0.0,0.0,0.0,0.0,0.0,0.0,0.0,0.0,0.0,0.0,0.0,0.0,0.0,0.0,0.0,0.0,0.0,0.0,0.0,0.0,0.0,0.0,0.0,0.0,0.0,0.0,0.0,0.0,0.0,0.0,0.0,0.0,0.0,0.0,0.0,0.0,0.0,0.0,0.0,0.0,0.0,0.0,0.0,0.0,0.0,0.0,0.0,0.0,0.0,0.0,0.0,0.0,0.0,0.0,0.0,0.0,0.0,0.0,0.0,0.0,0.0,0.0,0.0,0.0,0.0,0.0,0.0,0.0,0.0,0.0,0.0,0.0,0.0,0.0,0.0,0.0,0.0,0.0,0.0,0.0,0.0,0.0,0.0,0.0,0.0,0.0,0.0,0.0,0.0,0.0,0.0,0.0,0.0,0.0,0.0,0.0,0.0,0.0,0.0,0.0,0.0,0.0,0.0,0.0,0.0,0.0,0.0,0.0,0.0,0.0,0.0,0.0,0.0,0.0,0.0,0.0,0.0,0.0,0.0,0.0,0.0,0.0,0.0,0.0,0.0,0.0,0.0,0.0,0.0,0.0,0.0,0.0,0.0,0.0,0.0,0.0,0.0,0.0,0.0,0.0,0.0,0.0,0.0,0.0,0.0,0.0,0.0,0.0,0.0,0.0,0.0,0.0,0.0,0.0,0.0,0.0,0.0,0.0,0.0,0.0,0.0,0.0,0.0,0.0,0.0,0.0,0.0,0.0,0.0,0.0,0.0,0.0,0.0,0.0,0.0,0.0,0.0,0.0,0.0,0.0,0.0,0.0,0.0,0.0,0.0,0.0,0.0,0.0,0.0,0.0,0.0,0.0,0.0,0.0,0.0,0.0,0.0,0.0,0.0,0.0,0.0,0.0,0.0,0.0,0.0,0.0,0.0,0.0,0.0,0.0,0.0,0.0,0.0,0.0,0.0,0.0,0.0,0.0,0.0,0.0,0.0,0.0,0.0,0.0,0.0,0.0,0.0,0.0,0.0,0.0,0.0,0.0,0.0,0.0,0.0,0.0,0.0,0.0,0.0,0.0,0.0,0.0,0.0,0.0,0.0,0.0,0.0,0.0,0.0,0.0,0.0,0.0,0.0,0.0,0.0,0.0,0.0,0.0,0.0,0.0,0.0,0.0,0.0,0.0,0.0,0.0,0.0,0.0,0.0,0.0,0.0,0.0,0.0,0.0,0.0,0.0,0.0,0.0,0.0,0.0,0.0,0.0,0.0,0.0,0.0,0.0,0.0,0.0,0.0,0.0,0.0,0.0,0.0,0.0,0.0,0.0,0.0,0.0,0.0,0.0,0.0,0.0,0.0,0.0,0.0,0.0,0.0,0.0,0.0,0.0,0.0,0.0,0.0,0.0,0.0,0.0,0.0,0.0,0.0,0.0,0.0,0.0,0.0,0.0,0.0,0.0,0.0,0.0,0.0,0.0,0.0,0.0,0.0,0.0,0.0,0.0,0.0,0.0,0.0,0.0,0.0,0.0,0.0,0.0,0.0,0.0,0.0,0.0,0.0,0.0,0.0,0.0,0.0,0.0,0.0,0.0,0.0,0.0,0.0,0.0,0.0,0.0,0.0,0.0,0.0,0.0,0.0,0.0,0.0,0.0,0.0,0.0,0.0,0.0,0.0,0.0,0.0,0.0,0.0,0.0,0.0,0.0,0.0,0.0,0.0,0.0,0.0,0.0,0.0,0.0,0.0,0.0,0.0,0.0,0.0,0.0,0.0,0.0,0.0,0.0,0.0,0.0,0.0,0.0,0.0,0.0,0.0,0.0,0.0,0.0,0.0,0.0,0.0,0.0,0.0,0.0,0.0,0.0,0.0,0.0,0.0,0.0,0.0,0.0,0.0,0.0,0.0,0.0,0.0,0.0,-1.9767,0.0,0.0,0.0,0.0,0.0,0.0,0.0,0.0,0.0,0.0,0.0,0.0,0.0,0.0,0.0,0.0,0.0,0.0,0.0,0.0,0.0,0.0,0.0,0.0,0.0,0.0,0.0,0.0,0.0,0.0,0.0,0.0,0.0,0.0,0.0,0.0,0.0,0.0,0.0,0.0,0.0,0.0,0.0,0.0,0.0,0.0,0.0,0.0,0.0,0.0,0.0,0.0,0.0,0.0,0.0,0.0,0.0,0.0,0.0,0.0,0.0,0.0,0.0,0.0,0.0,0.0,0.0,0.0,0.0,0.0,0.0,0.0,0.0,0.0,0.0,0.0,0.0,0.0,0.0,0.0,0.0,0.0,0.0,0.0,0.0,0.0,0.0,0.0,0.0,0.0,0.0,0.0,0.0,0.0,0.0,0.0,0.0,0.0,0.0,0.0,0.0,0.0,0.0,0.0,0.0,0.0,0.0,0.0,0.0,0.0,-1.6882,-1.6935,-1.8654,-1.958,-1.9724,0.0,0.0,0.0,0.0,0.0,0.0,0.0,0.0,0.0,0.0,0.0,0.0,0.0,0.0,0.0,0.0,0.0,0.0,0.0,0.0,0.0,0.0,0.0,0.0,0.0,0.0,0.0,0.0,0.0,0.0,0.0,0.0,0.0,0.0,0.0,0.0,0.0,0.0,0.0,0.0,0.0,0.0,0.0,0.0,0.0,0.0,0.0,0.0,0.0,0.0,0.0,0.0,0.0,0.0,0.0,0.0,0.0,0.0,0.0,0.0,0.0,0.0,0.0,0.0,0.0,0.0,0.0,0.0,0.0,0.0,0.0,0.0,0.0,0.0,0.0,0.0,0.0,0.0,0.0,0.0,0.0,0.0,0.0,0.0,0.0,0.0,0.0,0.0,0.0,0.0,0.0,0.0,0.0,0.0,0.0,0.0,0.0,0.0,0.0,0.0,0.0,0.0,0.0,0.0,0.0,0.0,0.0,0.0,0.0,0.0,0.0,0.0,-1.8164,-1.9045,-1.9673,0.0,0.0,0.0,0.0,0.0,0.0,0.0,0.0,0.0,0.0,0.0,0.0,0.0,0.0,0.0,0.0,0.0,0.0,0.0,0.0,0.0,0.0,0.0,0.0,0.0,0.0,0.0,0.0,0.0,0.0,0.0,0.0,0.0,0.0,0.0,0.0,0.0,0.0,0.0,0.0,0.0,0.0,0.0,0.0,0.0,0.0,0.0,0.0,0.0,0.0,0.0,0.0,0.0,0.0,0.0,0.0,0.0,0.0,0.0,0.0,0.0,0.0,0.0,0.0,0.0,0.0,0.0,0.0,0.0,0.0,0.0,0.0,0.0,0.0,0.0,0.0,0.0,0.0,0.0,0.0,0.0,0.0,0.0,0.0,0.0,0.0,0.0,0.0,0.0,0.0,0.0,0.0,0.0,0.0,0.0,0.0,0.0,0.0,0.0,0.0,0.0,0.0,0.0,0.0,0.0,0.0,0.0,0.0,0.0,0.0,-1.5887,-1.8238,-1.7983,0.0,-1.9672,0.0,0.0,0.0,0.0,0.0,0.0,0.0,0.0,0.0,0.0,0.0,0.0,0.0,0.0,0.0,0.0,0.0,0.0,0.0,0.0,0.0,0.0,0.0,0.0,0.0,0.0,0.0,0.0,0.0,0.0,0.0,0.0,0.0,0.0,0.0,0.0,0.0,0.0,0.0,0.0,0.0,0.0,0.0,0.0,0.0,0.0,0.0,0.0,0.0,0.0,0.0,0.0,0.0,0.0,0.0,0.0,0.0,0.0,0.0,0.0,0.0,0.0,0.0,0.0,0.0,0.0,0.0,0.0,0.0,0.0,0.0,0.0,0.0,0.0,0.0,0.0,0.0,0.0,0.0,0.0,0.0,0.0,0.0,0.0,0.0,0.0,0.0,0.0,0.0,0.0,0.0,0.0,0.0,0.0,0.0,0.0,0.0,0.0,0.0,0.0,0.0,0.0,0.0,0.0,0.0,0.0,0.0,0.0,0.0,0.0,-1.6012,-1.7402,-1.8171,-1.886,0.0,0.0,0.0,0.0,0.0,0.0,0.0,0.0,0.0,0.0,0.0,0.0,0.0,0.0,0.0,0.0,0.0,0.0,0.0,0.0,0.0,0.0,0.0,0.0,0.0,0.0,0.0,0.0,0.0,0.0,0.0,0.0,0.0,0.0,0.0,0.0,0.0,0.0,0.0,0.0,0.0,0.0,0.0,0.0,0.0,0.0,0.0,0.0,0.0,0.0,0.0,0.0,0.0,0.0,0.0,0.0,0.0,0.0,0.0,0.0,0.0,0.0,0.0,0.0,0.0,0.0,0.0,0.0,0.0,0.0,0.0,0.0,0.0,0.0,0.0,0.0,0.0,0.0,0.0,0.0,0.0,0.0,0.0,0.0,0.0,0.0,0.0,0.0,0.0,0.0,0.0,0.0,0.0,0.0,0.0,0.0,0.0,0.0,0.0,0.0,0.0,0.0,0.0,0.0,0.0,0.0,0.0,0.0,0.0,0.0,-1.5963,-1.6429,-1.7203,-1.8496,-1.9261,-1.9332,0.0,0.0,0.0,0.0,0.0,0.0,0.0,0.0,0.0,0.0,0.0,0.0,0.0,0.0,0.0,0.0,0.0,0.0,0.0,0.0,0.0,0.0,0.0,0.0,0.0,0.0,0.0,0.0,0.0,0.0,0.0,0.0,0.0,0.0,0.0,0.0,0.0,0.0,0.0,0.0,0.0,0.0,0.0,0.0,0.0,0.0,0.0,0.0,0.0,0.0,0.0,0.0,0.0,0.0,0.0,0.0,0.0,0.0,0.0,0.0,0.0,0.0,0.0,0.0,0.0,0.0,0.0,0.0,0.0,0.0,0.0,0.0,0.0,0.0,0.0,0.0,0.0,0.0,0.0,0.0,0.0,0.0,0.0,0.0,0.0,0.0,0.0,0.0,0.0,0.0,0.0,0.0,0.0,0.0,0.0,0.0,0.0,0.0,0.0,0.0,0.0,0.0,0.0,0.0,0.0,0.0,0.0,0.0,-1.9317,-1.7447,-1.7009,-1.8326,-1.8774,-1.9137,0.0,0.0,0.0,0.0,0.0,0.0,0.0,0.0,0.0,0.0,0.0,0.0,0.0,0.0,0.0,0.0,0.0,0.0,0.0,0.0,0.0,0.0,0.0,0.0,0.0,0.0,0.0,0.0,0.0,0.0,0.0,0.0,0.0,0.0,0.0,0.0,0.0,0.0,0.0,0.0,0.0,0.0,0.0,0.0,0.0,0.0,0.0,0.0,0.0,0.0,0.0,0.0,0.0,0.0,0.0,0.0,0.0,0.0,0.0,0.0,0.0,0.0,0.0,0.0,0.0,0.0,0.0,0.0,0.0,0.0,0.0,0.0,0.0,0.0,0.0,0.0,0.0,0.0,0.0,0.0,0.0,0.0,0.0,0.0,0.0,0.0,0.0,0.0,0.0,0.0,0.0,0.0,0.0,0.0,0.0,0.0,0.0,0.0,0.0,0.0,0.0,0.0,0.0,0.0,0.0,0.0,0.0,0.0,0.0,-1.7624,-1.7001,-1.7109,-1.8155,-1.8677,-1.9095,0.0,0.0,0.0,0.0,0.0,0.0,0.0,0.0,0.0,0.0,0.0,0.0,0.0,0.0,0.0,0.0,0.0,0.0,0.0,0.0,0.0,0.0,0.0,0.0,0.0,0.0,0.0,0.0,0.0,0.0,0.0,0.0,0.0,0.0,0.0,0.0,0.0,0.0,0.0,0.0,0.0,0.0,0.0,0.0,0.0,0.0,0.0,0.0,0.0,0.0,0.0,0.0,0.0,0.0,0.0,0.0,0.0,0.0,0.0,0.0,0.0,0.0,0.0,0.0,0.0,0.0,0.0,0.0,0.0,0.0,0.0,0.0,0.0,0.0,0.0,0.0,0.0,0.0,0.0,0.0,0.0,0.0,0.0,0.0,0.0,0.0,0.0,0.0,0.0,0.0,0.0,0.0,0.0,0.0,0.0,0.0,0.0,0.0,0.0,0.0,0.0,0.0,0.0,0.0,0.0,0.0,0.0,0.0,0.0,-1.7601,0.0,-1.8081,-1.8394,-1.8571,-1.8776,0.0,0.0,0.0,0.0,0.0,0.0,0.0,0.0,0.0,0.0,0.0,0.0,0.0,0.0,0.0,0.0,0.0,0.0,0.0,0.0,0.0,0.0,0.0,0.0,0.0,0.0,0.0,0.0,0.0,0.0,0.0,0.0,0.0,0.0,0.0,0.0,0.0,0.0,0.0,0.0,0.0,0.0,0.0,0.0,0.0,0.0,0.0,0.0,0.0,0.0,0.0,0.0,0.0,0.0,0.0,0.0,0.0,0.0,0.0,0.0,0.0,0.0,0.0,0.0,0.0,0.0,0.0,0.0,0.0,0.0,0.0,0.0,0.0,0.0,0.0,0.0,0.0,0.0,0.0,0.0,0.0,0.0,0.0,0.0,0.0,0.0,0.0,0.0,0.0,0.0,0.0,0.0,0.0,0.0,0.0,0.0,0.0,0.0,0.0,0.0,0.0,0.0,0.0,0.0,0.0,0.0,0.0,0.0,-1.9597,-1.985,-2.0065,-1.9866,-1.936,-1.8532,-1.8213,0.0,0.0,0.0,0.0,0.0,0.0,0.0,0.0,0.0,0.0,0.0,0.0,0.0,0.0,0.0,0.0,0.0,0.0,0.0,0.0,0.0,0.0,0.0,0.0,0.0,0.0,0.0,0.0,0.0,0.0,0.0,0.0,0.0,0.0,0.0,0.0,0.0,0.0,0.0,0.0,0.0,0.0,0.0,0.0,0.0,0.0,0.0,0.0,0.0,0.0,0.0,0.0,0.0,0.0,0.0,0.0,0.0,0.0,0.0,0.0,0.0,0.0,0.0,0.0,0.0,0.0,0.0,0.0,0.0,0.0,0.0,0.0,0.0,0.0,0.0,0.0,0.0,0.0,0.0,0.0,0.0,0.0,0.0,0.0,0.0,0.0,0.0,0.0,0.0,0.0,0.0,0.0,0.0,0.0,0.0,0.0,0.0,0.0,0.0,0.0,0.0,0.0,0.0,0.0,0.0,0.0,0.0,0.0,0.0,-2.0202,-1.9619,-1.9442,-1.9651,-1.9013,-1.887,0.0,0.0,0.0,0.0,0.0,0.0,0.0,0.0,0.0,0.0,0.0,0.0,0.0,0.0,0.0,0.0,0.0,0.0,0.0,0.0,0.0,0.0,0.0,0.0,0.0,0.0,0.0,0.0,0.0,0.0,0.0,0.0,0.0,0.0,0.0,0.0,0.0,0.0,0.0,0.0,0.0,0.0,0.0,0.0,0.0,0.0,0.0,0.0,0.0,0.0,0.0,0.0,0.0,0.0,0.0,0.0,0.0,0.0,0.0,0.0,0.0,0.0,0.0,0.0,0.0,0.0,0.0,0.0,0.0,0.0,0.0,0.0,0.0,0.0,0.0,0.0,0.0,0.0,0.0,0.0,0.0,0.0,0.0,0.0,0.0,0.0,0.0,0.0,0.0,0.0,0.0,0.0,0.0,0.0,0.0,0.0,0.0,0.0,0.0,0.0,0.0,0.0,0.0,0.0,0.0,0.0,0.0,0.0,0.0,-2.1117,-2.0343,-1.9962,-1.9968,-1.951,-1.9296,-1.9452,0.0,0.0,0.0,0.0,0.0,0.0,0.0,0.0,0.0,0.0,0.0,0.0,0.0,0.0,0.0,0.0,0.0,0.0,0.0,0.0,0.0,0.0,0.0,0.0,0.0,0.0,0.0,0.0,0.0,0.0,0.0,0.0,0.0,0.0,0.0,0.0,0.0,0.0,0.0,0.0,0.0,0.0,0.0,0.0,0.0,0.0,0.0,0.0,0.0,0.0,0.0,0.0,0.0,0.0,0.0,0.0,0.0,0.0,0.0,0.0,0.0,0.0,0.0,0.0,0.0,0.0,0.0,0.0,0.0,0.0,0.0,0.0,0.0,0.0,0.0,0.0,0.0,0.0,0.0,0.0,0.0,0.0,0.0,0.0,0.0,0.0,0.0,0.0,0.0,0.0,0.0,0.0,0.0,0.0,0.0,0.0,0.0,0.0,0.0,0.0,0.0,0.0,0.0,0.0,0.0,0.0,0.0,0.0,-2.2369,-2.1831,-2.122,-2.0454,-2.0065,-1.9554,0.0,0.0,0.0,0.0,0.0,0.0,0.0,0.0,0.0,0.0,0.0,0.0,0.0,0.0,0.0,0.0,0.0,0.0,0.0,0.0,0.0,0.0,0.0,0.0,0.0,0.0,0.0,0.0,0.0,0.0,0.0,0.0,0.0,0.0,0.0,0.0,0.0,0.0,0.0,0.0,0.0,0.0,0.0,0.0,0.0,0.0,0.0,0.0,0.0,0.0,0.0,0.0,0.0,0.0,0.0,0.0,0.0,0.0,0.0,0.0,0.0,0.0,0.0,0.0,0.0,0.0,0.0,0.0,0.0,0.0,0.0,0.0,0.0,0.0,0.0,0.0,0.0,0.0,0.0,0.0,0.0,0.0,0.0,0.0,0.0,0.0,0.0,0.0,0.0,0.0,0.0,0.0,0.0,0.0,0.0,0.0,0.0,0.0,0.0,0.0,0.0,0.0,0.0,0.0,0.0,0.0,0.0,0.0,0.0,-2.0683,-2.1249,-2.1541,-2.1553,-2.0832,-2.0259,0.0,0.0,0.0,0.0,0.0,0.0,0.0,0.0,0.0,0.0,0.0,0.0,0.0,0.0,0.0,0.0,0.0,0.0,0.0,0.0,0.0,0.0,0.0,0.0,0.0,0.0,0.0,0.0,0.0,0.0,0.0,0.0,0.0,0.0,0.0,0.0,0.0,0.0,0.0,0.0,0.0,0.0,0.0,0.0,0.0,0.0,0.0,0.0,0.0,0.0,0.0,0.0,0.0,0.0,0.0,0.0,0.0,0.0,0.0,0.0,0.0,0.0,0.0,0.0,0.0,0.0,0.0,0.0,0.0,0.0,0.0,0.0,0.0,0.0,0.0,0.0,0.0,0.0,0.0,0.0,0.0,0.0,0.0,0.0,0.0,0.0,0.0,0.0,0.0,0.0,0.0,0.0,0.0,0.0,0.0,0.0,0.0,0.0,0.0,0.0,0.0,0.0,0.0,0.0,0.0,0.0,0.0,0.0,-2.0555,-2.0526,-2.1481,-2.1871,-2.1735,-2.1266,-2.0788,0.0,0.0,0.0,0.0,0.0,0.0,0.0,0.0,0.0,0.0,0.0,0.0,0.0,0.0,0.0,0.0,0.0,0.0,0.0,0.0,0.0,0.0,0.0,0.0,0.0,0.0,0.0,0.0,0.0,0.0,0.0,0.0,0.0,0.0,0.0,0.0,0.0,0.0,0.0,0.0,0.0,0.0,0.0,0.0,0.0,0.0,0.0,0.0,0.0,0.0,0.0,0.0,0.0,0.0,0.0,0.0,0.0,0.0,0.0,0.0,0.0,0.0,0.0,0.0,0.0,0.0,0.0,0.0,0.0,0.0,0.0,0.0,0.0,0.0,0.0,0.0,0.0,0.0,0.0,0.0,0.0,0.0,0.0,0.0,0.0,0.0,0.0,0.0,0.0,0.0,0.0,0.0,0.0,0.0,0.0,0.0,0.0,0.0,0.0,0.0,0.0,0.0,0.0,0.0,0.0,0.0,0.0,0.0,-2.1108,-2.125,-2.2064,-2.2102,-2.1369,-2.1376,-2.1202,0.0,0.0,0.0,0.0,0.0,0.0,0.0,0.0,0.0,0.0,0.0,0.0,0.0,0.0,0.0,0.0,0.0,0.0,0.0,0.0,0.0,0.0,0.0,0.0,0.0,0.0,0.0,0.0,0.0,0.0,0.0,0.0,0.0,0.0,0.0,0.0,0.0,0.0,0.0,0.0,0.0,0.0,0.0,0.0,0.0,0.0,0.0,0.0,0.0,0.0,0.0,0.0,0.0,0.0,0.0,0.0,0.0,0.0,0.0,0.0,0.0,0.0,0.0,0.0,0.0,0.0,0.0,0.0,0.0,0.0,0.0,0.0,0.0,0.0,0.0,0.0,0.0,0.0,0.0,0.0,0.0,0.0,0.0,0.0,0.0,0.0,0.0,0.0,0.0,0.0,0.0,0.0,0.0,0.0,0.0,0.0,0.0,0.0,0.0,0.0,0.0,0.0,0.0,0.0,0.0,0.0,0.0,0.0,-2.018,-2.0684,-2.1316,-2.1581,-2.141,-2.1559,-2.112,0.0,0.0,0.0,0.0,0.0,0.0,0.0,0.0,0.0,0.0,0.0,0.0,0.0,0.0,0.0,0.0,0.0,0.0,0.0,0.0,0.0,0.0,0.0,0.0,0.0,0.0,0.0,0.0,0.0,0.0,0.0,0.0,0.0,0.0,0.0,0.0,0.0,0.0,0.0,0.0,0.0,0.0,0.0,0.0,0.0,0.0,0.0,0.0,-2.31,0.0,0.0,0.0,0.0,0.0,0.0,0.0,0.0,0.0,0.0,0.0,0.0,0.0,0.0,0.0,0.0,0.0,0.0,0.0,0.0,0.0,0.0,0.0,0.0,0.0,0.0,0.0,0.0,0.0,0.0,0.0,0.0,0.0,0.0,0.0,0.0,0.0,0.0,0.0,0.0,0.0,0.0,0.0,0.0,0.0,0.0,0.0,0.0,0.0,0.0,0.0,0.0,0.0,0.0,0.0,0.0,0.0,0.0,0.0,-2.0062,-2.0673,-2.1049,-2.1266,-2.1162,-2.1365,-2.1196,0.0,0.0,0.0,0.0,0.0,0.0,0.0,0.0,0.0,0.0,0.0,0.0,0.0,0.0,0.0,0.0,0.0,0.0,0.0,0.0,0.0,0.0,0.0,0.0,0.0,0.0,0.0,0.0,0.0,0.0,0.0,0.0,0.0,0.0,0.0,0.0,0.0,0.0,0.0,0.0,0.0,0.0,0.0,0.0,0.0,0.0,0.0,0.0,0.0,0.0,0.0,0.0,0.0,0.0,0.0,0.0,0.0,0.0,0.0,0.0,0.0,0.0,0.0,0.0,0.0,0.0,0.0,0.0,0.0,0.0,0.0,0.0,0.0,0.0,0.0,0.0,0.0,0.0,0.0,0.0,0.0,0.0,0.0,0.0,0.0,0.0,0.0,0.0,0.0,0.0,0.0,0.0,0.0,0.0,0.0,0.0,0.0,0.0,0.0,0.0,0.0,0.0,0.0,0.0,0.0,0.0,0.0,-1.9904,-2.0241,-2.0773,-2.0992,-2.1003,-2.0941,-2.1105,-2.1185,-2.1081,0.0,0.0,0.0,0.0,0.0,0.0,0.0,0.0,0.0,0.0,0.0,0.0,0.0,0.0,0.0,0.0,0.0,0.0,0.0,0.0,0.0,0.0,0.0,0.0,0.0,0.0,0.0,0.0,0.0,0.0,0.0,0.0,0.0,0.0,0.0,0.0,0.0,0.0,-2.5587,-2.6087,0.0,0.0,0.0,0.0,0.0,0.0,0.0,0.0,-2.421,0.0,0.0,0.0,0.0,0.0,0.0,0.0,0.0,0.0,0.0,0.0,0.0,0.0,0.0,0.0,0.0,0.0,0.0,0.0,0.0,0.0,0.0,0.0,0.0,0.0,0.0,0.0,0.0,0.0,0.0,0.0,0.0,0.0,0.0,0.0,0.0,0.0,0.0,0.0,0.0,0.0,0.0,0.0,0.0,0.0,0.0,0.0,0.0,0.0,0.0,0.0,0.0,0.0,0.0,0.0,0.0,-2.0567,-2.0233,-2.0229,-2.0549,-2.0553,-2.0714,-2.1009,-2.0911,-2.0761,-2.0758,0.0,0.0,0.0,0.0,0.0,0.0,0.0,0.0,0.0,0.0,0.0,0.0,0.0,0.0,0.0,0.0,0.0,0.0,0.0,0.0,0.0,0.0,0.0,0.0,0.0,0.0,0.0,0.0,0.0,0.0,0.0,0.0,0.0,0.0,0.0,0.0,0.0,0.0,0.0,-2.8539,-2.8823,0.0,0.0,0.0,0.0,0.0,0.0,0.0,0.0,-2.4386,0.0,0.0,0.0,0.0,0.0,0.0,0.0,0.0,0.0,0.0,0.0,0.0,0.0,0.0,0.0,0.0,0.0,0.0,0.0,0.0,0.0,0.0,0.0,0.0,0.0,0.0,0.0,0.0,0.0,0.0,0.0,0.0,0.0,0.0,0.0,0.0,0.0,0.0,0.0,0.0,0.0,0.0,0.0,0.0,0.0,0.0,0.0,0.0,0.0,0.0,0.0,0.0,0.0,0.0,0.0,-2.0622,-2.0493,-2.0493,-2.0624,-2.0362,-2.0458,-2.106,-2.1031,-2.0893,0.0,0.0,0.0,0.0,0.0,0.0,0.0,0.0,0.0,0.0,0.0,0.0,0.0,0.0,0.0,0.0,0.0,0.0,0.0,0.0,0.0,0.0,0.0,0.0,0.0,0.0,0.0,0.0,0.0,0.0,0.0,0.0,0.0,0.0,0.0,0.0,0.0,0.0,0.0,0.0,-2.962,-3.0094,-3.0284,0.0,0.0,0.0,0.0,0.0,0.0,-2.6662,-2.6353,0.0,0.0,0.0,0.0,0.0,0.0,0.0,0.0,0.0,0.0,0.0,0.0,0.0,0.0,0.0,0.0,0.0,0.0,0.0,0.0,0.0,0.0,0.0,0.0,0.0,0.0,0.0,0.0,0.0,0.0,0.0,0.0,0.0,0.0,0.0,0.0,0.0,0.0,0.0,0.0,0.0,0.0,0.0,0.0,0.0,0.0,0.0,0.0,0.0,0.0,0.0,0.0,0.0,0.0,0.0,-2.0717,-2.0773,-2.0898,-2.0857,-2.0418,-2.0524,-2.114,-2.1226,-2.1075,0.0,0.0,0.0,0.0,0.0,0.0,0.0,0.0,0.0,0.0,0.0,0.0,0.0,0.0,0.0,0.0,0.0,0.0,0.0,0.0,0.0,0.0,0.0,0.0,0.0,0.0,0.0,0.0,0.0,0.0,0.0,0.0,0.0,0.0,0.0,0.0,0.0,0.0,0.0,0.0,0.0,-3.1356,-3.1494,-3.0948,0.0,0.0,0.0,0.0,-2.8614,-2.8766,0.0,0.0,0.0,0.0,0.0,0.0,0.0,0.0,0.0,0.0,0.0,0.0,0.0,0.0,0.0,0.0,0.0,0.0,0.0,0.0,0.0,0.0,0.0,0.0,0.0,0.0,0.0,0.0,0.0,0.0,0.0,0.0,0.0,0.0,0.0,0.0,0.0,0.0,0.0,0.0,0.0,0.0,0.0,0.0,0.0,0.0,0.0,0.0,0.0,0.0,0.0,0.0,0.0,0.0,0.0,0.0,-2.1357,-2.1368,-2.1329,-2.119,-2.1286,-2.1315,-2.138,-2.1307,-2.1242,0.0,0.0,0.0,0.0,0.0,0.0,0.0,0.0,0.0,0.0,0.0,0.0,0.0,0.0,0.0,0.0,0.0,0.0,0.0,0.0,0.0,0.0,0.0,0.0,0.0,0.0,0.0,0.0,0.0,0.0,0.0,0.0,0.0,0.0,0.0,0.0,0.0,0.0,0.0,0.0,0.0,-3.3405,-3.2579,-3.2294,-3.2036,0.0,0.0,-3.0469,-3.0879,-3.0916,0.0,0.0,0.0,0.0,0.0,0.0,0.0,0.0,0.0,0.0,0.0,0.0,0.0,0.0,0.0,0.0,0.0,0.0,0.0,0.0,0.0,0.0,0.0,0.0,0.0,0.0,0.0,0.0,0.0,0.0,0.0,0.0,0.0,0.0,0.0,0.0,0.0,0.0,0.0,0.0,0.0,0.0,0.0,0.0,0.0,0.0,0.0,0.0,0.0,0.0,0.0,0.0,0.0,0.0,0.0,-2.2372,-2.1388,-2.1797,-2.1912,-2.1761,-2.169,-2.1728,-2.1819,-2.1841,-2.1698,0.0,0.0,0.0,0.0,0.0,0.0,0.0,0.0,0.0,0.0,0.0,0.0,0.0,0.0,0.0,0.0,0.0,0.0,0.0,0.0,0.0,0.0,0.0,0.0,0.0,0.0,0.0,0.0,0.0,0.0,0.0,0.0,0.0,0.0,0.0,0.0,0.0,0.0,0.0,0.0,0.0,0.0,-3.4331,-3.4437,0.0,0.0,0.0,-3.3265,-3.3123,0.0,0.0,0.0,0.0,0.0,0.0,0.0,0.0,0.0,0.0,0.0,0.0,0.0,0.0,0.0,0.0,0.0,0.0,0.0,0.0,0.0,0.0,0.0,0.0,0.0,0.0,0.0,0.0,0.0,0.0,0.0,0.0,0.0,0.0,0.0,0.0,0.0,0.0,0.0,0.0,0.0,0.0,0.0,0.0,0.0,0.0,0.0,0.0,0.0,0.0,0.0,0.0,0.0,0.0,0.0,0.0,0.0,-2.2024,-2.2463,-2.2706,-2.2576,-2.2481,-2.2459,-2.2448,-2.2546,0.0,0.0,0.0,0.0,0.0,0.0,0.0,0.0,0.0,0.0,0.0,0.0,0.0,0.0,0.0,0.0,0.0,0.0,0.0,0.0,0.0,0.0,0.0,0.0,0.0,0.0,0.0,-2.0734,0.0,0.0,0.0,0.0,0.0,0.0,0.0,0.0,0.0,0.0,0.0,0.0,0.0,0.0,-3.5534,-3.5717,-3.6289,-3.6508,0.0,0.0,-3.5857,-3.5369,-3.5193,-3.4395,0.0,0.0,0.0,0.0,0.0,0.0,0.0,0.0,0.0,0.0,0.0,0.0,0.0,0.0,0.0,0.0,0.0,0.0,0.0,0.0,0.0,0.0,0.0,0.0,0.0,0.0,0.0,0.0,0.0,0.0,0.0,0.0,0.0,0.0,0.0,0.0,0.0,0.0,0.0,0.0,0.0,0.0,0.0,0.0,0.0,0.0,0.0,0.0,0.0,0.0,0.0,0.0,0.0,0.0,-2.3643,-2.3957,-2.3763,-2.3724,-2.3736,-2.4123,-2.4012,-2.3482,-2.3154,-2.2865,0.0,0.0,0.0,0.0,0.0,0.0,0.0,0.0,0.0,0.0,0.0,0.0,0.0,0.0,0.0,0.0,0.0,0.0,0.0,0.0,0.0,0.0,0.0,0.0,0.0,0.0,0.0,0.0,0.0,0.0,0.0,0.0,0.0,0.0,0.0,0.0,0.0,0.0,0.0,0.0,0.0,-3.6471,-3.6183,-3.7184,-3.8008,0.0,-3.7817,-3.7451,-3.7724,-3.7432,-3.6482,-3.4495,0.0,0.0,0.0,0.0,0.0,0.0,0.0,0.0,0.0,0.0,0.0,0.0,0.0,0.0,0.0,0.0,0.0,0.0,0.0,0.0,0.0,0.0,0.0,0.0,0.0,0.0,0.0,0.0,-2.5905,0.0,0.0,0.0,0.0,0.0,0.0,0.0,0.0,0.0,0.0,0.0,0.0,0.0,0.0,0.0,0.0,0.0,0.0,0.0,0.0,0.0,0.0,0.0,0.0,-2.4916,-2.4852,-2.4861,-2.4827,-2.4731,-2.4746,-2.4566,-2.4182,-2.3744,-2.3291,0.0,0.0,0.0,0.0,0.0,0.0,0.0,0.0,0.0,0.0,0.0,0.0,0.0,0.0,0.0,0.0,0.0,0.0,0.0,0.0,0.0,0.0,0.0,0.0,0.0,0.0,0.0,0.0,-2.2594,-2.3196,-2.3911,0.0,0.0,0.0,0.0,0.0,0.0,0.0,0.0,0.0,0.0,-3.7349,-3.7979,-3.889,0.0,0.0,-3.9932,-3.9719,-3.9624,-3.8819,-3.7677,-3.6157,-3.4802,0.0,0.0,0.0,0.0,0.0,0.0,0.0,0.0,0.0,0.0,0.0,0.0,0.0,0.0,0.0,0.0,0.0,0.0,0.0,0.0,0.0,0.0,0.0,0.0,0.0,0.0,0.0,-2.6425,0.0,0.0,0.0,0.0,0.0,0.0,0.0,0.0,0.0,0.0,0.0,0.0,0.0,0.0,0.0,0.0,0.0,0.0,0.0,0.0,0.0,0.0,0.0,0.0,-2.5953,-2.574,-2.5728,-2.5684,-2.5697,-2.5521,-2.5337,-2.505,-2.4547,-2.4085,0.0,0.0,0.0,0.0,0.0,0.0,0.0,0.0,0.0,0.0,0.0,0.0,0.0,0.0,0.0,0.0,0.0,0.0,0.0,0.0,0.0,0.0,0.0,0.0,0.0,0.0,0.0,0.0,-2.3263,-2.3994,-2.5125,0.0,0.0,0.0,0.0,0.0,0.0,0.0,0.0,0.0,0.0,-3.8609,-3.9499,-4.0503,-4.129,-4.1437,-4.1614,-4.1659,-4.1422,-4.0357,-3.9219,-3.8116,0.0,0.0,0.0,0.0,0.0,0.0,0.0,0.0,0.0,0.0,0.0,0.0,0.0,0.0,0.0,0.0,0.0,0.0,0.0,0.0,0.0,0.0,0.0,0.0,0.0,0.0,0.0,-2.7323,0.0,0.0,-2.731,0.0,0.0,0.0,0.0,0.0,0.0,0.0,0.0,0.0,0.0,0.0,0.0,0.0,0.0,0.0,0.0,0.0,0.0,0.0,0.0,0.0,0.0,-2.6353,-2.6966,-2.6339,-2.6203,-2.6531,-2.6613,-2.6515,-2.6347,-2.5748,-2.5295,-2.5077,0.0,0.0,0.0,0.0,0.0,0.0,0.0,0.0,0.0,0.0,0.0,0.0,0.0,0.0,0.0,0.0,0.0,0.0,0.0,0.0,0.0,0.0,0.0,0.0,0.0,0.0,-2.3579,-2.4173,-2.5149,0.0,0.0,0.0,0.0,0.0,0.0,0.0,0.0,0.0,-3.7096,-3.9149,-4.0418,-4.052,-4.1854,-4.2781,-4.2402,-4.2746,-4.3027,-4.3027,-4.2305,-4.1444,0.0,0.0,0.0,0.0,0.0,0.0,0.0,0.0,0.0,0.0,0.0,0.0,0.0,0.0,0.0,0.0,0.0,0.0,0.0,0.0,0.0,0.0,0.0,0.0,0.0,0.0,0.0,-2.7897,-2.8136,0.0,0.0,0.0,0.0,0.0,0.0,0.0,0.0,0.0,0.0,0.0,-2.646,-2.6287,0.0,0.0,0.0,0.0,0.0,0.0,0.0,0.0,0.0,0.0,0.0,0.0,-2.7592,-2.8564,-2.7645,-2.7403,-2.7941,-2.7499,-2.729,-2.7255,-2.6694,-2.6222,-2.5764,0.0,0.0,0.0,0.0,0.0,0.0,0.0,0.0,0.0,0.0,0.0,0.0,0.0,0.0,0.0,0.0,0.0,0.0,0.0,0.0,0.0,0.0,0.0,0.0,0.0,-2.4529,0.0,0.0,0.0,0.0,0.0,0.0,0.0,0.0,0.0,0.0,-3.4743,-3.6663,-3.8698,-4.0097,-4.106,-4.1592,-4.24,-4.2855,0.0,0.0,0.0,0.0,0.0,0.0,0.0,0.0,0.0,0.0,0.0,0.0,0.0,0.0,-3.7191,-3.5174,-3.4477,-3.4275,-3.455,0.0,0.0,0.0,0.0,0.0,0.0,0.0,0.0,0.0,0.0,0.0,0.0,0.0,0.0,-2.8273,-2.8509,-2.8498,0.0,0.0,0.0,0.0,0.0,0.0,0.0,0.0,-2.764,-2.7233,-2.7017,-2.6852,-2.6635,-2.6348,-2.6022,-2.5604,0.0,0.0,0.0,0.0,0.0,0.0,0.0,0.0,-2.8186,-2.9425,-2.8618,-2.8487,-2.9199,-2.8655,-2.8356,-2.8343,-2.7676,-2.71,-2.6537,-2.5833,-2.5437,0.0,0.0,0.0,0.0,0.0,0.0,0.0,0.0,0.0,0.0,0.0,0.0,0.0,0.0,0.0,0.0,0.0,0.0,0.0,0.0,0.0,0.0,0.0,-2.5884,0.0,0.0,0.0,0.0,0.0,0.0,0.0,0.0,0.0,-3.4847,-3.6587,-3.8434,-3.9987,-4.1087,-4.1941,-4.2601,0.0,0.0,0.0,0.0,0.0,0.0,0.0,-4.3529,-4.3697,-4.3549,-4.3317,-4.2831,-4.2488,-4.2058,-4.1402,0.0,0.0,-3.8163,-3.7356,-3.7173,-3.7411,-3.7264,-3.7209,-3.7613,-3.7686,-3.8047,0.0,0.0,0.0,0.0,-2.7649,0.0,0.0,0.0,-2.86,-2.846,0.0,-2.8951,0.0,0.0,0.0,0.0,-2.8715,-2.8552,0.0,0.0,-2.8262,-2.79,-2.7216,-2.7661,-2.7436,-2.6792,-2.6659,-2.6532,-2.6194,-2.5716,0.0,0.0,0.0,0.0,0.0,0.0,-2.8125,-2.9425,-2.9131,-2.9407,-3.0377,-2.9831,-2.9509,-2.9481,-2.8723,-2.7965,-2.7347,-2.701,-2.6547,-2.587,-2.6194,0.0,0.0,0.0,0.0,0.0,0.0,0.0,0.0,0.0,0.0,0.0,0.0,0.0,0.0,0.0,0.0,0.0,0.0,0.0,0.0,-2.629,0.0,0.0,0.0,0.0,0.0,0.0,0.0,0.0,0.0,-3.7553,-3.6902,-3.8565,-4.0061,-4.0824,0.0,0.0,0.0,0.0,-4.4808,-4.4827,-4.5168,-4.5597,-4.6063,-4.5807,-4.5695,-4.624,0.0,0.0,-4.4546,-4.4266,-4.3955,-4.3074,-4.3206,-4.2913,-4.0969,-4.0262,-3.9968,-3.9987,-3.9932,-4.0097,-4.04,-4.0345,-4.0676,-2.8404,0.0,0.0,0.0,0.0,-2.8934,-2.953,-3.0844,-3.0085,-2.9658,-2.9563,-2.9534,0.0,0.0,0.0,0.0,0.0,0.0,-2.9143,-2.8946,-2.9196,-2.9128,-2.874,-2.8668,-2.8524,-2.8344,-2.773,-2.7437,-2.7317,-2.6771,-2.6401,-2.6242,0.0,0.0,0.0,0.0,-2.9084,-2.9886,-2.9662,-2.9918,-3.0727,-3.0708,-3.0567,-3.0255,-2.9508,-2.8891,-2.8274,-2.774,-2.7354,-2.7264,-2.6897,0.0,0.0,0.0,0.0,0.0,0.0,0.0,0.0,0.0,0.0,0.0,0.0,0.0,0.0,0.0,0.0,0.0,0.0,0.0,-2.6982,-2.7999,-2.8699,0.0,0.0,0.0,0.0,0.0,0.0,0.0,0.0,0.0,-3.983,-4.0788,-4.1551,0.0,0.0,-4.4196,-4.4325,-4.4617,-4.4801,-4.5096,-4.5058,0.0,-4.5903,-4.6038,-4.6133,-4.6671,-4.7028,-4.69,-4.5782,-4.5588,-4.5265,-4.4341,-4.4251,-4.4123,-4.3573,-4.2417,-4.1739,-4.1971,-4.1555,-4.1317,-4.1666,-4.1757,-4.1965,-2.9749,-2.8512,-2.8172,-2.8677,-2.955,-2.9194,-2.979,-3.11,-3.0477,-3.0144,-3.0118,-3.0026,-2.9467,-2.8612,-2.8856,0.0,0.0,0.0,-2.9533,-2.9322,-2.9579,-2.964,-2.9405,-2.9344,-2.9272,-2.9139,-2.8463,-2.8137,-2.8125,-2.7606,-2.7377,-2.7448,0.0,-2.8265,-2.9011,-2.9198,-2.9602,-3.0226,-3.023,-3.0636,-3.1497,-3.1525,-3.1411,-3.1094,-3.0637,-3.0153,-2.9524,-2.8863,-2.8409,-2.8203,-2.7573,-2.7395,0.0,0.0,0.0,0.0,0.0,0.0,0.0,0.0,0.0,0.0,0.0,-2.5263,-2.5205,0.0,0.0,0.0,-2.7107,-2.7888,-2.8937,-2.9624,0.0,0.0,0.0,0.0,0.0,0.0,0.0,-3.8591,-3.9912,-4.0966,-4.1614,-4.2474,-4.3005,-4.3058,-4.4247,-4.5205,-4.537,0.0,-4.5535,-4.5957,-4.581,-4.5906,-4.6615,-4.6579,-4.6611,-4.703,-4.7448,-4.7448,-4.6533,-4.6331,-4.6073,-4.5427,-4.515,-4.515,-4.515,-4.4233,-4.3481,-4.3554,-4.3206,-4.2986,-4.3188,-4.3224,-4.3402,-3.1058,-3.0332,-2.854,-2.821,-2.8729,-2.8718,-2.9377,-3.0346,-3.0346,-3.031,-3.0226,-3.0487,-3.0429,-3.0033,-3.0063,0.0,-2.9676,-2.9713,-2.9677,-2.9513,-2.9767,-2.9755,-2.9513,-2.9743,-2.9719,-2.9465,-2.8958,-2.8705,-2.8656,-2.8162,-2.8177,-2.8713,-2.8686,-2.8732,-2.8882,-2.9402,-2.9891,-3.0595,-3.0854,-3.1423,-3.2498,-3.2396,-3.2193,-3.1841,-3.1841,-3.1534,-3.0807,-3.0238,-2.9545,-2.8942,-2.831,-2.7966,-2.7951,0.0,0.0,0.0,0.0,0.0,0.0,0.0,0.0,0.0,0.0,0.0,0.0,0.0,0.0,-2.7453,-2.8076,0.0,-3.0657,-3.1216,0.0,0.0,0.0,-3.5694,-3.6085,-3.782,-3.9121,-3.9542,0.0,0.0,-4.2668,-4.3786,-4.437,-4.4057,-4.5155,-4.6085,-4.647,-4.6507,-4.669,-4.7039,-4.7112,-4.7287,-4.7598,-4.7436,-4.7291,-4.7458,-4.7793,-4.7624,-4.6766,-4.6597,-4.6429,-4.6016,-4.5883,-4.5865,-4.5978,-4.5573,-4.5223,-4.4801,-4.4655,-4.4618,-4.4563,-4.4545,-4.4691,-3.2527,-3.1795,-3.1206,-3.0888,-3.0917,-3.0917,-3.1165,-3.1433,-3.1433,-3.1083,-3.0515,-3.0545,-3.016,-2.9605,-2.979,-2.9742,-2.9522,-3.0334,-3.0545,-3.0346,-3.0588,-3.0576,-3.0334,-3.0383,-3.0274,-3.002,-2.9682,-2.9417,-2.9212,-2.8886,-2.91,-2.9747,-2.9703,-2.9772,-2.9847,-3.0292,-3.0606,-3.0765,-3.114,-3.1708,-3.2437,-3.2473,-3.2395,-3.2193,-3.2163,-3.1856,-3.1212,-3.0807,-3.036,-3.0048,-2.9421,-2.8992,-2.8992,-2.8544,0.0,0.0,0.0,0.0,0.0,0.0,0.0,0.0,0.0,-2.6962,-2.6885,0.0,-2.8905,0.0,-2.9636,-3.068,-3.1924,-3.28,0.0,0.0,-3.6746,-3.786,-3.8791,-3.9597,-4.046,-4.1493,-4.215,-4.3001,-4.4149,-4.5125,-4.5656,-4.5669,-4.6088,-4.6489,-4.6892,-4.6965,-4.7094,-4.7442,-4.7314,-4.7416,-4.8007,-4.8003,-4.7781,-4.7875,-4.7703,-4.7289,-4.6728,-4.6635,-4.6541,-4.6447,-4.6166,-4.6072,-4.6353,-4.6092,-4.5718,-4.5572,-4.5113,-4.4673,-4.4673,-4.4673,-4.4765,-3.3546,-3.2932,-3.3033,-3.3022,-3.3156,-3.2254,-3.1985,-3.2157,-3.2157,-3.1831,-3.13,-3.1059,-3.0598,-3.0165,-3.0296,-3.0284,-3.0165,-3.0762,-3.0926,-3.0793,-3.0926,-3.0914,-3.0781,-3.066,-3.0527,-3.0371,-2.9984,-2.9719,-2.9562,-2.9505,-2.9884,-3.0509,-3.0702,-3.0933,-3.1178,-3.1089,-3.0982,-3.0982,-3.1432,-3.2033,-3.2665,-3.2598,-3.2549,-3.2734,-3.2573,-3.2266,-3.1754,-3.1601,-3.1505,-3.1327,-3.087,-3.0674,-3.0659,-2.996,-2.9624,0.0,0.0,0.0,0.0,0.0,0.0,0.0,0.0,0.0,0.0,0.0,-3.0611,-3.1139,-3.1778,-3.2711,-3.3918,-3.489,-3.6041,-3.7558,-3.8728,-3.9749,-4.0781,-4.1467,-4.2114,-4.2981,-4.3238,-4.3706,-4.4626,-4.5344,-4.6056,-4.6474,-4.6877,-4.7094,-4.7332,-4.7516,-4.7717,-4.7901,-4.7772,-4.7723,-4.809,-4.8204,-4.7947,-4.7514,-4.7497,-4.7271,-4.6446,-4.6407,-4.6463,-4.6296,-4.6072,-4.6072,-4.6447,-4.6259,-4.5978,-4.611,-4.5722,-4.5242,-4.5205,-4.5223,-4.5223,-3.4306,-3.3781,-3.4111,-3.4578,-3.486,-3.3076,-3.2622,-3.2956,-3.292,-3.2737,-3.2326,-3.1747,-3.1397,-3.1155,-3.1155,-3.1131,-3.1107,-3.1095,-3.1107,-3.1095,-3.1095,-3.1083,-3.1034,-3.0781,-3.0636,-3.0588,-3.0093,-2.9827,-2.9791,-3.0157,-3.0526,-3.0992,-3.1568,-3.2057,-3.2603,-3.1866,-3.1464,-3.1531,-3.1851,-3.2445,-3.3071,-3.2799,-3.2793,-3.3142,-3.3072,-3.2749,-3.2382,-3.252,-3.2629,-3.2614,-3.2495,-3.244,-3.2471,-3.1881,-3.1482,0.0,-3.1055,0.0,0.0,0.0,0.0,0.0,0.0,0.0,0.0,-3.1566,-3.2658,-3.3753,-3.4142,-3.4818,-3.6212,-3.7146,-3.8083,-3.9308,-4.0513,-4.166,-4.2352,-4.3095,-4.3632,-4.4107,-4.4158,-4.4355,-4.5032,-4.5487,-4.6119,-4.7013,-4.746,-4.7736,-4.7791,-4.8029,-4.8231,-4.8286,-4.8286,-4.8102,-4.7962,-4.8108,-4.791,-4.7029,-4.7239,-4.7317,-4.6198,-4.6305,-4.6434,-4.618,-4.6088,-4.6164,-4.6615,-4.6352,-4.6164,-4.6465,-4.6295,-4.5993,-4.5865,-4.581,-4.5883,-3.5102,-3.4744,-3.4607,-3.4615,-3.4566,-3.3769,-3.4056,-3.4981,-3.4766,-3.4168,-3.3173,-3.2628,-3.2217,-3.1988,-3.1964,-3.1855,-3.1662,-3.165,-3.1662,-3.1662,-3.165,-3.1541,-3.1312,-3.1046,-3.0805,-3.06,-3.0286,-3.002,-2.9791,-3.0254,-3.0714,-3.0992,-3.1581,-3.2252,-3.3116,0.0,0.0,0.0,-3.3016,-3.3126,-3.34,-3.3343,-3.3331,-3.3186,-3.3546,0.0,-3.2919,-3.3263,-3.3492,-3.3477,-3.3456,0.0,0.0,0.0,0.0,0.0,0.0,0.0,0.0,0.0,0.0,0.0,-3.4455,-3.4022,-3.2654,-3.3809,-3.4984,-3.573,-3.5853,-3.6514,-3.8149,-3.8823,-3.9936,-4.177,-4.255,-4.3175,-4.3619,-4.3837,-4.4222,-4.4962,-4.5014,-4.5533,-4.6608,-4.7095,-4.7311,-4.7843,-4.8077,-4.8176,-4.8157,-4.8231,-4.8286,-4.8286,-4.8286,-4.8267,-4.8176,-4.7999,-4.7876,-4.7461,-4.7319,-4.7043,-4.6525,-4.6709,-4.7029,-4.6928,-4.6645,-4.655,-4.7025,-4.674,-4.6455,-4.655,-4.6713,-4.6672,-4.6048,-4.5902,-4.5883,-3.509,-3.4945,-3.4825,-3.4998,0.0,-3.4803,-3.5204,-3.5965,-3.4832,-3.3925,-3.3212,-3.2762,-3.2507,-3.2386,-3.2725,-3.2686,-3.243,-3.2887,-3.2813,-3.2234,-3.2368,-3.2176,-3.159,-3.1324,-3.1059,-3.0793,-3.0527,-3.0274,-3.0008,-3.0801,-3.1239,-3.1399,-3.2478,-3.3336,-3.3981,-3.4773,-3.4773,-3.3863,-3.3709,-3.3841,-3.4159,-3.4298,-3.4441,-3.4566,-3.4697,0.0,0.0,0.0,0.0,0.0,0.0,0.0,0.0,-3.5712,0.0,-3.5712,-3.5712,-3.5879,-3.6321,-3.6314,-3.6365,-3.6826,-3.7315,-3.6883,-3.5392,-3.6128,-3.7118,-3.8103,-3.8545,-3.918,-4.0206,-4.0979,-4.186,-4.3068,-4.3662,-4.4111,-4.4471,-4.4556,-4.4724,-4.5162,-4.5413,-4.59,-4.6594,-4.7211,-4.7528,-4.7907,-4.8106,-4.8286,-4.8286,-4.8286,-4.8286,-4.8286,-4.8286,-4.8286,-4.8267,-4.8139,-4.7901,-4.7736,-4.7699,-4.7442,-4.6892,-4.713,-4.7374,-4.7162,-4.6974,-4.6974,-4.7625,-4.7357,-4.6974,-4.7338,-4.7165,-4.669,-4.6269,-4.6342,-4.6415,-3.5054,-3.497,-3.497,-3.5322,-3.5766,-3.5494,-3.5564,-3.5773,-3.4292,0.0,0.0,-3.2931,-3.27,-3.2762,-3.3212,-3.3282,-3.2927,-3.3643,-3.348,-3.2521,-3.2801,-3.2442,-3.1795,-3.1517,-3.1276,-3.1059,-3.0745,-3.0527,-3.0358,-3.1415,-3.1921,-3.2263,-3.3661,-3.4588,-3.524,-3.6666,-3.6674,-3.5135,-3.4895,-3.5032,-3.5517,-3.564,-3.5955,-3.6291,-3.631,-3.6267,-3.6298,-3.6227,-3.6574,-3.7173,-3.7317,-3.7499,-3.7835,-3.7959,-3.8051,-3.7959,-3.7959,-3.8348,-3.8933,-3.8671,-3.8723,-3.947,-3.9763,-3.9384,-3.8182,-3.8435,-3.9149,-4.0431,-4.1098,-4.1653,-4.2227,-4.2887,-4.352,-4.4008,-4.4342,-4.4762,-4.5053,-4.5121,-4.5087,-4.5323,-4.5691,-4.611,-4.6311,-4.7111,-4.7609,-4.7708,-4.8106,-4.8286,-4.8286,-4.8286,-4.8286,-4.8286,-4.8286,-4.8286,-4.8286,-4.8267,-4.8139,-4.7901,-4.8066,-4.8011,-4.7497,-4.7534,-4.7607,-4.7277,-4.7222,-4.7494,-4.8151,-4.7784,-4.7494,-4.8247,-4.7561,-4.68,-4.6819,-4.7002,-4.6984,-3.538,-3.497,-3.497,-3.5087,-3.5063,-3.4796,-3.4548,-3.4236,-3.4442,-3.4345,-3.4098,-3.3503,-3.3135,-3.293,-3.3028,-3.2895,-3.2628,-3.2555,-3.2434,-3.2241,-3.2059,-3.195,-3.1795,-3.1517,-3.1372,-3.13,-3.0841,-3.0708,-3.0957,-3.1778,-3.2596,-3.3315,-3.4367,-3.5721,-3.72,-3.8313,-3.8741,-3.849,-3.7931,-3.7742,-3.784,-3.7892,-3.7724,-3.7643,-3.832,-3.8688,-3.8403,-3.9137,-3.9846,-4.0256,-4.0335,-4.045,-4.0779,-4.0796,-4.0812,-4.0812,-4.0812,-4.0845,-4.0974,-4.0895,-4.1043,-4.1486,-4.1585,-4.1162,-4.0239,-4.0545,-4.1242,-4.1982,-4.2262,-4.2543,-4.3439,-4.364,-4.4025,-4.4766,-4.4935,-4.507,-4.5138,-4.5138,-4.534,-4.5708,-4.6211,-4.6829,-4.7111,-4.7708,-4.8088,-4.8187,-4.8187,-4.8286,-4.8286,-4.8286,-4.8286,-4.8286,-4.8286,-4.8286,-4.8286,-4.8286,-4.8231,-4.8212,-4.8231,-4.8139,-4.7699,-4.7901,-4.8011,-4.7681,-4.7607,-4.7705,-4.79,-4.7705,-4.7705,-4.7997,-4.7895,-4.7827,-4.7791,-4.7662,-4.7204,-3.5332,-3.4982,-3.497,-3.497,-3.4933,-3.4535,-3.4149,-3.3787,-3.3956,-3.3934,-3.3824,-3.3488,-3.3304,-3.3195,-3.3529,-3.3494,-3.3237,-3.3701,-3.3443,-3.2845,-3.2711,-3.2481,-3.2,-3.1747,-3.1541,-3.1384,-3.1155,-3.1126,-3.1506,-3.2209,-3.3033,-3.3987,-3.5781,-3.7709,-3.9423,-4.0425,-4.121,-4.1692,-4.0046,-3.9296,-3.9582,-4.0096,-4.0411,-4.0526,-4.1045,-4.1277,-4.1098,-4.1389,-4.1649,-4.203,-4.2046,-4.2195,-4.2543,-4.269,-4.2689,-4.2672,-4.2799,-4.2779,-4.2779,-4.2779,-4.2863,-4.3015,-4.3031,-4.295,-4.277,-4.2689,-4.2938,-4.3455,-4.3756,-4.4059,-4.4429,-4.4546,-4.4699,-4.5361,-4.5412,-4.5412,-4.5514,-4.5717,-4.5833,-4.5962,-4.6611,-4.7228,-4.7428,-4.7988,-4.8286,-4.8286,-4.8286,-4.8286,-4.8286,-4.8286,-4.8286,-4.8286,-4.8286,-4.8286,-4.8286,-4.8286,-4.8286,-4.8286,-4.8286,-4.8212,-4.8047,-4.8194,-4.8176,-4.8066,-4.8011,-4.8109,-4.8306,-4.8208,-4.8208,-4.8386,-4.7931,-4.7699,-4.7589,-4.7167,-4.669,-3.532,-3.5054,-3.4994,-3.497,-3.4921,-3.4402,-3.4064,-3.3859,-3.3521,-3.3364,-3.3364,-3.3364,-3.3364,-3.3488,-3.3936,-3.3925,-3.3875,-3.4444,-3.417,-3.3358,-3.3272,-3.2894,-3.2193,-3.1988,-3.1783,-3.1566,-3.1457,-3.1652,-3.209,-3.2603,-3.3745,-3.5417,-3.7736,-3.9889,-4.1659,-4.2533,-4.3221,-4.3832,-4.2211,-4.1271,-4.1541,-4.227,-4.2925,-4.3137,-4.3434,-4.3488,-4.3488,-4.3407,-4.3507,-4.3673,-4.369,-4.384,-4.4192,-4.4279,-4.4295,-4.4294,-4.4408,-4.4505,-4.4488,-4.4419,-4.4368,-4.4368,-4.4282,-4.4368,-4.4508,-4.4259,-4.4259,-4.4593,-4.4815,-4.5121,-4.5207,-4.5241,-4.5378,-4.5738,-4.5789,-4.5789,-4.5892,-4.6198,-4.6298,-4.6122,-4.6705,-4.7272,-4.7554,-4.7935,-4.8388,-4.8579,-4.8414,-4.8304,-4.8396,-4.8359,-4.8286,-4.8286,-4.8286,-4.8286,-4.8286,-4.8286,-4.8286,-4.8286,-4.8286,-4.8267,-4.8249,-4.8267,-4.8286,-4.8249,-4.8267,-4.8348,-4.878,-4.8564,-4.8465,-4.8608,-4.8079,-4.7424,-4.7185,-4.6764,-4.6342,-3.5585,-3.5332,-3.5078,-3.497,-3.4909,-3.4402,-3.4161,-3.4088,-3.3593,-3.3376,-3.3388,-3.3376,-3.3364,-3.3364,-3.3476,-3.3464,-3.3416,-3.3222,-3.3211,-3.304,-3.281,-3.2568,-3.2242,-3.2181,-3.2145,-3.206,-3.165,-3.1993,-3.2858,-3.3071,-3.495,-3.8492,-4.0375,-4.1917,-4.3366,-4.4057,-4.4419,-4.454,-4.4736,-4.4686,-4.4287,-4.4287,-4.4408,-4.4441,-4.4943,-4.515,-4.5134,-4.5617,-4.5823,-4.5857,-4.5857,-4.5874,-4.5908,-4.5977,-4.5806,-4.5482,-4.5823,-4.6029,-4.5977,-4.5704,-4.5583,-4.5481,-4.5274,-4.5119,-4.507,-4.507,-4.4969,-4.5087,-4.5104,-4.5275,-4.5567,-4.5618,-4.5772,-4.6114,-4.6183,-4.6183,-4.6166,-4.6183,-4.6166,-4.6235,-4.6505,-4.6838,-4.7428,-4.7932,-4.8479,-4.9221,-4.8781,-4.8506,-4.8708,-4.8543,-4.8322,-4.8304,-4.8286,-4.8286,-4.8286,-4.8286,-4.8286,-4.8286,-4.8286,-4.8286,-4.8286,-4.8286,-4.8286,-4.8286,-4.8286,-4.8385,-4.8385,-4.8286,-4.8385,-4.8465,-4.8201,-4.7901,-4.7332,-4.6947,-4.6837,-3.5766,-3.538,-3.5259,-3.5114,-3.4909,-3.4402,-3.4269,-3.4342,-3.3666,-3.3461,-3.3593,-3.3449,-3.3364,-3.3364,-3.3364,-3.3364,-3.3364,-3.3255,-3.3207,-3.3195,-3.2942,-3.2761,-3.2664,-3.2495,-3.2435,-3.2423,-3.2205,-3.2637,-3.3854,-3.5191,-3.7122,-3.926,-4.068,-4.2219,-4.4012,-4.4361,-4.4864,-4.5712,-4.5939,-4.6167,-4.6238,-4.6035,-4.6035,-4.6238,-4.6482,-4.6587,-4.6587,-4.6797,-4.6902,-4.6902,-4.6902,-4.6902,-4.6902,-4.6474,-4.6166,-4.6012,-4.5926,-4.5995,-4.6217,-4.6389,-4.6526,-4.6526,-4.6676,-4.6775,-4.6775,-4.6775,-4.6775,-4.6656,-4.5974,-4.5703,-4.6354,-4.6217,-4.6149,-4.6474,-4.656,-4.656,-4.6543,-4.6855,-4.701,-4.6785,-4.7023,-4.7429,-4.8041,-4.8549,-4.9027,-4.9459,-4.9166,-4.9001,-4.8946,-4.8763,-4.8561,-4.8341,-4.8286,-4.8286,-4.8286,-4.8286,-4.8286,-4.8286,-4.8286,-4.8286,-4.8286,-4.8286,-4.8286,-4.8286,-4.8286,-4.8286,-4.8286,-4.8286,-4.8286,-4.8249,-4.8011,-4.7754,-4.7222,-4.691,-4.6819,-3.5851,-3.5501,-3.5344,-3.5151,-3.4933,-3.4487,-3.4402,-3.4475,-3.3799,-3.3606,-3.375,-3.3497,-3.3364,-3.3364,-3.3364,-3.3364,-3.3364,-3.3364,-3.3364,-3.3352,-3.3171,-3.305,-3.2966,-3.2797,-3.281,-3.2908,-3.2822,-3.3562,-3.4868,-3.6801,-3.8454,-3.9811,-4.1013,-4.2579,-4.4263,-4.4614,-4.5169,-4.6146,-4.6286,-4.6498,-4.6995,-4.688,-4.6968,-4.733,-4.7365,-4.7365,-4.7365,-4.7365,-4.7365,-4.7365,-4.7365,-4.7365,-4.7347,-4.6938,-4.6837,-4.6907,-4.6699,-4.6647,-4.6907,-4.7286,-4.7544,-4.7526,-4.773,-4.7966,-4.7966,-4.7966,-4.802,-4.8193,-4.7161,-4.6835,-4.7044,-4.6803,-4.6751,-4.7095,-4.7041,-4.7041,-4.7146,-4.7461,-4.7357,-4.7201,-4.7304,-4.7818,-4.8519,-4.906,-4.9551,-5.0012,-4.9846,-4.9727,-4.9514,-4.9366,-4.8944,-4.8557,-4.8385,-4.8286,-4.8286,-4.8286,-4.8286,-4.8286,-4.8286,-4.8286,-4.8286,-4.8286,-4.8286,-4.8286,-4.8286,-4.8286,-4.8286,-4.8286,-4.8286,-4.8231,-4.8047,-4.7736,-4.7406,-4.702,-4.7057,-3.5778,-3.567,-3.5199,-3.4994,-3.4945,-3.4656,-3.4559,-3.4559,-3.4004,-3.3787,-3.3775,-3.3509,-3.3376,-3.3364,-3.3364,-3.3364,-3.3364,-3.3364,-3.3364,-3.3364,-3.3352,-3.3219,-3.299,-3.2966,-3.3298,-3.3825,-3.3639,-3.4388,-3.6004,-3.7273,-3.8891,-4.078,-4.1882,-4.3229,-4.4586,-4.5169,-4.5629,-4.5646,-4.5646,-4.5966,-4.6498,-4.6482,-4.6783,-4.7259,-4.7365,-4.7365,-4.7365,-4.7365,-4.7365,-4.7365,-4.7365,-4.7365,-4.747,-4.7842,-4.8281,-4.8648,-4.8469,-4.8452,-4.8717,-4.8505,-4.8449,-4.8396,-4.8251,-4.8002,-4.8176,-4.8176,-4.8524,-4.912,-4.8707,-4.8189,-4.7791,-4.7583,-4.7635,-4.7878,-4.763,-4.763,-4.8052,-4.7701,-4.7436,-4.7333,-4.7251,-4.7618,-4.8414,-4.9121,-5.0039,-5.0744,-5.0689,-5.0325,-5.0497,-5.0134,-4.948,-4.9028,-4.8583,-4.8286,-4.8286,-4.8286,-4.8286,-4.8286,-4.8286,-4.8286,-4.8286,-4.8286,-4.8286,-4.8286,-4.8286,-4.8286,-4.8286,-4.8286,-4.8286,-4.8267,-4.8267,-4.8011,-4.7717,-4.7681,-4.7626,-3.5827,-3.5489,-3.5114,-3.497,-3.4933,-3.468,-3.4668,-3.4764,-3.4269,-3.404,-3.4004,-3.3762,-3.3545,-3.3364,-3.3364,-3.3364,-3.3376,-3.3364,-3.3364,-3.3364,-3.3364,-3.3539,-3.3801,-3.3789,-3.4123,-3.4666,-3.4688,-3.53,-3.662,-3.7825,-3.9175,-4.0567,-4.1788,-4.2836,-4.3699,-4.4253,-4.4683,-4.5004,-4.5111,-4.5325,-4.5859,-4.6286,-4.6605,-4.6817,-4.7259,-4.7365,-4.7365,-4.7365,-4.7365,-4.7365,-4.7365,-4.7576,-4.7876,-4.8193,-4.8454,-4.8644,-4.8538,-4.8627,-4.8928,-4.9224,-4.9361,-4.9448,-4.9651,-4.9628,-4.9647,-4.9665,-4.9823,-5.0053,-5.009,-4.9656,-4.9031,-4.8403,-4.7948,-4.7753,-4.7788,-4.7893,-4.7788,-4.7788,-4.7788,-4.7559,-4.7843,-4.8403,-4.8873,-4.9633,-5.0395,-5.0822,-5.076,-5.068,-5.0418,-4.9956,-4.954,-4.9065,-4.8682,-4.8286,-4.8286,-4.8286,-4.8286,-4.8286,-4.8286,-4.8286,-4.8286,-4.8286,-4.8286,-4.8286,-4.8286,-4.8286,-4.8286,-4.8286,-4.8286,-4.8286,-4.8286,-4.8231,-4.8102,-4.7919,-4.7846,-3.5778,-3.5368,-3.5078,-3.497,-3.4945,-3.4776,-3.4801,-3.4897,-3.4414,-3.4348,-3.4463,-3.407,-3.3904,-3.4108,-3.4044,-3.402,-3.4046,-3.3861,-3.3824,-3.3936,-3.3924,-3.4197,-3.4594,-3.4644,-3.4979,-3.5489,-3.5759,-3.6387,-3.7494,-3.8252,-3.9351,-4.057,-4.1442,-4.2202,-4.2759,-4.3408,-4.3947,-4.4361,-4.4468,-4.479,-4.5325,-4.5753,-4.6179,-4.6498,-4.694,-4.7259,-4.7365,-4.7365,-4.7365,-4.7365,-4.7365,-4.7682,-4.8386,-4.8804,-4.906,-4.9164,-4.9182,-4.9272,-4.9487,-4.9977,-5.0186,-5.0186,-5.0517,-5.0725,-5.0725,-5.0725,-5.0725,-5.0725,-5.0725,-5.0498,-4.9872,-4.9244,-4.8632,-4.8298,-4.8404,-4.8404,-4.8193,-4.8404,-4.8298,-4.8193,-4.8702,-4.9209,-4.9645,-5.0376,-5.1018,-5.1244,-5.133,-5.1323,-5.0632,-5.0389,-4.9926,-4.9281,-4.8799,-4.8484,-4.8385,-4.8286,-4.8304,-4.8304,-4.8286,-4.8286,-4.8286,-4.8286,-4.8286,-4.8286,-4.8286,-4.8286,-4.8286,-4.8286,-4.8286,-4.8286,-4.8286,-4.8249,-4.8157,-4.8084,-4.8029,-3.5633,-3.5368,-3.509,-3.4982,-3.497,-3.5051,-3.5063,-3.499,-3.4566,-3.4839,-3.5271,-3.4383,-3.4641,-3.5283,-3.5118,-3.5257,-3.5345,-3.4794,-3.4694,-3.5017,-3.5128,-3.5255,-3.5558,-3.5355,-3.5703,-3.6445,-3.6754,-3.7507,-3.8528,-3.872,-3.9366,-4.0366,-4.116,-4.1704,-4.2202,-4.2898,-4.3439,-4.3839,-4.3931,-4.4253,-4.4699,-4.4897,-4.5432,-4.6286,-4.6498,-4.6834,-4.7365,-4.7365,-4.7365,-4.7365,-4.7365,-4.7876,-4.8807,-4.9523,-5.0063,-5.0462,-5.0584,-5.0602,-5.0602,-5.0621,-5.0621,-5.0621,-5.0743,-5.078,-5.0798,-5.0817,-5.0835,-5.0798,-5.078,-5.0535,-5.0099,-4.9872,-4.9768,-4.9768,-4.9244,-4.9226,-4.9454,-4.9331,-4.9017,-4.9017,-4.9454,-5.0099,-5.0621,-5.1018,-5.1537,-5.2073,-5.2466,-5.2303,-5.1277,-5.1069,-5.0753,-4.9672,-4.8916,-4.8601,-4.8502,-4.8304,-4.8304,-4.8304,-4.8286,-4.8286,-4.8286,-4.8286,-4.8286,-4.8286,-4.8286,-4.8286,-4.8286,-4.8286,-4.8286,-4.8286,-4.8286,-4.8286,-4.8231,-4.8176,-4.8212,-3.579,-3.5392,-3.5295,-3.5139,-3.5087,-3.5439,-3.5673,-3.5661,-3.5825,-3.6061,-3.6064,-3.5785,-3.5711,-3.5788,-3.5724,-3.6066,-3.6418,-3.6214,-3.5962,-3.5736,-3.5396,-3.5661,-3.6392,-3.6453,-3.668,-3.7397,-3.7731,-3.8251,-3.8876,-3.9149,-3.9695,-4.0519,-4.1258,-4.1542,-4.1704,-4.2758,-4.3457,-4.3423,-4.3731,-4.4038,-4.4253,-4.4592,-4.5021,-4.5325,-4.6073,-4.6605,-4.6834,-4.7153,-4.7365,-4.7365,-4.7365,-4.7876,-4.8912,-4.9977,-5.0517,-5.0621,-5.0725,-5.0725,-5.0725,-5.0725,-5.0743,-5.078,-5.0963,-5.111,-5.1165,-5.1367,-5.1385,-5.1183,-5.111,-5.0932,-5.0571,-5.0394,-5.0117,-4.9349,-4.9454,-4.9576,-4.9472,-4.9244,-4.9017,-4.9122,-4.9559,-5.0081,-5.0602,-5.1226,-5.1744,-5.2176,-5.226,-5.1893,-5.1561,-5.0861,-5.024,-4.9499,-4.9095,-4.8675,-4.8532,-4.8495,-4.8458,-4.8458,-4.8341,-4.8286,-4.8286,-4.8286,-4.8286,-4.8286,-4.8286,-4.8286,-4.8286,-4.8286,-4.8286,-4.8286,-4.8286,-4.8286,-4.8286,-4.8286,-4.8286,-3.5887,-3.5658,-3.5356,-3.5305,-3.5443,-3.584,-3.6024,-3.6233,-3.6495,-3.6755,-3.6807,-3.6576,-3.6551,-3.6767,-3.6717,-3.6933,-3.7426,-3.7276,-3.7113,-3.6946,-3.6397,-3.6625,-3.7387,-3.74,-3.7562,-3.7796,-3.7974,-3.8566,-3.9225,-3.9488,-4.0053,-4.0774,-4.1378,-4.171,-4.1706,-4.244,-4.2973,-4.3099,-4.344,-4.3686,-4.3873,-4.4226,-4.464,-4.5076,-4.5968,-4.6503,-4.6717,-4.7251,-4.7519,-4.7505,-4.7788,-4.8351,-4.9212,-5.0317,-5.1,-5.1147,-5.1393,-5.1498,-5.148,-5.1535,-5.1584,-5.1745,-5.1825,-5.1849,-5.1904,-5.225,-5.23,-5.1711,-5.1743,-5.1651,-5.122,-5.1018,-5.0581,-5.02,-5.0302,-5.0212,-4.9966,-5.0071,-4.9981,-4.9926,-4.9977,-5.0498,-5.1226,-5.133,-5.1744,-5.2176,-5.2054,-5.1491,-5.1201,-5.0568,-5.0075,-4.9766,-4.9356,-4.8984,-4.8679,-4.8624,-4.8613,-4.8495,-4.8396,-4.8322,-4.8286,-4.8286,-4.8286,-4.8286,-4.8286,-4.8286,-4.8286,-4.8286,-4.8286,-4.8286,-4.8286,-4.8286,-4.8286,-4.8286,-4.8286,-3.5959,-3.6056,-3.5344,-3.5529,-3.6124,-3.6019,-3.6375,-3.6804,-3.6833,-3.7206,-3.7671,-3.7167,-3.7384,-3.8114,-3.794,-3.7913,-3.8255,-3.794,-3.8045,-3.8273,-3.7994,-3.7962,-3.8149,-3.8175,-3.817,-3.8083,-3.8103,-3.8629,-3.9757,-3.9897,-4.0305,-4.1256,-4.1411,-4.1664,-4.1992,-4.202,-4.2397,-4.3026,-4.3145,-4.3473,-4.3722,-4.4,-4.4385,-4.5248,-4.5899,-4.6457,-4.6872,-4.7517,-4.7793,-4.7573,-4.842,-4.9142,-4.969,-5.0697,-5.1408,-5.1807,-5.2449,-5.2605,-5.2748,-5.2636,-5.2867,-5.3289,-5.3047,-5.291,-5.2929,-5.336,-5.3272,-5.2398,-5.2592,-5.2679,-5.2125,-5.178,-5.1743,-5.1895,-5.1458,-5.117,-5.133,-5.1627,-5.132,-5.0872,-5.0761,-5.1055,-5.1988,-5.1744,-5.195,-5.2279,-5.2485,-5.1884,-5.1313,-5.092,-5.0352,-4.9997,-4.9754,-4.9573,-4.9358,-4.901,-4.9018,-4.9081,-4.8752,-4.8451,-4.8322,-4.8286,-4.8286,-4.8286,-4.8286,-4.8286,-4.8286,-4.8286,-4.8286,-4.8286,-4.8286,-4.8286,-4.8286,-4.8286,-4.8286,-3.6273,-3.6128,-3.573,-3.5846,-3.6279,-3.6488,-3.6959,-3.7658,-3.8393,-3.8726,-3.9012,-3.8856,-3.8917,-3.9175,-3.8664,-3.8548,-3.8624,-3.8562,-3.8485,-3.8704,-3.8584,-3.8517,-3.8584,-3.8597,-3.8775,-3.9127,-3.9294,-3.9867,-4.0633,-4.0857,-4.1065,-4.1343,-4.1719,-4.1675,-4.1694,-4.226,-4.2454,-4.2668,-4.3404,-4.3847,-4.4035,-4.4412,-4.4851,-4.515,-4.6041,-4.6587,-4.6914,-4.7799,-4.8169,-4.7844,-4.8693,-4.9493,-5.0028,-5.0687,-5.1418,-5.1865,-5.2504,-5.2804,-5.291,-5.3247,-5.3545,-5.3651,-5.3935,-5.3855,-5.3873,-5.4263,-5.4245,-5.3754,-5.3855,-5.3741,-5.3284,-5.3134,-5.3134,-5.2991,-5.2134,-5.1582,-5.1729,-5.1601,-5.1362,-5.1165,-5.1147,-5.1314,-5.1649,-5.1969,-5.2279,-5.2794,-5.2878,-5.2737,-5.1977,-5.1489,-5.1037,-5.0632,-5.0381,-5.0344,-5.0104,-4.9653,-4.9561,-4.9725,-4.9302,-4.8616,-4.8432,-4.8286,-4.8286,-4.8286,-4.8286,-4.8286,-4.8286,-4.8286,-4.8286,-4.8286,-4.8286,-4.8286,-4.8286,-4.8286,-4.8286,-3.698,-3.7137,-3.6283,-3.6527,-3.714,-3.6891,-3.7426,-3.8472,-3.9284,-3.9746,-3.9977,-3.9977,-3.9977,-3.9964,-3.9631,-3.9529,-3.9529,-3.9529,-3.9529,-3.9542,-3.9638,-3.9508,-3.9208,-3.9066,-3.9467,-4.0143,-4.0338,-4.0928,-4.146,-4.1761,-4.1918,-4.2289,-4.2275,-4.2216,-4.2085,-4.2248,-4.2474,-4.2468,-4.3058,-4.3493,-4.3965,-4.438,-4.5075,-4.5486,-4.651,-4.7076,-4.7734,-4.839,-4.8546,-4.8397,-4.8898,-4.9521,-5.0094,-5.0867,-5.1495,-5.2089,-5.2879,-5.3415,-5.3735,-5.4056,-5.4482,-5.482,-5.4924,-5.4893,-5.4951,-5.5287,-5.5356,-5.4667,-5.4717,-5.4584,-5.4326,-5.4269,-5.4068,-5.3791,-5.3122,-5.2586,-5.2573,-5.2412,-5.2157,-5.1922,-5.1614,-5.1448,-5.1694,-5.196,-5.2279,-5.2672,-5.2794,-5.2775,-5.2615,-5.2189,-5.1757,-5.1376,-5.1003,-5.0835,-5.0594,-5.016,-4.9699,-4.9883,-4.9532,-4.8763,-4.8543,-4.8322,-4.8286,-4.8286,-4.8286,-4.8286,-4.8286,-4.8286,-4.8286,-4.8286,-4.8286,-4.8286,-4.8286,-4.8286,-4.8286,-3.7685,-3.8336,-3.7072,-3.7347,-3.8281,-3.7462,-3.8047,-3.9284,-3.9746,-4.0079,-4.0425,-4.0655,-4.0655,-4.067,-4.0439,-4.054,-4.054,-4.0425,-4.0467,-4.0565,-4.0704,-4.0528,-4.0198,-3.9952,-4.0397,-4.1016,-4.1161,-4.1624,-4.2307,-4.2525,-4.2831,-4.3022,-4.2963,-4.2889,-4.2655,-4.2404,-4.2187,-4.2529,-4.2768,-4.3336,-4.4019,-4.447,-4.5234,-4.6299,-4.7108,-4.7993,-4.8671,-4.9094,-4.8957,-4.8615,-4.9032,-4.9583,-5.0154,-5.117,-5.1856,-5.2436,-5.3343,-5.412,-5.4628,-5.4749,-5.5345,-5.595,-5.5862,-5.5832,-5.5793,-5.6134,-5.6027,-5.5237,-5.551,-5.554,-5.5199,-5.5148,-5.4901,-5.4703,-5.4413,-5.4193,-5.3965,-5.3673,-5.3321,-5.2841,-5.201,-5.1843,-5.1708,-5.1798,-5.1847,-5.226,-5.2588,-5.2999,-5.2961,-5.2769,-5.2393,-5.2094,-5.1662,-5.1176,-5.0955,-5.0549,-5.0105,-4.9846,-4.9386,-4.8818,-4.8598,-4.8414,-4.8322,-4.8286,-4.8286,-4.8286,-4.8286,-4.8286,-4.8304,-4.8286,-4.8286,-4.8286,-4.8286,-4.8286,-4.8286,-3.786,-3.8496,-3.7955,-3.8049,-3.8583,-3.8597,-3.8685,-3.9079,-4.0453,-4.0914,-4.0785,-4.113,-4.1245,-4.1245,-4.09,-4.054,-4.067,-4.0684,-4.0652,-4.0904,-4.0946,-4.1362,-4.1563,-4.1385,-4.1545,-4.1968,-4.2085,-4.2494,-4.3021,-4.3211,-4.3255,-4.3372,-4.3445,-4.3124,-4.3005,-4.2844,-4.2768,-4.3107,-4.3497,-4.4033,-4.4676,-4.5209,-4.5965,-4.6847,-4.7838,-4.8712,-4.9266,-4.9488,-4.9437,-4.9385,-4.9589,-5.0081,-5.0759,-5.1343,-5.1944,-5.2745,-5.3472,-5.4016,-5.4341,-5.4971,-5.5617,-5.5939,-5.6261,-5.6368,-5.6368,-5.6475,-5.6475,-5.6261,-5.6368,-5.6261,-5.6154,-5.6154,-5.596,-5.5621,-5.5359,-5.5398,-5.5283,-5.4607,-5.3767,-5.3147,-5.2624,-5.2097,-5.1314,-5.195,-5.2007,-5.1969,-5.2466,-5.3205,-5.3249,-5.3172,-5.2891,-5.261,-5.2412,-5.21,-5.1674,-5.1247,-5.0522,-5.0031,-4.9349,-4.8928,-4.8708,-4.8451,-4.8322,-4.8286,-4.8286,-4.8304,-4.8377,-4.8359,-4.8396,-4.8341,-4.8341,-4.8377,-4.8396,-4.8359,-4.8286,-3.8521,-3.9348,-3.8821,-3.8854,-3.9163,-3.9348,-3.9524,-4.0007,-4.1126,-4.1604,-4.1489,-4.1819,-4.1934,-4.1934,-4.159,-4.146,-4.1518,-4.1632,-4.1861,-4.2133,-4.2291,-4.2594,-4.2988,-4.2882,-4.291,-4.3032,-4.3106,-4.34,-4.3767,-4.4033,-4.4195,-4.39,-4.4018,-4.3988,-4.3722,-4.35,-4.3684,-4.4115,-4.4293,-4.4849,-4.5576,-4.595,-4.6748,-4.7884,-4.8998,-4.9785,-5.0139,-5.0139,-5.0121,-5.0234,-5.0457,-5.0619,-5.104,-5.1425,-5.1994,-5.2618,-5.3236,-5.3907,-5.4449,-5.499,-5.551,-5.6047,-5.6475,-5.6582,-5.6582,-5.6582,-5.6582,-5.6582,-5.6582,-5.6582,-5.6582,-5.6582,-5.6426,-5.6367,-5.6106,-5.6144,-5.6076,-5.5271,-5.4572,-5.3987,-5.3516,-5.2786,-5.2376,-5.2278,-5.2204,-5.2082,-5.2195,-5.2916,-5.3307,-5.3128,-5.3249,-5.3109,-5.3128,-5.2884,-5.2577,-5.1968,-5.0977,-5.0252,-4.9606,-4.9184,-4.8873,-4.8579,-4.8286,-4.8322,-4.8377,-4.8487,-4.8543,-4.8524,-4.8653,-4.8836,-4.8873,-4.8689,-4.8543,-4.8487,-4.8377,-3.9387,-4.0454,-3.9598,-3.9586,-4.0,-3.9985,-4.0265,-4.0811,-4.1845,-4.2093,-4.2221,-4.2421,-4.2394,-4.248,-4.2567,-4.2538,-4.2741,-4.3163,-4.3458,-4.3768,-4.3857,-4.4136,-4.4284,-4.4431,-4.4401,-4.4091,-4.4047,-4.4313,-4.4638,-4.5055,-4.5204,-4.4772,-4.4891,-4.4904,-4.4739,-4.4511,-4.4517,-4.5187,-4.5119,-4.5449,-4.6127,-4.6405,-4.7211,-4.8587,-4.971,-5.0505,-5.0714,-5.0844,-5.0896,-5.1061,-5.1583,-5.146,-5.1392,-5.1508,-5.2115,-5.2526,-5.3201,-5.3764,-5.4308,-5.4906,-5.5561,-5.6397,-5.6485,-5.6592,-5.6719,-5.664,-5.6582,-5.6582,-5.6582,-5.6582,-5.6582,-5.6582,-5.6582,-5.6562,-5.6582,-5.6582,-5.6475,-5.5725,-5.5433,-5.5153,-5.4364,-5.3541,-5.2867,-5.2492,-5.242,-5.228,-5.2411,-5.2561,-5.2851,-5.3083,-5.3083,-5.3185,-5.3185,-5.3185,-5.2878,-5.2138,-5.1266,-5.0734,-4.9965,-4.9496,-4.9148,-4.8964,-4.8726,-4.8487,-4.8524,-4.8671,-4.8836,-4.8946,-4.9129,-4.9386,-4.9331,-4.9074,-4.8854,-4.8634,-4.8543,-3.9739,-4.0481,-4.0307,-4.0147,-4.0174,-4.105,-4.0957,-4.0605,-4.1976,-4.2238,-4.1776,-4.2439,-4.2772,-4.2846,-4.3094,-4.3532,-4.3967,-4.4436,-4.4849,-4.5121,-4.5272,-4.5378,-4.5486,-4.5622,-4.5623,-4.5488,-4.5264,-4.5294,-4.5548,-4.5907,-4.6011,-4.6132,-4.6039,-4.5884,-4.5671,-4.5458,-4.561,-4.6044,-4.6005,-4.6352,-4.6793,-4.7056,-4.7666,-4.8948,-4.9882,-5.0533,-5.1408,-5.1583,-5.1757,-5.2226,-5.2638,-5.2854,-5.2834,-5.2806,-5.2851,-5.3165,-5.3713,-5.4079,-5.413,-5.5069,-5.562,-5.5815,-5.6097,-5.6638,-5.6904,-5.6797,-5.6621,-5.6582,-5.6582,-5.6582,-5.6582,-5.6582,-5.6582,-5.6582,-5.6582,-5.6582,-5.6582,-5.6348,-5.595,-5.5524,-5.4954,-5.4299,-5.3534,-5.2953,-5.2747,-5.2589,-5.2506,-5.2345,-5.243,-5.2656,-5.2794,-5.298,-5.3185,-5.3185,-5.3083,-5.2241,-5.1462,-5.1144,-5.0502,-4.9845,-4.9551,-4.9441,-4.9239,-4.9038,-4.8928,-4.9001,-4.9184,-4.9368,-4.9514,-4.9716,-4.9588,-4.9423,-4.9258,-4.9111,-4.8891,-4.0347,-4.0953,-4.0953,-4.0871,-4.087,-4.1338,-4.11,-4.0591,-4.1942,-4.2368,-4.2079,-4.2585,-4.3209,-4.3589,-4.3722,-4.425,-4.497,-4.5367,-4.5667,-4.5911,-4.5987,-4.6033,-4.6277,-4.6384,-4.6432,-4.6464,-4.66,-4.6435,-4.6194,-4.646,-4.6714,-4.6687,-4.6638,-4.6614,-4.6444,-4.6259,-4.6596,-4.6954,-4.6992,-4.7093,-4.7585,-4.7834,-4.8729,-4.9558,-5.0171,-5.0962,-5.179,-5.1848,-5.2139,-5.2632,-5.3098,-5.3525,-5.371,-5.3888,-5.3821,-5.3879,-5.4266,-5.4634,-5.4558,-5.5483,-5.5832,-5.6686,-5.6494,-5.6576,-5.6893,-5.6855,-5.6601,-5.6582,-5.6582,-5.6582,-5.6582,-5.6582,-5.6582,-5.6582,-5.6582,-5.6582,-5.6582,-5.6582,-5.6232,-5.5737,-5.5417,-5.4798,-5.3885,-5.336,-5.3141,-5.281,-5.2635,-5.2331,-5.2103,-5.2185,-5.2279,-5.2794,-5.3083,-5.339,-5.3288,-5.2569,-5.1828,-5.1444,-5.0966,-5.0325,-4.99,-4.9735,-4.9716,-4.9643,-4.9551,-4.9459,-4.9624,-4.9845,-4.9936,-5.001,-4.9936,-4.9826,-4.9716,-4.9569,-4.9331,-4.0953,-4.1423,-4.1423,-4.1423,-4.1423,-4.1423,-4.1122,-4.0921,-4.193,-4.2348,-4.2207,-4.2949,-4.3692,-4.4352,-4.4838,-4.5356,-4.6055,-4.6172,-4.6444,-4.6629,-4.6768,-4.668,-4.6772,-4.7003,-4.7264,-4.7418,-4.7885,-4.786,-4.7223,-4.7397,-4.7408,-4.7548,-4.7585,-4.762,-4.7589,-4.7479,-4.7787,-4.8007,-4.7998,-4.7966,-4.8195,-4.8794,-4.9663,-5.0549,-5.0922,-5.1643,-5.2616,-5.2811,-5.2922,-5.3449,-5.3858,-5.4255,-5.4327,-5.475,-5.4888,-5.4631,-5.4614,-5.5079,-5.5246,-5.5804,-5.6194,-5.7109,-5.6706,-5.675,-5.701,-5.6973,-5.6582,-5.6582,-5.6582,-5.6582,-5.6582,-5.6582,-5.6582,-5.6582,-5.6582,-5.6582,-5.6582,-5.6582,-5.6475,-5.6096,-5.5939,-5.526,-5.4181,-5.4024,-5.3754,-5.2935,-5.2549,-5.2363,-5.206,-5.1731,-5.1866,-5.2588,-5.3102,-5.3512,-5.3512,-5.298,-5.2363,-5.1913,-5.1266,-5.0594,-5.0222,-4.9973,-4.9991,-5.0028,-5.0046,-4.9991,-5.0156,-5.0248,-5.0321,-5.034,-5.0321,-5.0266,-5.0175,-4.9918,-4.9624,-4.1302,-4.1423,-4.1423,-4.1423,-4.1423,-4.1423,-4.1231,-4.1169,-4.2332,-4.2663,-4.2508,-4.3798,-4.4519,-4.5109,-4.6311,-4.6804,-4.7087,-4.7425,-4.7559,-4.7684,-4.7889,-4.7999,-4.8244,-4.8695,-4.8434,-4.8348,-4.877,-4.888,-4.8457,-4.8691,-4.9053,-4.9107,-4.8749,-4.8879,-4.8632,-4.8537,-4.8999,-4.8951,-4.8681,-4.8411,-4.8386,-4.9154,-4.9908,-5.0783,-5.1492,-5.2354,-5.3351,-5.3718,-5.4152,-5.4486,-5.5301,-5.5504,-5.5261,-5.5315,-5.5397,-5.5423,-5.541,-5.5377,-5.5153,-5.5599,-5.6272,-5.6866,-5.6486,-5.6846,-5.7154,-5.7012,-5.6582,-5.6582,-5.6582,-5.6582,-5.6582,-5.6582,-5.6582,-5.6582,-5.6582,-5.6582,-5.6582,-5.6582,-5.6475,-5.6154,-5.5939,-5.528,-5.4421,-5.4415,-5.4332,-5.3382,-5.2583,-5.2398,-5.2121,-5.1935,-5.1885,-5.2588,-5.3205,-5.3717,-5.3717,-5.3205,-5.2878,-5.226,-5.1753,-5.1088,-5.0668,-5.0454,-5.0285,-5.0321,-5.0358,-5.0395,-5.0468,-5.0541,-5.0651,-5.0633,-5.0523,-5.0578,-5.0651,-5.0321,-4.9955,-4.2147,-4.2523,-4.2509,-4.2523,-4.2523,-4.2147,-4.1846,-4.173,-4.2535,-4.3057,-4.3429,-4.4225,-4.523,-4.6239,-4.7251,-4.7637,-4.7771,-4.8007,-4.8125,-4.8125,-4.83,-4.8379,-4.8356,-4.8872,-4.9043,-4.9201,-4.9529,-4.9735,-4.9565,-4.9249,-4.9348,-4.9603,-4.9364,-4.9126,-4.9221,-4.9174,-4.9142,-4.9094,-4.8999,-4.9095,-4.927,-4.9692,-5.0468,-5.1621,-5.1979,-5.2778,-5.3476,-5.3677,-5.4298,-5.4616,-5.5375,-5.5688,-5.6001,-5.6184,-5.6153,-5.5878,-5.596,-5.5911,-5.5746,-5.5855,-5.629,-5.6835,-5.6773,-5.6817,-5.7212,-5.6973,-5.6582,-5.6582,-5.6582,-5.6582,-5.6582,-5.6582,-5.6582,-5.6582,-5.6582,-5.6582,-5.6582,-5.6582,-5.6475,-5.6154,-5.592,-5.528,-5.461,-5.4332,-5.4247,-5.3718,-5.3023,-5.2764,-5.2592,-5.2499,-5.2572,-5.2897,-5.341,-5.3921,-5.3717,-5.3512,-5.3185,-5.2775,-5.2382,-5.1753,-5.1303,-5.0937,-5.0815,-5.0645,-5.056,-5.0633,-5.0725,-5.0706,-5.0706,-5.0706,-5.0706,-5.0725,-5.0706,-5.0651,-5.034,-4.2749,-4.3379,-4.3379,-4.3379,-4.3379,-4.2629,-4.2262,-4.2186,-4.3021,-4.3497,-4.4195,-4.5039,-4.6239,-4.7251,-4.7873,-4.8007,-4.8125,-4.8125,-4.8125,-4.8141,-4.822,-4.8348,-4.8649,-4.9047,-4.938,-4.9412,-4.9905,-5.0127,-5.0016,-4.9793,-4.9634,-4.9809,-4.965,-4.9491,-4.9444,-4.9476,-4.9491,-4.9333,-4.9558,-4.9703,-4.9999,-5.0561,-5.1478,-5.2195,-5.2708,-5.2931,-5.3478,-5.3734,-5.4276,-5.4733,-5.5317,-5.5852,-5.6419,-5.6605,-5.6465,-5.619,-5.6158,-5.6089,-5.5926,-5.5871,-5.623,-5.6647,-5.7037,-5.6793,-5.6608,-5.6631,-5.6582,-5.6582,-5.6582,-5.6582,-5.6582,-5.6582,-5.6582,-5.6582,-5.6582,-5.6582,-5.6582,-5.6582,-5.6582,-5.6368,-5.6008,-5.5483,-5.4889,-5.4355,-5.396,-5.3833,-5.3483,-5.3041,-5.2791,-5.2555,-5.2458,-5.2588,-5.3205,-5.3615,-5.3615,-5.339,-5.3288,-5.3083,-5.2691,-5.2363,-5.1791,-5.1481,-5.1255,-5.1,-5.0829,-5.0725,-5.0725,-5.0725,-5.0725,-5.0725,-5.0725,-5.0725,-5.0706,-5.0688,-5.0651,-4.2749,-4.3379,-4.3379,-4.3379,-4.3364,-4.2629,-4.248,-4.2665,-4.3667,-4.4131,-4.4594,-4.6067,-4.7283,-4.7905,-4.8055,-4.8173,-4.8141,-4.8125,-4.8173,-4.8284,-4.8443,-4.8681,-4.8967,-4.9317,-4.9746,-4.9968,-5.0175,-5.0206,-5.0206,-5.0111,-5.0079,-5.0159,-5.0,-5.0079,-5.0063,-4.9952,-4.9857,-4.9836,-5.0031,-5.0355,-5.0756,-5.1424,-5.2362,-5.2687,-5.351,-5.406,-5.4077,-5.4319,-5.4748,-5.5091,-5.5697,-5.6147,-5.6566,-5.6854,-5.6777,-5.6483,-5.6373,-5.625,-5.5919,-5.5699,-5.5889,-5.6347,-5.6681,-5.6568,-5.6422,-5.6524,-5.6601,-5.6601,-5.6582,-5.6582,-5.6582,-5.6582,-5.6582,-5.6582,-5.6582,-5.6582,-5.6582,-5.6582,-5.6582,-5.6475,-5.6115,-5.5716,-5.5249,-5.4806,-5.3956,-5.3684,-5.3282,-5.2842,-5.2282,-5.201,-5.1854,-5.2073,-5.2775,-5.3185,-5.3288,-5.3185,-5.3102,-5.298,-5.2794,-5.2485,-5.2157,-5.1847,-5.1433,-5.1122,-5.081,-5.081,-5.0725,-5.0725,-5.0725,-5.0725,-5.0725,-5.0725,-5.067,-5.0615,-5.0633,-4.2749,-4.3379,-4.3724,-4.3964,-4.3964,-4.371,-4.383,-4.4189,-4.4309,-4.4787,-4.5548,-4.7264,-4.8095,-4.8118,-4.8379,-4.8443,-4.8443,-4.8459,-4.8443,-4.8475,-4.8618,-4.8729,-4.9015,-4.9396,-4.9762,-4.9952,-5.0095,-5.0222,-5.0222,-5.0222,-5.0222,-5.0206,-5.0238,-5.0206,-5.0206,-5.0222,-5.0127,-5.0095,-5.0383,-5.0653,-5.1489,-5.1853,-5.2697,-5.3578,-5.375,-5.4128,-5.4128,-5.437,-5.4733,-5.518,-5.576,-5.6185,-5.6626,-5.7138,-5.7118,-5.6887,-5.6832,-5.6502,-5.5951,-5.5695,-5.5794,-5.6251,-5.6385,-5.6337,-5.6218,-5.648,-5.6513,-5.6485,-5.6582,-5.6582,-5.6582,-5.6582,-5.6582,-5.6582,-5.6582,-5.6582,-5.6582,-5.6582,-5.6582,-5.6475,-5.6368,-5.6115,-5.5648,-5.5218,-5.4313,-5.3517,-5.3097,-5.2587,-5.2028,-5.1529,-5.1515,-5.1659,-5.226,-5.2569,-5.2672,-5.2897,-5.2999,-5.2897,-5.2775,-5.2485,-5.2279,-5.1847,-5.1433,-5.1122,-5.0914,-5.081,-5.0725,-5.0725,-5.0725,-5.0725,-5.0725,-5.0725,-5.0651,-5.0596,-5.0688,-4.3061,-4.3628,-4.4215,-4.447,-4.4455,-4.4367,-4.468,-4.5173,-4.5114,-4.5848,-4.7118,-4.8244,-4.8602,-4.8538,-4.8665,-4.8713,-4.8649,-4.8618,-4.8634,-4.8634,-4.8634,-4.8777,-4.9062,-4.9412,-4.9777,-4.9873,-5.0048,-5.0222,-5.0222,-5.0222,-5.0302,-5.0334,-5.0393,-5.0468,-5.0222,-5.0222,-5.027,-5.0349,-5.0612,-5.1105,-5.2209,-5.2577,-5.2965,-5.3903,-5.4128,-5.4128,-5.4128,-5.4249,-5.4491,-5.4974,-5.5541,-5.6022,-5.6638,-5.7062,-5.7256,-5.7174,-5.7055,-5.6744,-5.6318,-5.5805,-5.5625,-5.5857,-5.5916,-5.6158,-5.6463,-5.6481,-5.6492,-5.6748,-5.6699,-5.6601,-5.6601,-5.6582,-5.6582,-5.6582,-5.6582,-5.6582,-5.6582,-5.6582,-5.6582,-5.6582,-5.6455,-5.631,-5.5688,-5.5203,-5.4415,-5.3457,-5.2768,-5.224,-5.1743,-5.1424,-5.143,-5.1508,-5.1847,-5.2054,-5.2176,-5.2382,-5.2588,-5.2691,-5.2588,-5.2382,-5.2073,-5.1744,-5.1433,-5.133,-5.1018,-5.081,-5.0725,-5.0743,-5.0725,-5.0725,-5.0743,-5.0761,-5.0963,-5.0945,-5.0927,-4.3565,-4.3808,-4.455,-4.4806,-4.4792,-4.447,-4.4795,-4.5586,-4.6405,-4.7489,-4.8623,-4.872,-4.8872,-4.9031,-4.9094,-4.9031,-4.8856,-4.8777,-4.8777,-4.8808,-4.8992,-4.9126,-4.9533,-4.9957,-5.0271,-5.0143,-5.0345,-5.0345,-5.0222,-5.0425,-5.0568,-5.0772,-5.103,-5.0992,-5.0345,-5.0238,-5.0413,-5.0667,-5.1179,-5.1782,-5.2399,-5.2998,-5.3461,-5.3833,-5.4128,-5.4128,-5.4128,-5.4128,-5.437,-5.4854,-5.5095,-5.5576,-5.6039,-5.6159,-5.6358,-5.6428,-5.6492,-5.6429,-5.6166,-5.5708,-5.5475,-5.5313,-5.5559,-5.601,-5.6189,-5.6229,-5.6654,-5.7118,-5.6894,-5.668,-5.6621,-5.6621,-5.666,-5.6601,-5.6601,-5.664,-5.664,-5.6582,-5.6582,-5.6582,-5.6543,-5.6358,-5.5766,-5.506,-5.4314,-5.3415,-5.2476,-5.1895,-5.1454,-5.1283,-5.1166,-5.1215,-5.1433,-5.1433,-5.1659,-5.2073,-5.2279,-5.2279,-5.2176,-5.1866,-5.1762,-5.1537,-5.133,-5.1311,-5.1141,-5.0743,-5.0761,-5.0761,-5.0927,-5.1092,-5.0853,-5.089,-5.111,-5.1312,-5.1312,-4.4296,-4.4763,-4.5006,-4.526,-4.5392,-4.5114,-4.56,-4.6753,-4.7938,-4.8665,-4.8723,-4.8996,-4.9221,-4.9269,-4.9412,-4.9428,-4.9348,-4.9348,-4.9348,-4.9317,-4.9663,-5.0065,-5.0444,-5.0897,-5.1059,-5.0911,-5.0821,-5.0591,-5.0222,-5.0767,-5.1191,-5.1535,-5.1922,-5.1661,-5.1211,-5.1014,-5.1163,-5.0855,-5.0979,-5.1351,-5.2111,-5.2728,-5.3194,-5.3556,-5.392,-5.4163,-5.418,-5.418,-5.4284,-5.4491,-5.4733,-5.5215,-5.5439,-5.5559,-5.5986,-5.6083,-5.6185,-5.6226,-5.6203,-5.6062,-5.5786,-5.5607,-5.5518,-5.5916,-5.6345,-5.6546,-5.6961,-5.7399,-5.7246,-5.7051,-5.7012,-5.7012,-5.6992,-5.6738,-5.6699,-5.6738,-5.6738,-5.664,-5.6582,-5.6582,-5.6562,-5.6562,-5.6154,-5.5553,-5.4767,-5.3792,-5.2977,-5.1835,-5.1233,-5.0945,-5.0866,-5.0866,-5.0933,-5.0933,-5.1141,-5.1452,-5.1555,-5.1555,-5.1348,-5.1141,-5.1018,-5.1122,-5.1122,-5.1018,-5.0847,-5.078,-5.1,-5.122,-5.1458,-5.1532,-5.133,-5.1202,-5.1385,-5.1587,-5.1733,-4.4995,-4.545,-4.5465,-4.5655,-4.5845,-4.5479,-4.6067,-4.7422,-4.8735,-4.9116,-4.9085,-4.9545,-4.9666,-4.9619,-4.9746,-4.9746,-4.9714,-4.9698,-4.9682,-4.982,-5.0411,-5.063,-5.1035,-5.1791,-5.1751,-5.1556,-5.1556,-5.1311,-5.1098,-5.1685,-5.2283,-5.2819,-5.3249,-5.3133,-5.2563,-5.2218,-5.2133,-5.1782,-5.2068,-5.2052,-5.2486,-5.2885,-5.3074,-5.3595,-5.3949,-5.4334,-5.4334,-5.43,-5.4265,-5.4318,-5.4509,-5.4733,-5.4974,-5.5095,-5.5456,-5.5559,-5.5982,-5.6197,-5.6275,-5.6409,-5.6263,-5.6043,-5.5768,-5.5892,-5.6404,-5.6664,-5.7031,-5.7387,-5.7458,-5.7519,-5.7441,-5.7441,-5.7344,-5.709,-5.6973,-5.7012,-5.6933,-5.6836,-5.6601,-5.6601,-5.6582,-5.6582,-5.6582,-5.595,-5.5299,-5.4333,-5.3372,-5.2208,-5.111,-5.1,-5.089,-5.0853,-5.0798,-5.0884,-5.0866,-5.0829,-5.0933,-5.0725,-5.0725,-5.0725,-5.0725,-5.0914,-5.081,-5.078,-5.0927,-5.1128,-5.1458,-5.1697,-5.1825,-5.1898,-5.1862,-5.177,-5.1733,-5.1825,-5.199,-4.5509,-4.5772,-4.5801,-4.5962,-4.6248,-4.5872,-4.6505,-4.785,-4.86,-4.9277,-5.0159,-4.9825,-4.9979,-5.0127,-5.0191,-5.0032,-4.9931,-4.9883,-4.9883,-5.0127,-5.0905,-5.1051,-5.1547,-5.215,-5.2411,-5.2427,-5.2305,-5.2338,-5.2249,-5.2745,-5.3447,-5.4228,-5.4756,-5.4621,-5.407,-5.3604,-5.3364,-5.3095,-5.2833,-5.2943,-5.3286,-5.3388,-5.3704,-5.4016,-5.4479,-5.4728,-5.4694,-5.4642,-5.4454,-5.43,-5.4163,-5.4146,-5.4128,-5.4128,-5.4491,-5.5128,-5.5959,-5.6226,-5.6574,-5.6664,-5.6813,-5.6575,-5.608,-5.6092,-5.6288,-5.6648,-5.6982,-5.746,-5.7614,-5.7788,-5.7781,-5.7871,-5.7832,-5.7617,-5.7402,-5.7305,-5.7187,-5.7012,-5.6738,-5.664,-5.6601,-5.6601,-5.6582,-5.6096,-5.5716,-5.5008,-5.4062,-5.3084,-5.2139,-5.1403,-5.1275,-5.1073,-5.1,-5.0872,-5.0835,-5.0872,-5.0761,-5.078,-5.0725,-5.0725,-5.0725,-5.0743,-5.0798,-5.0927,-5.1202,-5.1477,-5.1843,-5.2027,-5.21,-5.2155,-5.232,-5.2247,-5.2174,-5.2045,-5.2082,-4.6036,-4.6123,-4.6123,-4.6431,-4.6974,-4.777,-4.8372,-4.8818,-4.9449,-5.002,-5.0206,-5.0586,-5.0602,-5.0206,-5.0698,-5.0511,-5.0463,-5.0538,-5.0782,-5.1132,-5.1709,-5.2295,-5.2848,-5.3384,-5.3505,-5.3263,-5.3175,-5.3292,-5.3015,-5.3588,-5.4746,-5.5704,-5.567,-5.5585,-5.55,-5.5154,-5.458,-5.4003,-5.3725,-5.3725,-5.396,-5.4045,-5.4271,-5.4459,-5.4837,-5.5104,-5.507,-5.4831,-5.4642,-5.4522,-5.4248,-5.4128,-5.4128,-5.4128,-5.437,-5.5095,-5.5711,-5.6358,-5.6781,-5.7065,-5.7198,-5.7107,-5.6648,-5.6646,-5.679,-5.6796,-5.6873,-5.7208,-5.7575,-5.7735,-5.7898,-5.7989,-5.8132,-5.8047,-5.7851,-5.7715,-5.7558,-5.7226,-5.6953,-5.6836,-5.6797,-5.6601,-5.6582,-5.6475,-5.6096,-5.5571,-5.4775,-5.3848,-5.2907,-5.2273,-5.1642,-5.1422,-5.1348,-5.1257,-5.1147,-5.1147,-5.0963,-5.0817,-5.0761,-5.0725,-5.0725,-5.0761,-5.0872,-5.1165,-5.1568,-5.1954,-5.2302,-5.2412,-5.2504,-5.2705,-5.2834,-5.2724,-5.2595,-5.2412,-5.2265,-4.6519,-4.638,-4.6879,-4.7377,-4.8107,-4.885,-4.9344,-4.9591,-5.0083,-5.0222,-5.0345,-5.0927,-5.0943,-5.0821,-5.1189,-5.1434,-5.1066,-5.1401,-5.1523,-5.1768,-5.2654,-5.2881,-5.3488,-5.4353,-5.4232,-5.4024,-5.4144,-5.4454,-5.4233,-5.4899,-5.5961,-5.616,-5.6098,-5.6183,-5.6218,-5.5972,-5.5527,-5.5041,-5.468,-5.4411,-5.4613,-5.4656,-5.4597,-5.4796,-5.5335,-5.5481,-5.543,-5.5104,-5.4865,-5.4659,-5.4317,-5.4128,-5.4128,-5.4128,-5.4128,-5.4733,-5.5318,-5.5884,-5.6447,-5.6918,-5.7265,-5.7455,-5.7088,-5.6917,-5.6817,-5.6846,-5.6909,-5.6986,-5.736,-5.7675,-5.7898,-5.8213,-5.8261,-5.8437,-5.8281,-5.8144,-5.7812,-5.748,-5.7285,-5.7148,-5.6933,-5.668,-5.6582,-5.6582,-5.6475,-5.5989,-5.5414,-5.4566,-5.3639,-5.2823,-5.2152,-5.177,-5.1733,-5.1697,-5.1568,-5.1367,-5.111,-5.089,-5.0743,-5.0725,-5.0725,-5.0835,-5.1,-5.1495,-5.2064,-5.2375,-5.265,-5.2852,-5.298,-5.3109,-5.3109,-5.298,-5.2779,-5.2595,-5.2485,-4.7003,-4.6644,-4.7735,-4.8587,-4.922,-4.922,-4.9591,-5.0222,-5.0222,-5.0222,-5.0345,-5.0943,-5.1311,-5.1189,-5.18,-5.2167,-5.1939,-5.2045,-5.2289,-5.2305,-5.302,-5.3384,-5.3869,-5.4474,-5.4785,-5.4768,-5.494,-5.5426,-5.5721,-5.6029,-5.624,-5.6372,-5.6355,-5.6355,-5.6337,-5.6337,-5.6143,-5.5891,-5.553,-5.5403,-5.5353,-5.5235,-5.5134,-5.5462,-5.5687,-5.5841,-5.5738,-5.5481,-5.5104,-5.4745,-5.4385,-5.4163,-5.4128,-5.4128,-5.4128,-5.4491,-5.4974,-5.5456,-5.6159,-5.6686,-5.7301,-5.742,-5.7253,-5.7003,-5.6923,-5.6576,-5.6435,-5.6646,-5.6892,-5.7436,-5.7773,-5.8334,-5.8664,-5.873,-5.8574,-5.8535,-5.8418,-5.7969,-5.748,-5.7265,-5.6875,-5.664,-5.6582,-5.6582,-5.6582,-5.6261,-5.5832,-5.506,-5.4407,-5.3498,-5.2827,-5.2174,-5.2229,-5.2174,-5.1825,-5.1587,-5.1238,-5.1018,-5.0853,-5.0725,-5.0725,-5.0908,-5.1128,-5.1752,-5.2394,-5.2687,-5.2944,-5.3072,-5.3109,-5.3109,-5.3109,-5.3109,-5.2962,-5.2779,-5.2614,-4.7859,-4.7859,-4.8602,-4.9097,-4.922,-4.9714,-4.9976,-5.0222,-5.0222,-5.0222,-5.0468,-5.1327,-5.1678,-5.1434,-5.2411,-5.2654,-5.2461,-5.2793,-5.2898,-5.3158,-5.3522,-5.4007,-5.4595,-5.5318,-5.5458,-5.5565,-5.5792,-5.6229,-5.6101,-5.6336,-5.6503,-5.6372,-5.6389,-5.6389,-5.6389,-5.6389,-5.6389,-5.6389,-5.6263,-5.601,-5.5959,-5.6085,-5.6068,-5.6102,-5.6218,-5.6166,-5.5995,-5.5584,-5.5327,-5.5053,-5.4437,-5.4197,-5.4128,-5.4128,-5.437,-5.4733,-5.4974,-5.5318,-5.5799,-5.6399,-5.6877,-5.7228,-5.7119,-5.6989,-5.6783,-5.6176,-5.6037,-5.6172,-5.659,-5.7156,-5.772,-5.8395,-5.8936,-5.8873,-5.8848,-5.8906,-5.8965,-5.8379,-5.7754,-5.7305,-5.6875,-5.6699,-5.664,-5.6582,-5.6582,-5.6368,-5.5939,-5.5402,-5.4863,-5.4064,-5.3486,-5.294,-5.2815,-5.2687,-5.2247,-5.1898,-5.1605,-5.1275,-5.1073,-5.0908,-5.078,-5.122,-5.1697,-5.2192,-5.2705,-5.2907,-5.3035,-5.3072,-5.3109,-5.3109,-5.3109,-5.3109,-5.3109,-5.2962,-5.2779,-4.8463,-4.8339,-4.8958,-4.9344,-4.9714,-5.0099,-5.0222,-5.0222,-5.0222,-5.0222,-5.0329,-5.1189,-5.1678,-5.1678,-5.2654,-5.3397,-5.3187,-5.3452,-5.3675,-5.3952,-5.4197,-5.4629,-5.5336,-5.5955,-5.6167,-5.6294,-5.6788,-5.6983,-5.662,-5.6703,-5.6875,-5.6515,-5.6389,-5.6389,-5.6389,-5.6389,-5.6389,-5.6389,-5.6389,-5.6389,-5.6389,-5.6389,-5.6389,-5.6389,-5.6252,-5.6252,-5.6115,-5.5704,-5.5378,-5.507,-5.4522,-5.4214,-5.4128,-5.4128,-5.4249,-5.4491,-5.4733,-5.4974,-5.5559,-5.5919,-5.6399,-5.6752,-5.6656,-5.6419,-5.6942,-5.647,-5.579,-5.5889,-5.5889,-5.6457,-5.7269,-5.7945,-5.862,-5.8859,-5.8912,-5.9062,-5.8965,-5.8613,-5.8086,-5.7637,-5.7207,-5.6836,-5.6738,-5.6582,-5.6582,-5.6475,-5.6047,-5.5725,-5.5187,-5.4558,-5.4016,-5.3454,-5.3236,-5.2944,-5.2467,-5.221,-5.2045,-5.1697,-5.1348,-5.1385,-5.144,-5.1862,-5.2302,-5.2577,-5.2815,-5.2999,-5.3109,-5.3109,-5.3109,-5.3109,-5.3109,-5.3109,-5.3109,-5.3109,-5.2962,-4.8973,-4.8587,-4.9097,-4.9714,-5.0099,-5.0286,-5.0254,-5.0361,-5.0318,-5.0425,-5.0607,-5.1008,-5.1482,-5.2183,-5.2982,-5.381,-5.4434,-5.4522,-5.4696,-5.461,-5.4958,-5.5287,-5.5735,-5.6301,-5.6621,-5.7083,-5.7617,-5.7636,-5.7434,-5.7378,-5.7019,-5.6641,-5.6389,-5.6389,-5.6389,-5.6389,-5.6389,-5.6389,-5.6389,-5.6389,-5.6389,-5.6389,-5.6389,-5.6252,-5.6115,-5.6081,-5.6046,-5.5824,-5.5413,-5.5036,-5.4676,-5.4488,-5.4351,-5.4351,-5.4265,-5.4387,-5.4284,-5.4509,-5.4854,-5.5215,-5.5817,-5.6238,-5.5968,-5.6086,-5.6627,-5.6422,-5.5727,-5.5585,-5.5566,-5.6117,-5.6911,-5.7607,-5.8283,-5.8844,-5.8936,-5.916,-5.8984,-5.8678,-5.8249,-5.793,-5.75,-5.709,-5.6855,-5.6699,-5.6582,-5.6475,-5.6261,-5.5939,-5.551,-5.4882,-5.4233,-5.378,-5.3345,-5.2997,-5.265,-5.2467,-5.2302,-5.21,-5.1825,-5.1917,-5.2009,-5.2119,-5.232,-5.2669,-5.2889,-5.3054,-5.3109,-5.3109,-5.3109,-5.3109,-5.3109,-5.3109,-5.3109,-5.3109,-5.3109,-4.9976,-4.9837,-4.9976,-5.0099,-5.0254,-5.0508,-5.0724,-5.0949,-5.1043,-5.1384,-5.1538,-5.1126,-5.125,-5.2338,-5.3844,-5.4694,-5.4953,-5.5338,-5.5129,-5.4904,-5.5618,-5.593,-5.6294,-5.6849,-5.7467,-5.7932,-5.8291,-5.8238,-5.8148,-5.7772,-5.7396,-5.7127,-5.6481,-5.6372,-5.6389,-5.6372,-5.6337,-5.6355,-5.6389,-5.6389,-5.6389,-5.6389,-5.6389,-5.6337,-5.632,-5.632,-5.6235,-5.5926,-5.5584,-5.5224,-5.4882,-5.4796,-5.4762,-5.4711,-5.4608,-5.4539,-5.442,-5.4387,-5.4612,-5.4837,-5.5561,-5.5524,-5.5507,-5.5796,-5.6005,-5.5939,-5.5643,-5.5695,-5.5886,-5.6363,-5.7156,-5.7607,-5.8283,-5.862,-5.8844,-5.8956,-5.899,-5.8514,-5.8073,-5.7886,-5.7695,-5.7363,-5.709,-5.6875,-5.6582,-5.6582,-5.6582,-5.6261,-5.5832,-5.5206,-5.4558,-5.4124,-5.3563,-5.3218,-5.2999,-5.2687,-5.2504,-5.2339,-5.2265,-5.2302,-5.2247,-5.2064,-5.2284,-5.276,-5.2944,-5.3091,-5.3109,-5.3109,-5.3109,-5.3109,-5.3109,-5.3109,-5.3109,-5.3109,-5.3109]},{"header":{"parameterUnit":"m.s-1","parameterCategory":1,"la1":31.0,"la2":29.5877,"lo1":-88.7671,"lo2":-86.6584,"dy":0.0162,"dx":0.0185,"nx":115,"ny":88,"refTime":"2024-02-02T18:00:00:Z","depth":0,"parameterNumber":3,"parameterNumberName":"V-component_of_WINDS"},"data":[0.0,0.0,0.0,0.0,0.0,0.0,0.0,0.0,0.0,0.0,0.0,0.0,0.0,0.0,0.0,0.0,0.0,0.0,0.0,0.0,0.0,0.0,0.0,0.0,0.0,0.0,0.0,0.0,0.0,0.0,0.0,0.0,0.0,0.0,0.0,0.0,0.0,0.0,0.0,0.0,0.0,0.0,0.0,0.0,0.0,0.0,0.0,0.0,0.0,0.0,0.0,0.0,0.0,0.0,0.0,0.0,0.0,0.0,0.0,0.0,0.0,0.0,0.0,0.0,0.0,0.0,0.0,0.0,0.0,0.0,0.0,0.0,0.0,0.0,0.0,0.0,0.0,0.0,0.0,0.0,0.0,0.0,0.0,0.0,0.0,0.0,0.0,0.0,0.0,0.0,0.0,0.0,0.0,0.0,0.0,0.0,0.0,0.0,0.0,0.0,0.0,0.0,0.0,0.0,0.0,0.0,0.0,0.0,0.0,0.0,0.0,0.0,0.0,0.0,0.0,0.0,0.0,0.0,0.0,0.0,0.0,0.0,0.0,0.0,0.0,0.0,0.0,0.0,0.0,0.0,0.0,0.0,0.0,0.0,0.0,0.0,0.0,0.0,0.0,0.0,0.0,0.0,0.0,0.0,0.0,0.0,0.0,0.0,0.0,0.0,0.0,0.0,0.0,0.0,0.0,0.0,0.0,0.0,0.0,0.0,0.0,0.0,0.0,0.0,0.0,0.0,0.0,0.0,0.0,0.0,0.0,0.0,0.0,0.0,0.0,0.0,0.0,0.0,0.0,0.0,0.0,0.0,0.0,0.0,0.0,0.0,0.0,0.0,0.0,0.0,0.0,0.0,0.0,0.0,0.0,0.0,0.0,0.0,0.0,0.0,0.0,0.0,0.0,0.0,0.0,0.0,0.0,0.0,0.0,0.0,0.0,0.0,0.0,0.0,0.0,0.0,0.0,0.0,0.0,0.0,0.0,0.0,0.0,0.0,0.0,0.0,0.0,0.0,0.0,0.0,0.0,0.0,0.0,0.0,0.0,0.0,0.0,0.0,0.0,0.0,0.0,0.0,0.0,0.0,0.0,0.0,0.0,0.0,0.0,0.0,0.0,0.0,0.0,0.0,0.0,0.0,0.0,0.0,0.0,0.0,0.0,0.0,0.0,0.0,0.0,0.0,0.0,0.0,0.0,0.0,0.0,0.0,0.0,0.0,0.0,0.0,0.0,0.0,0.0,0.0,0.0,0.0,0.0,0.0,0.0,0.0,0.0,0.0,0.0,0.0,0.0,0.0,0.0,0.0,0.0,0.0,0.0,0.0,0.0,0.0,0.0,0.0,0.0,0.0,0.0,0.0,0.0,0.0,0.0,0.0,0.0,0.0,0.0,0.0,0.0,0.0,0.0,0.0,0.0,0.0,0.0,0.0,0.0,0.0,0.0,0.0,0.0,0.0,0.0,0.0,0.0,0.0,0.0,0.0,0.0,0.0,0.0,0.0,0.0,0.0,0.0,0.0,0.0,0.0,0.0,0.0,0.0,0.0,0.0,0.0,0.0,0.0,0.0,0.0,0.0,0.0,0.0,0.0,0.0,0.0,0.0,0.0,0.0,0.0,0.0,0.0,0.0,0.0,0.0,0.0,0.0,0.0,0.0,0.0,0.0,0.0,0.0,0.0,0.0,0.0,0.0,0.0,0.0,0.0,0.0,0.0,0.0,0.0,0.0,0.0,0.0,0.0,0.0,0.0,0.0,0.0,0.0,0.0,0.0,0.0,0.0,0.0,0.0,0.0,0.0,0.0,0.0,0.0,0.0,0.0,0.0,0.0,0.0,0.0,0.0,0.0,0.0,0.0,0.0,0.0,0.0,0.0,0.0,0.0,0.0,0.0,0.0,0.0,0.0,0.0,0.0,0.0,0.0,0.0,0.0,0.0,0.0,0.0,0.0,0.0,0.0,0.0,0.0,0.0,0.0,0.0,0.0,0.0,0.0,0.0,0.0,0.0,0.0,0.0,0.0,0.0,0.0,0.0,0.0,0.0,0.0,0.0,0.0,0.0,0.0,0.0,0.0,0.0,0.0,0.0,0.0,0.0,0.0,0.0,0.0,0.0,0.0,0.0,0.0,0.0,0.0,0.0,0.0,0.0,0.0,0.0,0.0,0.0,0.0,0.0,0.0,0.0,0.0,0.0,0.0,0.0,0.0,0.0,0.0,0.0,0.0,0.0,0.0,0.0,0.0,0.0,0.0,0.0,0.0,0.0,0.0,0.0,0.0,0.0,0.0,0.0,0.0,0.0,0.0,0.0,0.0,0.0,0.0,0.0,0.0,0.0,0.0,0.0,0.0,0.0,0.0,0.0,0.0,0.0,0.0,0.0,0.0,0.0,0.0,0.0,0.0,0.0,0.0,0.0,0.0,0.0,0.0,0.0,0.0,0.0,0.0,0.0,0.0,0.0,0.0,0.0,0.0,0.0,0.0,0.0,0.0,0.0,0.0,0.0,0.0,0.0,0.0,0.0,0.0,0.0,0.0,0.0,0.0,0.0,0.0,0.0,0.0,0.0,0.0,0.0,0.0,0.0,0.0,0.0,0.0,0.0,0.0,0.0,0.0,0.0,0.0,0.0,0.0,0.0,0.0,0.0,0.0,0.0,0.0,0.0,0.0,0.0,0.0,0.0,0.0,0.0,0.0,0.0,0.0,0.0,0.0,0.0,0.0,0.0,0.0,0.0,0.0,0.0,0.0,0.0,0.0,0.0,0.0,0.0,0.0,0.0,0.0,0.0,0.0,0.0,0.0,0.0,0.0,0.0,0.0,0.0,0.0,0.0,0.0,0.0,0.0,0.0,0.0,0.0,0.0,0.0,0.0,0.0,0.0,0.0,0.0,0.0,0.0,0.0,0.0,0.0,0.0,0.0,0.0,0.0,0.0,0.0,0.0,0.0,0.0,0.0,0.0,0.0,0.0,0.0,0.0,0.0,0.0,0.0,0.0,0.0,0.0,0.0,0.0,0.0,0.0,0.0,0.0,0.0,0.0,0.0,0.0,0.0,0.0,0.0,0.0,0.0,0.0,0.0,0.0,0.0,0.0,0.0,0.0,0.0,0.0,0.0,0.0,0.0,0.0,0.0,0.0,0.0,0.0,0.0,0.0,0.0,0.0,0.0,0.0,0.0,0.0,0.0,0.0,0.0,0.0,0.0,0.0,0.0,0.0,0.0,0.0,0.0,0.0,0.0,0.0,0.0,0.0,0.0,0.0,0.0,0.0,0.0,0.0,0.0,0.0,0.0,0.0,0.0,0.0,0.0,0.0,0.0,0.0,0.0,0.0,0.0,0.0,0.0,0.0,0.0,0.0,0.0,0.0,0.0,0.0,0.0,0.0,0.0,0.0,0.0,0.0,0.0,0.0,0.0,0.0,0.0,0.0,0.0,0.0,0.0,0.0,0.0,0.0,0.0,0.0,0.0,0.0,0.0,0.0,0.0,0.0,0.0,0.0,0.0,0.0,0.0,0.0,0.0,0.0,0.0,0.0,0.0,0.0,0.0,0.0,0.0,0.0,0.0,0.0,0.0,0.0,0.0,0.0,0.0,0.0,0.0,0.0,0.0,0.0,0.0,0.0,0.0,0.0,0.0,0.0,0.0,0.0,0.0,0.0,0.0,0.0,0.0,0.0,0.0,0.0,0.0,0.0,0.0,0.0,0.0,0.0,0.0,0.0,0.0,0.0,0.0,0.0,0.0,0.0,0.0,0.0,0.0,0.0,0.0,0.0,0.0,0.0,0.0,0.0,0.0,0.0,0.0,0.0,0.0,0.0,0.0,0.0,0.0,0.0,0.0,0.0,0.0,0.0,0.0,0.0,0.0,0.0,0.0,0.0,0.0,0.0,0.0,0.0,0.0,0.0,0.0,0.0,0.0,0.0,0.0,0.0,0.0,0.0,0.0,0.0,0.0,0.0,0.0,0.0,0.0,0.0,0.0,0.0,0.0,0.0,0.0,0.0,0.0,0.0,0.0,0.0,0.0,0.0,0.0,0.0,0.0,0.0,0.0,0.0,0.0,0.0,0.0,0.0,0.0,0.0,0.0,0.0,0.0,0.0,0.0,0.0,0.0,0.0,0.0,0.0,0.0,0.0,0.0,0.0,0.0,0.0,0.0,0.0,0.0,0.0,0.0,0.0,0.0,0.0,0.0,0.0,0.0,0.0,0.0,0.0,0.0,0.0,0.0,0.0,0.0,0.0,0.0,0.0,0.0,0.0,0.0,0.0,0.0,0.0,0.0,4.7284,0.0,0.0,0.0,0.0,0.0,0.0,0.0,0.0,0.0,0.0,0.0,0.0,0.0,0.0,0.0,0.0,0.0,0.0,0.0,0.0,0.0,0.0,0.0,0.0,0.0,0.0,0.0,0.0,0.0,0.0,0.0,0.0,0.0,0.0,0.0,0.0,0.0,0.0,0.0,0.0,0.0,0.0,0.0,0.0,0.0,0.0,0.0,0.0,0.0,0.0,0.0,0.0,0.0,0.0,0.0,0.0,0.0,0.0,0.0,0.0,0.0,0.0,0.0,0.0,0.0,0.0,0.0,0.0,0.0,0.0,0.0,0.0,0.0,0.0,0.0,0.0,0.0,0.0,0.0,0.0,0.0,0.0,0.0,0.0,0.0,0.0,0.0,0.0,0.0,0.0,0.0,0.0,0.0,0.0,0.0,0.0,0.0,0.0,0.0,0.0,0.0,0.0,0.0,0.0,0.0,0.0,0.0,0.0,0.0,0.0,4.8514,4.8495,4.7357,4.6981,4.7472,0.0,0.0,0.0,0.0,0.0,0.0,0.0,0.0,0.0,0.0,0.0,0.0,0.0,0.0,0.0,0.0,0.0,0.0,0.0,0.0,0.0,0.0,0.0,0.0,0.0,0.0,0.0,0.0,0.0,0.0,0.0,0.0,0.0,0.0,0.0,0.0,0.0,0.0,0.0,0.0,0.0,0.0,0.0,0.0,0.0,0.0,0.0,0.0,0.0,0.0,0.0,0.0,0.0,0.0,0.0,0.0,0.0,0.0,0.0,0.0,0.0,0.0,0.0,0.0,0.0,0.0,0.0,0.0,0.0,0.0,0.0,0.0,0.0,0.0,0.0,0.0,0.0,0.0,0.0,0.0,0.0,0.0,0.0,0.0,0.0,0.0,0.0,0.0,0.0,0.0,0.0,0.0,0.0,0.0,0.0,0.0,0.0,0.0,0.0,0.0,0.0,0.0,0.0,0.0,0.0,0.0,0.0,0.0,0.0,0.0,0.0,0.0,4.763,4.7285,4.7789,0.0,0.0,0.0,0.0,0.0,0.0,0.0,0.0,0.0,0.0,0.0,0.0,0.0,0.0,0.0,0.0,0.0,0.0,0.0,0.0,0.0,0.0,0.0,0.0,0.0,0.0,0.0,0.0,0.0,0.0,0.0,0.0,0.0,0.0,0.0,0.0,0.0,0.0,0.0,0.0,0.0,0.0,0.0,0.0,0.0,0.0,0.0,0.0,0.0,0.0,0.0,0.0,0.0,0.0,0.0,0.0,0.0,0.0,0.0,0.0,0.0,0.0,0.0,0.0,0.0,0.0,0.0,0.0,0.0,0.0,0.0,0.0,0.0,0.0,0.0,0.0,0.0,0.0,0.0,0.0,0.0,0.0,0.0,0.0,0.0,0.0,0.0,0.0,0.0,0.0,0.0,0.0,0.0,0.0,0.0,0.0,0.0,0.0,0.0,0.0,0.0,0.0,0.0,0.0,0.0,0.0,0.0,0.0,0.0,0.0,4.9259,4.9272,4.9241,0.0,4.8843,0.0,0.0,0.0,0.0,0.0,0.0,0.0,0.0,0.0,0.0,0.0,0.0,0.0,0.0,0.0,0.0,0.0,0.0,0.0,0.0,0.0,0.0,0.0,0.0,0.0,0.0,0.0,0.0,0.0,0.0,0.0,0.0,0.0,0.0,0.0,0.0,0.0,0.0,0.0,0.0,0.0,0.0,0.0,0.0,0.0,0.0,0.0,0.0,0.0,0.0,0.0,0.0,0.0,0.0,0.0,0.0,0.0,0.0,0.0,0.0,0.0,0.0,0.0,0.0,0.0,0.0,0.0,0.0,0.0,0.0,0.0,0.0,0.0,0.0,0.0,0.0,0.0,0.0,0.0,0.0,0.0,0.0,0.0,0.0,0.0,0.0,0.0,0.0,0.0,0.0,0.0,0.0,0.0,0.0,0.0,0.0,0.0,0.0,0.0,0.0,0.0,0.0,0.0,0.0,0.0,0.0,0.0,0.0,0.0,0.0,4.9834,4.9656,4.9421,4.9455,0.0,0.0,0.0,0.0,0.0,0.0,0.0,0.0,0.0,0.0,0.0,0.0,0.0,0.0,0.0,0.0,0.0,0.0,0.0,0.0,0.0,0.0,0.0,0.0,0.0,0.0,0.0,0.0,0.0,0.0,0.0,0.0,0.0,0.0,0.0,0.0,0.0,0.0,0.0,0.0,0.0,0.0,0.0,0.0,0.0,0.0,0.0,0.0,0.0,0.0,0.0,0.0,0.0,0.0,0.0,0.0,0.0,0.0,0.0,0.0,0.0,0.0,0.0,0.0,0.0,0.0,0.0,0.0,0.0,0.0,0.0,0.0,0.0,0.0,0.0,0.0,0.0,0.0,0.0,0.0,0.0,0.0,0.0,0.0,0.0,0.0,0.0,0.0,0.0,0.0,0.0,0.0,0.0,0.0,0.0,0.0,0.0,0.0,0.0,0.0,0.0,0.0,0.0,0.0,0.0,0.0,0.0,0.0,0.0,0.0,5.0055,5.0192,5.0139,4.9968,5.0013,5.0362,0.0,0.0,0.0,0.0,0.0,0.0,0.0,0.0,0.0,0.0,0.0,0.0,0.0,0.0,0.0,0.0,0.0,0.0,0.0,0.0,0.0,0.0,0.0,0.0,0.0,0.0,0.0,0.0,0.0,0.0,0.0,0.0,0.0,0.0,0.0,0.0,0.0,0.0,0.0,0.0,0.0,0.0,0.0,0.0,0.0,0.0,0.0,0.0,0.0,0.0,0.0,0.0,0.0,0.0,0.0,0.0,0.0,0.0,0.0,0.0,0.0,0.0,0.0,0.0,0.0,0.0,0.0,0.0,0.0,0.0,0.0,0.0,0.0,0.0,0.0,0.0,0.0,0.0,0.0,0.0,0.0,0.0,0.0,0.0,0.0,0.0,0.0,0.0,0.0,0.0,0.0,0.0,0.0,0.0,0.0,0.0,0.0,0.0,0.0,0.0,0.0,0.0,0.0,0.0,0.0,0.0,0.0,0.0,5.0159,5.0137,5.0287,5.0695,5.1406,5.1355,0.0,0.0,0.0,0.0,0.0,0.0,0.0,0.0,0.0,0.0,0.0,0.0,0.0,0.0,0.0,0.0,0.0,0.0,0.0,0.0,0.0,0.0,0.0,0.0,0.0,0.0,0.0,0.0,0.0,0.0,0.0,0.0,0.0,0.0,0.0,0.0,0.0,0.0,0.0,0.0,0.0,0.0,0.0,0.0,0.0,0.0,0.0,0.0,0.0,0.0,0.0,0.0,0.0,0.0,0.0,0.0,0.0,0.0,0.0,0.0,0.0,0.0,0.0,0.0,0.0,0.0,0.0,0.0,0.0,0.0,0.0,0.0,0.0,0.0,0.0,0.0,0.0,0.0,0.0,0.0,0.0,0.0,0.0,0.0,0.0,0.0,0.0,0.0,0.0,0.0,0.0,0.0,0.0,0.0,0.0,0.0,0.0,0.0,0.0,0.0,0.0,0.0,0.0,0.0,0.0,0.0,0.0,0.0,0.0,5.0116,5.0084,5.0583,5.1627,5.1316,5.1412,0.0,0.0,0.0,0.0,0.0,0.0,0.0,0.0,0.0,0.0,0.0,0.0,0.0,0.0,0.0,0.0,0.0,0.0,0.0,0.0,0.0,0.0,0.0,0.0,0.0,0.0,0.0,0.0,0.0,0.0,0.0,0.0,0.0,0.0,0.0,0.0,0.0,0.0,0.0,0.0,0.0,0.0,0.0,0.0,0.0,0.0,0.0,0.0,0.0,0.0,0.0,0.0,0.0,0.0,0.0,0.0,0.0,0.0,0.0,0.0,0.0,0.0,0.0,0.0,0.0,0.0,0.0,0.0,0.0,0.0,0.0,0.0,0.0,0.0,0.0,0.0,0.0,0.0,0.0,0.0,0.0,0.0,0.0,0.0,0.0,0.0,0.0,0.0,0.0,0.0,0.0,0.0,0.0,0.0,0.0,0.0,0.0,0.0,0.0,0.0,0.0,0.0,0.0,0.0,0.0,0.0,0.0,0.0,0.0,5.058,0.0,5.0534,5.1584,5.1022,5.1238,0.0,0.0,0.0,0.0,0.0,0.0,0.0,0.0,0.0,0.0,0.0,0.0,0.0,0.0,0.0,0.0,0.0,0.0,0.0,0.0,0.0,0.0,0.0,0.0,0.0,0.0,0.0,0.0,0.0,0.0,0.0,0.0,0.0,0.0,0.0,0.0,0.0,0.0,0.0,0.0,0.0,0.0,0.0,0.0,0.0,0.0,0.0,0.0,0.0,0.0,0.0,0.0,0.0,0.0,0.0,0.0,0.0,0.0,0.0,0.0,0.0,0.0,0.0,0.0,0.0,0.0,0.0,0.0,0.0,0.0,0.0,0.0,0.0,0.0,0.0,0.0,0.0,0.0,0.0,0.0,0.0,0.0,0.0,0.0,0.0,0.0,0.0,0.0,0.0,0.0,0.0,0.0,0.0,0.0,0.0,0.0,0.0,0.0,0.0,0.0,0.0,0.0,0.0,0.0,0.0,0.0,0.0,0.0,5.1725,5.1544,5.0453,5.0112,5.0435,5.0745,5.0902,0.0,0.0,0.0,0.0,0.0,0.0,0.0,0.0,0.0,0.0,0.0,0.0,0.0,0.0,0.0,0.0,0.0,0.0,0.0,0.0,0.0,0.0,0.0,0.0,0.0,0.0,0.0,0.0,0.0,0.0,0.0,0.0,0.0,0.0,0.0,0.0,0.0,0.0,0.0,0.0,0.0,0.0,0.0,0.0,0.0,0.0,0.0,0.0,0.0,0.0,0.0,0.0,0.0,0.0,0.0,0.0,0.0,0.0,0.0,0.0,0.0,0.0,0.0,0.0,0.0,0.0,0.0,0.0,0.0,0.0,0.0,0.0,0.0,0.0,0.0,0.0,0.0,0.0,0.0,0.0,0.0,0.0,0.0,0.0,0.0,0.0,0.0,0.0,0.0,0.0,0.0,0.0,0.0,0.0,0.0,0.0,0.0,0.0,0.0,0.0,0.0,0.0,0.0,0.0,0.0,0.0,0.0,0.0,0.0,5.1449,5.0125,5.032,5.2038,5.1193,5.1495,0.0,0.0,0.0,0.0,0.0,0.0,0.0,0.0,0.0,0.0,0.0,0.0,0.0,0.0,0.0,0.0,0.0,0.0,0.0,0.0,0.0,0.0,0.0,0.0,0.0,0.0,0.0,0.0,0.0,0.0,0.0,0.0,0.0,0.0,0.0,0.0,0.0,0.0,0.0,0.0,0.0,0.0,0.0,0.0,0.0,0.0,0.0,0.0,0.0,0.0,0.0,0.0,0.0,0.0,0.0,0.0,0.0,0.0,0.0,0.0,0.0,0.0,0.0,0.0,0.0,0.0,0.0,0.0,0.0,0.0,0.0,0.0,0.0,0.0,0.0,0.0,0.0,0.0,0.0,0.0,0.0,0.0,0.0,0.0,0.0,0.0,0.0,0.0,0.0,0.0,0.0,0.0,0.0,0.0,0.0,0.0,0.0,0.0,0.0,0.0,0.0,0.0,0.0,0.0,0.0,0.0,0.0,0.0,0.0,5.3608,5.1478,5.1166,5.2879,5.2008,5.2129,5.3445,0.0,0.0,0.0,0.0,0.0,0.0,0.0,0.0,0.0,0.0,0.0,0.0,0.0,0.0,0.0,0.0,0.0,0.0,0.0,0.0,0.0,0.0,0.0,0.0,0.0,0.0,0.0,0.0,0.0,0.0,0.0,0.0,0.0,0.0,0.0,0.0,0.0,0.0,0.0,0.0,0.0,0.0,0.0,0.0,0.0,0.0,0.0,0.0,0.0,0.0,0.0,0.0,0.0,0.0,0.0,0.0,0.0,0.0,0.0,0.0,0.0,0.0,0.0,0.0,0.0,0.0,0.0,0.0,0.0,0.0,0.0,0.0,0.0,0.0,0.0,0.0,0.0,0.0,0.0,0.0,0.0,0.0,0.0,0.0,0.0,0.0,0.0,0.0,0.0,0.0,0.0,0.0,0.0,0.0,0.0,0.0,0.0,0.0,0.0,0.0,0.0,0.0,0.0,0.0,0.0,0.0,0.0,0.0,5.7522,5.4375,5.2852,5.3111,5.3135,5.2825,0.0,0.0,0.0,0.0,0.0,0.0,0.0,0.0,0.0,0.0,0.0,0.0,0.0,0.0,0.0,0.0,0.0,0.0,0.0,0.0,0.0,0.0,0.0,0.0,0.0,0.0,0.0,0.0,0.0,0.0,0.0,0.0,0.0,0.0,0.0,0.0,0.0,0.0,0.0,0.0,0.0,0.0,0.0,0.0,0.0,0.0,0.0,0.0,0.0,0.0,0.0,0.0,0.0,0.0,0.0,0.0,0.0,0.0,0.0,0.0,0.0,0.0,0.0,0.0,0.0,0.0,0.0,0.0,0.0,0.0,0.0,0.0,0.0,0.0,0.0,0.0,0.0,0.0,0.0,0.0,0.0,0.0,0.0,0.0,0.0,0.0,0.0,0.0,0.0,0.0,0.0,0.0,0.0,0.0,0.0,0.0,0.0,0.0,0.0,0.0,0.0,0.0,0.0,0.0,0.0,0.0,0.0,0.0,0.0,5.902,5.7987,5.7045,5.633,5.535,5.473,0.0,0.0,0.0,0.0,0.0,0.0,0.0,0.0,0.0,0.0,0.0,0.0,0.0,0.0,0.0,0.0,0.0,0.0,0.0,0.0,0.0,0.0,0.0,0.0,0.0,0.0,0.0,0.0,0.0,0.0,0.0,0.0,0.0,0.0,0.0,0.0,0.0,0.0,0.0,0.0,0.0,0.0,0.0,0.0,0.0,0.0,0.0,0.0,0.0,0.0,0.0,0.0,0.0,0.0,0.0,0.0,0.0,0.0,0.0,0.0,0.0,0.0,0.0,0.0,0.0,0.0,0.0,0.0,0.0,0.0,0.0,0.0,0.0,0.0,0.0,0.0,0.0,0.0,0.0,0.0,0.0,0.0,0.0,0.0,0.0,0.0,0.0,0.0,0.0,0.0,0.0,0.0,0.0,0.0,0.0,0.0,0.0,0.0,0.0,0.0,0.0,0.0,0.0,0.0,0.0,0.0,0.0,0.0,6.0552,6.0685,6.1513,6.1127,5.9515,5.823,5.7116,0.0,0.0,0.0,0.0,0.0,0.0,0.0,0.0,0.0,0.0,0.0,0.0,0.0,0.0,0.0,0.0,0.0,0.0,0.0,0.0,0.0,0.0,0.0,0.0,0.0,0.0,0.0,0.0,0.0,0.0,0.0,0.0,0.0,0.0,0.0,0.0,0.0,0.0,0.0,0.0,0.0,0.0,0.0,0.0,0.0,0.0,0.0,0.0,0.0,0.0,0.0,0.0,0.0,0.0,0.0,0.0,0.0,0.0,0.0,0.0,0.0,0.0,0.0,0.0,0.0,0.0,0.0,0.0,0.0,0.0,0.0,0.0,0.0,0.0,0.0,0.0,0.0,0.0,0.0,0.0,0.0,0.0,0.0,0.0,0.0,0.0,0.0,0.0,0.0,0.0,0.0,0.0,0.0,0.0,0.0,0.0,0.0,0.0,0.0,0.0,0.0,0.0,0.0,0.0,0.0,0.0,0.0,0.0,6.3086,6.2378,6.4535,6.4646,6.2503,6.1426,5.9665,0.0,0.0,0.0,0.0,0.0,0.0,0.0,0.0,0.0,0.0,0.0,0.0,0.0,0.0,0.0,0.0,0.0,0.0,0.0,0.0,0.0,0.0,0.0,0.0,0.0,0.0,0.0,0.0,0.0,0.0,0.0,0.0,0.0,0.0,0.0,0.0,0.0,0.0,0.0,0.0,0.0,0.0,0.0,0.0,0.0,0.0,0.0,0.0,0.0,0.0,0.0,0.0,0.0,0.0,0.0,0.0,0.0,0.0,0.0,0.0,0.0,0.0,0.0,0.0,0.0,0.0,0.0,0.0,0.0,0.0,0.0,0.0,0.0,0.0,0.0,0.0,0.0,0.0,0.0,0.0,0.0,0.0,0.0,0.0,0.0,0.0,0.0,0.0,0.0,0.0,0.0,0.0,0.0,0.0,0.0,0.0,0.0,0.0,0.0,0.0,0.0,0.0,0.0,0.0,0.0,0.0,0.0,0.0,6.4003,6.4376,6.5362,6.5686,6.5167,6.3511,6.1556,0.0,0.0,0.0,0.0,0.0,0.0,0.0,0.0,0.0,0.0,0.0,0.0,0.0,0.0,0.0,0.0,0.0,0.0,0.0,0.0,0.0,0.0,0.0,0.0,0.0,0.0,0.0,0.0,0.0,0.0,0.0,0.0,0.0,0.0,0.0,0.0,0.0,0.0,0.0,0.0,0.0,0.0,0.0,0.0,0.0,0.0,0.0,0.0,4.6971,0.0,0.0,0.0,0.0,0.0,0.0,0.0,0.0,0.0,0.0,0.0,0.0,0.0,0.0,0.0,0.0,0.0,0.0,0.0,0.0,0.0,0.0,0.0,0.0,0.0,0.0,0.0,0.0,0.0,0.0,0.0,0.0,0.0,0.0,0.0,0.0,0.0,0.0,0.0,0.0,0.0,0.0,0.0,0.0,0.0,0.0,0.0,0.0,0.0,0.0,0.0,0.0,0.0,0.0,0.0,0.0,0.0,0.0,0.0,6.4859,6.5568,6.676,6.6937,6.611,6.551,6.4044,0.0,0.0,0.0,0.0,0.0,0.0,0.0,0.0,0.0,0.0,0.0,0.0,0.0,0.0,0.0,0.0,0.0,0.0,0.0,0.0,0.0,0.0,0.0,0.0,0.0,0.0,0.0,0.0,0.0,0.0,0.0,0.0,0.0,0.0,0.0,0.0,0.0,0.0,0.0,0.0,0.0,0.0,0.0,0.0,0.0,0.0,0.0,0.0,0.0,0.0,0.0,0.0,0.0,0.0,0.0,0.0,0.0,0.0,0.0,0.0,0.0,0.0,0.0,0.0,0.0,0.0,0.0,0.0,0.0,0.0,0.0,0.0,0.0,0.0,0.0,0.0,0.0,0.0,0.0,0.0,0.0,0.0,0.0,0.0,0.0,0.0,0.0,0.0,0.0,0.0,0.0,0.0,0.0,0.0,0.0,0.0,0.0,0.0,0.0,0.0,0.0,0.0,0.0,0.0,0.0,0.0,0.0,6.5357,6.5948,6.6642,6.8128,6.8166,6.6671,6.7193,6.643,6.4165,0.0,0.0,0.0,0.0,0.0,0.0,0.0,0.0,0.0,0.0,0.0,0.0,0.0,0.0,0.0,0.0,0.0,0.0,0.0,0.0,0.0,0.0,0.0,0.0,0.0,0.0,0.0,0.0,0.0,0.0,0.0,0.0,0.0,0.0,0.0,0.0,0.0,0.0,4.7002,4.7797,0.0,0.0,0.0,0.0,0.0,0.0,0.0,0.0,4.8426,0.0,0.0,0.0,0.0,0.0,0.0,0.0,0.0,0.0,0.0,0.0,0.0,0.0,0.0,0.0,0.0,0.0,0.0,0.0,0.0,0.0,0.0,0.0,0.0,0.0,0.0,0.0,0.0,0.0,0.0,0.0,0.0,0.0,0.0,0.0,0.0,0.0,0.0,0.0,0.0,0.0,0.0,0.0,0.0,0.0,0.0,0.0,0.0,0.0,0.0,0.0,0.0,0.0,0.0,0.0,0.0,6.9155,6.8032,6.7747,6.8548,6.8833,6.8825,6.845,6.7867,6.7382,6.6851,0.0,0.0,0.0,0.0,0.0,0.0,0.0,0.0,0.0,0.0,0.0,0.0,0.0,0.0,0.0,0.0,0.0,0.0,0.0,0.0,0.0,0.0,0.0,0.0,0.0,0.0,0.0,0.0,0.0,0.0,0.0,0.0,0.0,0.0,0.0,0.0,0.0,0.0,0.0,5.1486,5.1999,0.0,0.0,0.0,0.0,0.0,0.0,0.0,0.0,4.8644,0.0,0.0,0.0,0.0,0.0,0.0,0.0,0.0,0.0,0.0,0.0,0.0,0.0,0.0,0.0,0.0,0.0,0.0,0.0,0.0,0.0,0.0,0.0,0.0,0.0,0.0,0.0,0.0,0.0,0.0,0.0,0.0,0.0,0.0,0.0,0.0,0.0,0.0,0.0,0.0,0.0,0.0,0.0,0.0,0.0,0.0,0.0,0.0,0.0,0.0,0.0,0.0,0.0,0.0,0.0,6.9342,6.8361,6.8361,6.9627,6.9297,6.9065,6.8884,6.7993,6.7546,0.0,0.0,0.0,0.0,0.0,0.0,0.0,0.0,0.0,0.0,0.0,0.0,0.0,0.0,0.0,0.0,0.0,0.0,0.0,0.0,0.0,0.0,0.0,0.0,0.0,0.0,0.0,0.0,0.0,0.0,0.0,0.0,0.0,0.0,0.0,0.0,0.0,0.0,0.0,0.0,5.3299,5.4153,5.4494,0.0,0.0,0.0,0.0,0.0,0.0,5.0945,5.0489,0.0,0.0,0.0,0.0,0.0,0.0,0.0,0.0,0.0,0.0,0.0,0.0,0.0,0.0,0.0,0.0,0.0,0.0,0.0,0.0,0.0,0.0,0.0,0.0,0.0,0.0,0.0,0.0,0.0,0.0,0.0,0.0,0.0,0.0,0.0,0.0,0.0,0.0,0.0,0.0,0.0,0.0,0.0,0.0,0.0,0.0,0.0,0.0,0.0,0.0,0.0,0.0,0.0,0.0,0.0,6.911,6.8481,6.8892,7.0413,6.9769,6.929,6.9145,6.8097,6.7612,0.0,0.0,0.0,0.0,0.0,0.0,0.0,0.0,0.0,0.0,0.0,0.0,0.0,0.0,0.0,0.0,0.0,0.0,0.0,0.0,0.0,0.0,0.0,0.0,0.0,0.0,0.0,0.0,0.0,0.0,0.0,0.0,0.0,0.0,0.0,0.0,0.0,0.0,0.0,0.0,0.0,5.6133,5.6816,5.5689,0.0,0.0,0.0,0.0,5.4243,5.3676,0.0,0.0,0.0,0.0,0.0,0.0,0.0,0.0,0.0,0.0,0.0,0.0,0.0,0.0,0.0,0.0,0.0,0.0,0.0,0.0,0.0,0.0,0.0,0.0,0.0,0.0,0.0,0.0,0.0,0.0,0.0,0.0,0.0,0.0,0.0,0.0,0.0,0.0,0.0,0.0,0.0,0.0,0.0,0.0,0.0,0.0,0.0,0.0,0.0,0.0,0.0,0.0,0.0,0.0,0.0,0.0,6.9855,6.9892,7.0313,7.1252,7.0448,6.999,6.993,6.8358,6.7887,0.0,0.0,0.0,0.0,0.0,0.0,0.0,0.0,0.0,0.0,0.0,0.0,0.0,0.0,0.0,0.0,0.0,0.0,0.0,0.0,0.0,0.0,0.0,0.0,0.0,0.0,0.0,0.0,0.0,0.0,0.0,0.0,0.0,0.0,0.0,0.0,0.0,0.0,0.0,0.0,0.0,5.8744,5.9384,5.8561,5.7944,0.0,0.0,5.6264,5.7019,5.7088,0.0,0.0,0.0,0.0,0.0,0.0,0.0,0.0,0.0,0.0,0.0,0.0,0.0,0.0,0.0,0.0,0.0,0.0,0.0,0.0,0.0,0.0,0.0,0.0,0.0,0.0,0.0,0.0,0.0,0.0,0.0,0.0,0.0,0.0,0.0,0.0,0.0,0.0,0.0,0.0,0.0,0.0,0.0,0.0,0.0,0.0,0.0,0.0,0.0,0.0,0.0,0.0,0.0,0.0,0.0,6.8346,7.0784,7.0741,7.1115,7.2018,7.1223,7.0517,6.9998,6.823,6.7784,0.0,0.0,0.0,0.0,0.0,0.0,0.0,0.0,0.0,0.0,0.0,0.0,0.0,0.0,0.0,0.0,0.0,0.0,0.0,0.0,0.0,0.0,0.0,0.0,0.0,0.0,0.0,0.0,0.0,0.0,0.0,0.0,0.0,0.0,0.0,0.0,0.0,0.0,0.0,0.0,0.0,0.0,6.2255,6.2286,0.0,0.0,0.0,6.0166,6.069,0.0,0.0,0.0,0.0,0.0,0.0,0.0,0.0,0.0,0.0,0.0,0.0,0.0,0.0,0.0,0.0,0.0,0.0,0.0,0.0,0.0,0.0,0.0,0.0,0.0,0.0,0.0,0.0,0.0,0.0,0.0,0.0,0.0,0.0,0.0,0.0,0.0,0.0,0.0,0.0,0.0,0.0,0.0,0.0,0.0,0.0,0.0,0.0,0.0,0.0,0.0,0.0,0.0,0.0,0.0,0.0,0.0,7.1203,7.1516,7.2013,7.2708,7.2124,7.1231,7.0127,6.8124,0.0,0.0,0.0,0.0,0.0,0.0,0.0,0.0,0.0,0.0,0.0,0.0,0.0,0.0,0.0,0.0,0.0,0.0,0.0,0.0,0.0,0.0,0.0,0.0,0.0,0.0,0.0,5.0055,0.0,0.0,0.0,0.0,0.0,0.0,0.0,0.0,0.0,0.0,0.0,0.0,0.0,0.0,6.4937,6.5104,6.5636,6.5693,0.0,0.0,6.3864,6.4136,6.3653,6.2532,0.0,0.0,0.0,0.0,0.0,0.0,0.0,0.0,0.0,0.0,0.0,0.0,0.0,0.0,0.0,0.0,0.0,0.0,0.0,0.0,0.0,0.0,0.0,0.0,0.0,0.0,0.0,0.0,0.0,0.0,0.0,0.0,0.0,0.0,0.0,0.0,0.0,0.0,0.0,0.0,0.0,0.0,0.0,0.0,0.0,0.0,0.0,0.0,0.0,0.0,0.0,0.0,0.0,0.0,6.8908,7.0576,7.2329,7.3287,7.3324,7.3156,7.2288,7.0694,6.8208,6.7358,0.0,0.0,0.0,0.0,0.0,0.0,0.0,0.0,0.0,0.0,0.0,0.0,0.0,0.0,0.0,0.0,0.0,0.0,0.0,0.0,0.0,0.0,0.0,0.0,0.0,0.0,0.0,0.0,0.0,0.0,0.0,0.0,0.0,0.0,0.0,0.0,0.0,0.0,0.0,0.0,0.0,6.665,6.7694,6.813,6.8569,0.0,6.8049,6.7046,6.6848,6.7012,6.6154,6.3368,0.0,0.0,0.0,0.0,0.0,0.0,0.0,0.0,0.0,0.0,0.0,0.0,0.0,0.0,0.0,0.0,0.0,0.0,0.0,0.0,0.0,0.0,0.0,0.0,0.0,0.0,0.0,0.0,7.1174,0.0,0.0,0.0,0.0,0.0,0.0,0.0,0.0,0.0,0.0,0.0,0.0,0.0,0.0,0.0,0.0,0.0,0.0,0.0,0.0,0.0,0.0,0.0,0.0,7.0118,7.1921,7.3239,7.4199,7.4725,7.4226,7.3421,7.2272,6.9699,6.8368,0.0,0.0,0.0,0.0,0.0,0.0,0.0,0.0,0.0,0.0,0.0,0.0,0.0,0.0,0.0,0.0,0.0,0.0,0.0,0.0,0.0,0.0,0.0,0.0,0.0,0.0,0.0,0.0,5.3554,5.4317,5.5157,0.0,0.0,0.0,0.0,0.0,0.0,0.0,0.0,0.0,0.0,6.9329,7.0499,7.1071,0.0,0.0,7.058,6.9848,6.9857,6.8787,6.7277,6.5397,6.3601,0.0,0.0,0.0,0.0,0.0,0.0,0.0,0.0,0.0,0.0,0.0,0.0,0.0,0.0,0.0,0.0,0.0,0.0,0.0,0.0,0.0,0.0,0.0,0.0,0.0,0.0,0.0,7.2357,0.0,0.0,0.0,0.0,0.0,0.0,0.0,0.0,0.0,0.0,0.0,0.0,0.0,0.0,0.0,0.0,0.0,0.0,0.0,0.0,0.0,0.0,0.0,0.0,7.0824,7.2686,7.3932,7.4857,7.543,7.4913,7.4109,7.3009,7.0786,6.921,0.0,0.0,0.0,0.0,0.0,0.0,0.0,0.0,0.0,0.0,0.0,0.0,0.0,0.0,0.0,0.0,0.0,0.0,0.0,0.0,0.0,0.0,0.0,0.0,0.0,0.0,0.0,0.0,5.5476,5.6355,5.7441,0.0,0.0,0.0,0.0,0.0,0.0,0.0,0.0,0.0,0.0,7.2422,7.3318,7.4018,7.4298,7.3992,7.2994,7.2338,7.2474,7.0789,6.9144,6.8061,0.0,0.0,0.0,0.0,0.0,0.0,0.0,0.0,0.0,0.0,0.0,0.0,0.0,0.0,0.0,0.0,0.0,0.0,0.0,0.0,0.0,0.0,0.0,0.0,0.0,0.0,0.0,7.4815,0.0,0.0,7.4778,0.0,0.0,0.0,0.0,0.0,0.0,0.0,0.0,0.0,0.0,0.0,0.0,0.0,0.0,0.0,0.0,0.0,0.0,0.0,0.0,0.0,0.0,7.0718,7.2365,7.438,7.5297,7.5182,7.5153,7.4359,7.2635,7.0982,6.9734,6.8898,0.0,0.0,0.0,0.0,0.0,0.0,0.0,0.0,0.0,0.0,0.0,0.0,0.0,0.0,0.0,0.0,0.0,0.0,0.0,0.0,0.0,0.0,0.0,0.0,0.0,0.0,5.8177,5.8904,5.9429,0.0,0.0,0.0,0.0,0.0,0.0,0.0,0.0,0.0,7.1452,7.4213,7.6016,7.6006,7.6885,7.7178,7.6495,7.5361,7.4525,7.4525,7.3274,7.2146,0.0,0.0,0.0,0.0,0.0,0.0,0.0,0.0,0.0,0.0,0.0,0.0,0.0,0.0,0.0,0.0,0.0,0.0,0.0,0.0,0.0,0.0,0.0,0.0,0.0,0.0,0.0,7.7433,7.7304,0.0,0.0,0.0,0.0,0.0,0.0,0.0,0.0,0.0,0.0,0.0,8.1434,8.0011,0.0,0.0,0.0,0.0,0.0,0.0,0.0,0.0,0.0,0.0,0.0,0.0,7.2589,7.5145,7.5696,7.6323,7.7292,7.633,7.5492,7.4882,7.334,7.1558,6.9603,0.0,0.0,0.0,0.0,0.0,0.0,0.0,0.0,0.0,0.0,0.0,0.0,0.0,0.0,0.0,0.0,0.0,0.0,0.0,0.0,0.0,0.0,0.0,0.0,0.0,5.9772,0.0,0.0,0.0,0.0,0.0,0.0,0.0,0.0,0.0,0.0,6.9494,7.1762,7.4537,7.601,7.7223,7.8223,7.8499,7.8519,0.0,0.0,0.0,0.0,0.0,0.0,0.0,0.0,0.0,0.0,0.0,0.0,0.0,0.0,6.9946,6.6152,6.4841,6.4462,6.4979,0.0,0.0,0.0,0.0,0.0,0.0,0.0,0.0,0.0,0.0,0.0,0.0,0.0,0.0,8.0118,7.9952,7.9375,0.0,0.0,0.0,0.0,0.0,0.0,0.0,0.0,8.2608,8.3195,8.4086,8.2949,8.228,8.2004,8.0385,7.7933,0.0,0.0,0.0,0.0,0.0,0.0,0.0,0.0,7.3909,7.6656,7.6544,7.7217,7.862,7.7155,7.6349,7.6313,7.4519,7.2482,7.0274,6.841,6.714,0.0,0.0,0.0,0.0,0.0,0.0,0.0,0.0,0.0,0.0,0.0,0.0,0.0,0.0,0.0,0.0,0.0,0.0,0.0,0.0,0.0,0.0,0.0,6.2297,0.0,0.0,0.0,0.0,0.0,0.0,0.0,0.0,0.0,7.1447,7.2983,7.5025,7.7433,7.8093,7.8879,8.012,0.0,0.0,0.0,0.0,0.0,0.0,0.0,7.6938,7.6843,7.6388,7.5981,7.5897,7.6849,7.7663,7.7661,0.0,0.0,7.1774,7.0256,6.9911,7.036,7.0084,6.998,7.0739,7.0877,7.0994,0.0,0.0,0.0,0.0,8.573,0.0,0.0,0.0,8.3355,8.2948,0.0,8.2613,0.0,0.0,0.0,0.0,8.1371,8.2338,0.0,0.0,8.6023,8.651,8.5991,8.5767,8.5388,8.465,8.2971,8.1657,8.0617,7.6579,0.0,0.0,0.0,0.0,0.0,0.0,7.4726,7.6906,7.7144,7.7875,7.9135,7.7713,7.6874,7.6801,7.4582,7.2614,7.101,7.0135,6.8932,6.7393,6.7141,0.0,0.0,0.0,0.0,0.0,0.0,0.0,0.0,0.0,0.0,0.0,0.0,0.0,0.0,0.0,0.0,0.0,0.0,0.0,0.0,6.4664,0.0,0.0,0.0,0.0,0.0,0.0,0.0,0.0,0.0,7.6994,7.566,7.6929,7.8624,8.0121,0.0,0.0,0.0,0.0,8.2526,8.2561,8.233,8.2048,8.1832,8.117,8.056,8.0293,0.0,0.0,7.9951,8.0686,8.1167,8.0798,8.1259,8.0707,7.7051,7.5524,7.4972,7.5007,7.4903,7.5214,7.5982,7.5878,7.61,9.4005,0.0,0.0,0.0,0.0,8.905,8.9225,8.9895,8.8627,8.7369,8.6163,8.5471,0.0,0.0,0.0,0.0,0.0,0.0,8.5852,8.6825,8.7895,8.8658,8.9113,8.8561,8.8115,8.7886,8.5662,8.4443,8.4072,8.1784,7.9191,7.6483,0.0,0.0,0.0,0.0,7.7788,7.9406,7.9072,7.9227,8.0047,7.8966,7.8098,7.7549,7.6373,7.5019,7.3416,7.203,7.0798,6.9659,6.8502,0.0,0.0,0.0,0.0,0.0,0.0,0.0,0.0,0.0,0.0,0.0,0.0,0.0,0.0,0.0,0.0,0.0,0.0,0.0,6.7418,6.7595,6.8022,0.0,0.0,0.0,0.0,0.0,0.0,0.0,0.0,0.0,8.1664,8.1364,8.1548,0.0,0.0,8.3121,8.3362,8.3472,8.3817,8.4368,8.3856,0.0,8.3887,8.3055,8.2376,8.2072,8.1868,8.1851,8.2169,8.2455,8.2722,8.2956,8.3225,8.2983,8.1948,7.9776,7.8499,7.873,7.8154,7.7706,7.8361,7.8534,7.8511,9.8455,9.6256,9.4727,9.38,9.3365,9.2945,9.2714,9.2613,9.175,9.0749,8.9687,8.877,8.7433,8.5825,8.562,0.0,0.0,0.0,8.7947,8.8923,8.9702,9.0216,9.0499,9.0313,9.009,8.9681,8.7601,8.6598,8.6561,8.4963,8.3024,8.0859,0.0,7.9541,7.9438,7.9411,7.997,8.1114,8.032,8.0333,8.1257,8.003,7.8983,7.8184,7.7777,7.6792,7.5192,7.3983,7.2818,7.1598,6.9999,6.9104,0.0,0.0,0.0,0.0,0.0,0.0,0.0,0.0,0.0,0.0,0.0,6.6245,6.6309,0.0,0.0,0.0,6.8377,6.9243,7.0292,7.0429,0.0,0.0,0.0,0.0,0.0,0.0,0.0,8.0007,8.2058,8.3761,8.4618,8.4495,8.4402,8.4506,8.4772,8.5018,8.5328,0.0,8.5639,8.6432,8.6156,8.5884,8.6079,8.5343,8.4523,8.3978,8.3652,8.3652,8.4164,8.4232,8.4417,8.4766,8.4915,8.4915,8.4915,8.319,8.1776,8.1914,8.1259,8.0845,8.1224,8.1293,8.1199,10.2385,10.2399,10.0356,9.8379,9.66,9.6562,9.5342,9.3397,9.3397,9.3285,9.3025,9.2117,9.1272,9.0416,8.8881,0.0,8.9341,8.9452,8.9999,9.0833,9.1613,9.1576,9.0833,9.1539,9.1465,9.0685,8.9124,8.8344,8.8195,8.6672,8.5763,8.5503,8.3903,8.2565,8.156,8.1333,8.1571,8.2102,8.117,8.1328,8.2502,8.0945,7.968,7.881,7.881,7.805,7.649,7.5792,7.4764,7.3239,7.164,7.0768,7.0732,0.0,0.0,0.0,0.0,0.0,0.0,0.0,0.0,0.0,0.0,0.0,0.0,0.0,0.0,7.1053,7.1732,0.0,7.2665,7.3319,0.0,0.0,0.0,7.7873,7.8725,8.0417,8.1789,8.267,0.0,0.0,8.5578,8.6634,8.7082,8.6233,8.6281,8.6674,8.7398,8.7467,8.7812,8.8467,8.8605,8.8468,8.8123,8.7367,8.6423,8.5617,8.5341,8.5256,8.5686,8.5822,8.5958,8.609,8.6294,8.626,8.6244,8.5486,8.5052,8.4259,8.3983,8.3914,8.3811,8.3776,8.361,10.4754,10.4815,10.3687,10.1824,9.9568,9.9568,9.8467,9.674,9.674,9.5663,9.3917,9.366,9.3169,9.2486,9.2714,9.2566,9.2226,9.3359,9.366,9.3397,9.414,9.4102,9.3359,9.3508,9.3174,9.2393,9.1353,9.0536,8.9904,8.8901,8.7927,8.7008,8.6569,8.5554,8.3995,8.3794,8.3805,8.3955,8.3566,8.3143,8.261,8.2176,8.1198,7.968,7.9607,7.8847,7.7253,7.649,7.5617,7.4606,7.3048,7.221,7.221,7.1547,0.0,0.0,0.0,0.0,0.0,0.0,0.0,0.0,0.0,7.0237,7.0267,0.0,7.3379,0.0,7.4518,7.5698,7.6835,7.6805,0.0,0.0,8.0399,8.096,8.2249,8.325,8.4353,8.5546,8.666,8.7679,8.8549,8.9283,8.9364,8.8435,8.76,8.7432,8.8191,8.8329,8.857,8.9226,8.8984,8.8709,8.8879,8.7725,8.6644,8.6368,8.5838,8.5532,8.584,8.589,8.5941,8.5992,8.6144,8.6194,8.6043,8.6006,8.5984,8.5708,8.4846,8.4018,8.4018,8.4018,8.3969,10.599,10.6059,10.5168,10.3943,10.2423,10.1523,10.0297,9.8969,9.8969,9.7966,9.6331,9.5588,9.4875,9.4235,9.4644,9.4607,9.4235,9.5028,9.518,9.4771,9.518,9.5143,9.4734,9.4362,9.3954,9.3471,9.2282,9.1465,9.0982,9.0137,8.9313,8.8605,8.8538,8.7961,8.6838,8.5707,8.5123,8.5123,8.4916,8.4273,8.3192,8.2756,8.2104,8.102,8.0621,7.9861,7.8593,7.7728,7.7008,7.6574,7.4988,7.4055,7.4018,7.3461,7.3092,0.0,0.0,0.0,0.0,0.0,0.0,0.0,0.0,0.0,0.0,0.0,7.6484,7.7072,7.8162,7.9215,8.015,8.0243,8.1188,8.3376,8.3529,8.4043,8.5499,8.621,8.7068,8.8124,8.865,8.9117,8.9752,8.996,8.9905,8.9514,8.8862,8.857,8.9019,8.9364,8.9743,9.0088,8.9847,8.9519,8.95,8.855,8.7622,8.7057,8.68,8.6611,8.6215,8.6368,8.6472,8.6162,8.6194,8.6194,8.5992,8.6093,8.6244,8.604,8.5539,8.5087,8.5018,8.5052,8.5052,10.6772,10.6735,10.5768,10.5246,10.4947,10.2942,10.1528,10.0681,10.0569,10.0012,9.912,9.7706,9.6629,9.5886,9.5886,9.5811,9.5737,9.57,9.5737,9.57,9.57,9.5663,9.5514,9.4734,9.4288,9.414,9.2616,9.1799,9.1688,9.0786,9.025,9.0009,8.9767,8.9594,8.9272,8.7254,8.6153,8.6045,8.576,8.5078,8.3955,8.3265,8.2721,8.2287,8.1599,8.0803,7.9898,7.8998,7.853,7.8494,7.7019,7.6194,7.6266,7.5795,7.5538,0.0,7.5672,0.0,0.0,0.0,0.0,0.0,0.0,0.0,0.0,7.8374,7.9828,8.1236,8.192,8.2526,8.3033,8.3432,8.4296,8.5756,8.6144,8.6853,8.8298,8.885,8.9458,9.0182,9.0287,9.0191,9.0073,8.9757,8.9785,9.007,8.9968,8.9778,8.9881,9.0329,9.0709,9.0812,9.0812,9.0467,8.9967,8.9534,8.8931,8.7985,8.7917,8.7831,8.6658,8.7087,8.7329,8.6623,8.6451,8.6366,8.6079,8.6265,8.6366,8.6249,8.6385,8.6501,8.626,8.6156,8.6294,10.8034,10.7329,10.6511,10.6139,10.599,10.4319,10.328,10.2681,10.2053,10.1018,9.9869,9.9678,9.9155,9.8449,9.8375,9.804,9.7446,9.7409,9.7446,9.7446,9.7409,9.7074,9.6369,9.5551,9.4808,9.4177,9.3211,9.2393,9.1688,9.1412,9.0805,9.0009,8.9804,8.9523,8.9166,0.0,0.0,0.0,8.6574,8.5737,8.4791,8.4646,8.381,8.2396,8.1997,0.0,7.972,7.9324,7.9142,7.9106,7.8818,0.0,0.0,0.0,0.0,0.0,0.0,0.0,0.0,0.0,0.0,0.0,8.1916,8.1631,7.9323,8.0873,8.2668,8.4176,8.4463,8.4988,8.5936,8.5934,8.6628,8.8315,8.8462,8.8768,8.9681,8.9879,9.0169,9.0675,9.078,9.0827,9.0983,9.0952,9.0884,9.0693,9.0658,9.0605,9.0571,9.0709,9.0812,9.0812,9.0812,9.0778,9.0605,9.0036,8.957,8.926,8.876,8.8243,8.7501,8.7846,8.7985,8.7109,8.7039,8.709,8.6834,8.6988,8.714,8.709,8.7623,8.7777,8.6605,8.6329,8.6294,10.7997,10.7551,10.7179,10.6918,0.0,10.5542,10.4833,10.445,10.2979,10.1759,10.072,10.0457,10.0046,9.9675,9.9606,9.9125,9.8346,9.8647,9.8424,9.7752,9.816,9.7936,9.7223,9.6406,9.5588,9.4771,9.3954,9.3174,9.2356,9.2054,9.17,9.1191,9.0771,9.0667,9.0886,9.0586,8.9707,8.8216,8.7815,8.7303,8.6718,8.6242,8.5512,8.4492,8.3508,0.0,0.0,0.0,0.0,0.0,0.0,0.0,0.0,8.1887,0.0,8.1887,8.1887,8.2027,8.2303,8.2775,8.3137,8.3446,8.4554,8.4573,8.2876,8.4091,8.5365,8.6341,8.7085,8.7743,8.8223,8.8384,8.9007,9.0294,9.0268,9.0441,9.1178,9.1354,9.1445,9.1579,9.1585,9.1561,9.1692,9.142,9.13,9.1057,9.0952,9.0812,9.0812,9.0812,9.0812,9.0812,9.0812,9.0812,9.0778,9.0536,9.0088,8.9778,8.9709,8.9226,8.8191,8.8639,8.8864,8.8003,8.7882,8.7882,8.7486,8.7676,8.7882,8.7642,8.7779,8.7812,8.7018,8.7156,8.7294,10.7885,10.7625,10.7625,10.751,10.7281,10.6466,10.5907,10.5383,10.3613,0.0,0.0,10.0977,10.0641,10.0457,10.035,9.9832,9.9127,9.9464,9.8983,9.7904,9.8387,9.8383,9.7855,9.7,9.6257,9.5588,9.4622,9.3954,9.3434,9.2878,9.2705,9.2711,9.217,9.2202,9.2708,9.2195,9.1056,8.9482,8.9156,8.8935,8.8742,8.7935,8.7342,8.7076,8.5542,8.4669,8.4486,8.3069,8.2874,8.4232,8.357,8.3488,8.4237,8.4267,8.4225,8.4267,8.4267,8.4391,8.494,8.5102,8.5464,8.6111,8.6751,8.6923,8.6519,8.7091,8.7672,8.8206,8.9405,9.0095,9.0043,9.0423,9.0987,9.1749,9.1675,9.1775,9.2372,9.2512,9.2442,9.2414,9.2145,9.198,9.1879,9.1471,9.1213,9.1161,9.0952,9.0812,9.0812,9.0812,9.0812,9.0812,9.0812,9.0812,9.0812,9.0778,9.0536,9.0088,9.0398,9.0295,8.9329,8.9398,8.9536,8.8915,8.8812,8.8622,8.8223,8.8467,8.8622,8.817,8.8054,8.8019,8.8053,8.8398,8.8364,10.8888,10.7625,10.7625,10.7587,10.7513,10.6696,10.5544,10.4207,10.3687,10.3019,10.2278,10.2351,10.1978,10.1347,10.1274,10.0865,10.0048,9.9456,9.9084,9.886,9.8303,9.7968,9.7855,9.7,9.6554,9.6331,9.492,9.4511,9.4923,9.3951,9.367,9.408,9.3784,9.336,9.2949,9.2496,9.2106,9.1788,9.0455,8.9729,8.9688,8.9539,8.9143,8.8414,8.7867,8.715,8.6507,8.5877,8.5938,8.6824,8.6745,8.6993,8.7701,8.7737,8.7772,8.7772,8.7772,8.7843,8.7869,8.7949,8.8268,8.8967,8.9179,8.9031,8.8552,8.8455,8.8951,9.0287,9.0631,9.0974,9.1328,9.1492,9.1784,9.2294,9.2386,9.2407,9.2547,9.2547,9.2449,9.218,9.1929,9.166,9.1471,9.1161,9.0917,9.0865,9.0865,9.0812,9.0812,9.0812,9.0812,9.0812,9.0812,9.0812,9.0812,9.0812,9.0709,9.0674,9.0709,9.0536,8.9709,9.0088,9.0295,8.9674,8.9536,8.9484,8.938,8.9484,8.9484,8.9328,8.9604,8.995,8.9881,8.964,8.8777,10.874,10.7662,10.7625,10.7625,10.7514,10.6288,10.5099,10.3984,10.3354,10.2909,10.2575,10.2685,10.2498,10.2164,10.2055,10.1573,10.0794,10.0722,10.0314,9.9607,9.9199,9.8863,9.8486,9.7706,9.7074,9.6591,9.5886,9.5443,9.5195,9.4547,9.4262,9.4338,9.4132,9.3923,9.3726,9.3809,9.3936,9.4193,9.21,9.119,9.1577,9.1396,9.13,9.1292,9.0588,9.0053,8.9662,8.9012,8.9063,8.9877,8.9912,9.0231,9.0974,9.0516,9.0257,9.0222,8.9729,8.9436,8.9436,8.9436,8.9612,8.9929,8.9965,9.0047,9.0176,9.0257,9.0528,9.1104,9.148,9.1855,9.211,9.2097,9.2413,9.3004,9.3109,9.3109,9.306,9.296,9.2685,9.2185,9.1727,9.1455,9.1351,9.097,9.0812,9.0812,9.0812,9.0812,9.0812,9.0812,9.0812,9.0812,9.0812,9.0812,9.0812,9.0812,9.0812,9.0812,9.0812,9.0674,9.0364,9.064,9.0605,9.0398,9.0295,9.0243,9.0137,9.019,9.019,9.005,8.9673,8.9709,8.9502,8.8708,8.7812,10.8703,10.7885,10.7699,10.7625,10.7477,10.5879,10.4839,10.4207,10.3167,10.2684,10.2684,10.2684,10.2684,10.2685,10.2538,10.213,10.1611,10.1832,10.1389,10.0425,10.0165,9.9755,9.9081,9.8449,9.7817,9.7149,9.6814,9.634,9.5906,9.5362,9.4964,9.4728,9.4586,9.4547,9.4677,9.4973,9.5391,9.5628,9.3705,9.297,9.3577,9.3292,9.338,9.3841,9.3144,9.2731,9.2731,9.2035,9.1988,9.26,9.2636,9.2954,9.3436,9.2832,9.2348,9.2088,9.1556,9.1248,9.1213,9.1073,9.0968,9.0968,9.0792,9.0968,9.1508,9.1758,9.1758,9.1683,9.214,9.2512,9.2688,9.2758,9.3039,9.3776,9.3882,9.3882,9.3832,9.3681,9.337,9.276,9.2161,9.1784,9.1594,9.1351,9.1245,9.1364,9.1054,9.0847,9.1019,9.095,9.0812,9.0812,9.0812,9.0812,9.0812,9.0812,9.0812,9.0812,9.0812,9.0778,9.0743,9.0778,9.0812,9.0743,9.0778,9.0691,9.0548,9.0619,9.0672,9.0463,8.9949,8.9191,8.8743,8.795,8.7156,10.952,10.874,10.796,10.7625,10.7439,10.5879,10.5136,10.4913,10.339,10.2721,10.2758,10.2721,10.2684,10.2684,10.2648,10.2611,10.2462,10.1868,10.146,10.1311,10.0605,9.9862,9.9229,9.9043,9.8932,9.8672,9.7409,9.7379,9.8203,9.6729,9.6025,9.6177,9.5698,9.5545,9.5712,9.5568,9.5529,9.5516,9.5122,9.5016,9.5246,9.5246,9.5233,9.5304,9.5025,9.4926,9.4891,9.4573,9.4473,9.4544,9.4544,9.4579,9.4649,9.4529,9.4177,9.351,9.3952,9.4373,9.4268,9.3706,9.32,9.325,9.2568,9.2253,9.2407,9.2407,9.2456,9.2442,9.2477,9.2828,9.3425,9.3531,9.3847,9.4549,9.4689,9.4689,9.4654,9.4689,9.4654,9.4533,9.3529,9.2925,9.2582,9.2322,9.2389,9.2571,9.1744,9.1226,9.1606,9.1295,9.0881,9.0847,9.0812,9.0812,9.0812,9.0812,9.0812,9.0812,9.0812,9.0812,9.0812,9.0812,9.0812,9.0812,9.0812,9.076,9.076,9.0812,9.076,9.0672,9.0415,9.0088,8.9019,8.8295,8.8088,11.0077,10.8888,10.8517,10.8071,10.7439,10.5879,10.547,10.5693,10.3613,10.2981,10.339,10.2944,10.2684,10.2684,10.2684,10.2684,10.2684,10.235,10.2201,10.2164,10.1384,10.0827,10.0529,10.0009,9.9824,9.9786,9.9118,9.8976,9.9021,9.8014,9.7341,9.7173,9.6715,9.6522,9.6577,9.6503,9.6486,9.6649,9.6584,9.6519,9.6398,9.5976,9.5976,9.6398,9.6367,9.6317,9.6317,9.6215,9.6164,9.6164,9.6164,9.6164,9.6164,9.5286,9.4654,9.4338,9.4163,9.4303,9.4759,9.4327,9.4086,9.4086,9.3618,9.3307,9.3307,9.3307,9.3307,9.3323,9.3226,9.3446,9.3996,9.4237,9.4619,9.5286,9.5462,9.5462,9.5426,9.5274,9.5066,9.4611,9.4056,9.359,9.3277,9.3014,9.2939,9.302,9.2468,9.2157,9.2054,9.1709,9.133,9.0916,9.0812,9.0812,9.0812,9.0812,9.0812,9.0812,9.0812,9.0812,9.0812,9.0812,9.0812,9.0812,9.0812,9.0812,9.0812,9.0812,9.0812,9.0743,9.0295,8.9812,8.8812,8.8226,8.8053,11.0337,10.926,10.8777,10.8182,10.7514,10.6139,10.5879,10.6102,10.4022,10.3427,10.3873,10.3093,10.2684,10.2684,10.2684,10.2684,10.2684,10.2684,10.2684,10.2647,10.209,10.1718,10.1458,10.0938,10.0605,10.0532,10.0272,9.9945,9.9497,9.8756,9.825,9.7919,9.7507,9.7345,9.7407,9.7333,9.742,9.7567,9.7587,9.7486,9.7161,9.6652,9.6566,9.7041,9.7112,9.7112,9.7112,9.7112,9.7112,9.7112,9.7112,9.7112,9.7077,9.5972,9.5239,9.5117,9.4436,9.4331,9.5117,9.4842,9.4582,9.4547,9.4182,9.3886,9.3886,9.3886,9.399,9.4077,9.4075,9.4194,9.4614,9.4907,9.5325,9.6026,9.6183,9.6183,9.6131,9.5977,9.5766,9.519,9.4877,9.4356,9.3954,9.3496,9.3192,9.3566,9.3256,9.2788,9.2149,9.1874,9.1568,9.0845,9.076,9.0812,9.0812,9.0812,9.0812,9.0812,9.0812,9.0812,9.0812,9.0812,9.0812,9.0812,9.0812,9.0812,9.0812,9.0812,9.0812,9.0709,9.0364,8.9778,8.9157,8.8433,8.8501,11.0114,10.978,10.8331,10.7699,10.7551,10.6659,10.6362,10.6362,10.4653,10.3984,10.3947,10.313,10.2721,10.2684,10.2684,10.2684,10.2684,10.2684,10.2684,10.2684,10.2647,10.2238,10.1532,10.1458,10.135,10.1093,10.0537,9.987,9.9257,9.8705,9.8414,9.8451,9.8072,9.7955,9.8118,9.798,9.7853,9.7888,9.7888,9.7738,9.7486,9.7451,9.7263,9.7163,9.7112,9.7112,9.7112,9.7112,9.7112,9.7112,9.7112,9.7112,9.706,9.6747,9.631,9.5994,9.5383,9.5349,9.5871,9.5453,9.5087,9.4982,9.4443,9.3956,9.4042,9.4042,9.4215,9.461,9.4824,9.5088,9.5332,9.5436,9.5803,9.6555,9.6851,9.6851,9.6642,9.6729,9.699,9.6779,9.608,9.5506,9.5017,9.3861,9.3862,9.4193,9.3601,9.2688,9.2282,9.1857,9.1368,9.0769,9.0654,9.0812,9.0812,9.0812,9.0812,9.0812,9.0812,9.0812,9.0812,9.0812,9.0812,9.0812,9.0812,9.0812,9.0812,9.0812,9.0812,9.0778,9.0778,9.0295,8.9743,8.9674,8.9571,11.0263,10.9223,10.8071,10.7625,10.7514,10.6734,10.6696,10.6994,10.547,10.4765,10.4653,10.391,10.3241,10.2684,10.2684,10.2684,10.2721,10.2684,10.2684,10.2684,10.2684,10.2463,10.213,10.2093,10.1982,10.1757,10.146,10.1084,10.0613,10.0166,9.9772,9.9467,9.9045,9.881,9.873,9.8526,9.8332,9.8185,9.8136,9.8037,9.7788,9.7587,9.7435,9.7333,9.7163,9.7112,9.7112,9.7112,9.7112,9.7112,9.7112,9.7008,9.6817,9.6135,9.561,9.547,9.5261,9.5435,9.6027,9.5831,9.5585,9.5496,9.5126,9.483,9.4864,9.4899,9.4948,9.5136,9.5205,9.5388,9.5711,9.603,9.6432,9.6834,9.6904,9.6852,9.6904,9.6904,9.6904,9.6973,9.6485,9.603,9.566,9.5091,9.4779,9.5082,9.4717,9.3828,9.2859,9.2488,9.1958,9.0838,9.0601,9.0812,9.0812,9.0812,9.0812,9.0812,9.0812,9.0812,9.0812,9.0812,9.0812,9.0812,9.0812,9.0812,9.0812,9.0812,9.0812,9.0812,9.0812,9.0709,9.0467,9.0123,8.9985,11.0114,10.8851,10.796,10.7625,10.7551,10.7031,10.7105,10.7402,10.5916,10.5322,10.5284,10.4467,10.3576,10.3057,10.3242,10.3168,10.2871,10.2686,10.2575,10.2538,10.2501,10.2575,10.2647,10.2424,10.2311,10.2341,10.204,10.1694,10.1291,10.0965,10.0542,10.0099,9.9741,9.9421,9.9226,9.8944,9.8706,9.8477,9.8429,9.8283,9.8037,9.7838,9.7638,9.7486,9.7317,9.7163,9.7112,9.7112,9.7112,9.7112,9.7112,9.6956,9.6519,9.5783,9.5257,9.5203,9.5238,9.5411,9.5828,9.5749,9.564,9.564,9.551,9.54,9.54,9.54,9.54,9.54,9.54,9.5475,9.5804,9.6128,9.6483,9.6607,9.6554,9.6554,9.666,9.6554,9.6607,9.666,9.6361,9.6059,9.5878,9.5496,9.5199,9.5121,9.5031,9.4279,9.301,9.2564,9.2193,9.0765,9.0582,9.0707,9.076,9.0812,9.0847,9.0847,9.0812,9.0812,9.0812,9.0812,9.0812,9.0812,9.0812,9.0812,9.0812,9.0812,9.0812,9.0812,9.0812,9.0743,9.0571,9.0433,9.0329,10.9668,10.8851,10.7997,10.7662,10.7625,10.7476,10.7513,10.729,10.599,10.5654,10.5799,10.4653,10.3909,10.3569,10.4202,10.4238,10.3382,10.2868,10.2572,10.2421,10.2383,10.2753,10.3268,10.2677,10.2598,10.2917,10.2019,10.1328,10.1027,10.087,10.0578,10.0223,9.9984,9.9758,9.9421,9.9251,9.9015,9.8753,9.867,9.8526,9.8367,9.8234,9.7987,9.7587,9.7486,9.7369,9.7112,9.7112,9.7112,9.7112,9.7112,9.6817,9.6307,9.5897,9.566,9.5406,9.5386,9.542,9.542,9.5455,9.5455,9.5455,9.5434,9.5503,9.5537,9.5572,9.5606,9.5537,9.5503,9.5544,9.5729,9.5804,9.5858,9.5858,9.6128,9.6093,9.6021,9.604,9.6201,9.6201,9.6021,9.5729,9.5455,9.5199,9.4919,9.4671,9.4408,9.3873,9.2745,9.2369,9.1562,9.0775,9.0563,9.0688,9.0741,9.0847,9.0847,9.0847,9.0812,9.0812,9.0812,9.0812,9.0812,9.0812,9.0812,9.0812,9.0812,9.0812,9.0812,9.0812,9.0812,9.0812,9.0709,9.0605,9.0674,11.0151,10.8925,10.8628,10.8145,10.7587,10.7472,10.7394,10.7357,10.6684,10.6233,10.5861,10.542,10.4826,10.4304,10.4491,10.4374,10.3921,10.3702,10.3707,10.3785,10.3902,10.3935,10.3847,10.366,10.358,10.3448,10.2619,10.1968,10.1606,10.0998,10.0449,10.0288,10.0535,10.0291,9.9758,9.9821,9.9647,9.898,9.8801,9.8622,9.8526,9.8416,9.822,9.8037,9.7688,9.7435,9.7369,9.7215,9.7112,9.7112,9.7112,9.6817,9.6254,9.5749,9.551,9.5455,9.54,9.54,9.54,9.54,9.5434,9.5503,9.5848,9.6124,9.6227,9.6607,9.6641,9.6262,9.6124,9.6041,9.5614,9.553,9.5764,9.6074,9.6021,9.6001,9.6055,9.6128,9.6201,9.6147,9.5967,9.5695,9.542,9.5087,9.4806,9.4614,9.4523,9.4101,9.3258,9.2707,9.2289,9.1403,9.1132,9.0826,9.1035,9.0966,9.0897,9.0897,9.0916,9.0812,9.0812,9.0812,9.0812,9.0812,9.0812,9.0812,9.0812,9.0812,9.0812,9.0812,9.0812,9.0812,9.0812,9.0812,9.0812,11.0449,10.9743,10.8814,10.8255,10.7881,10.7503,10.7277,10.7124,10.6746,10.6367,10.6143,10.5851,10.5405,10.4916,10.514,10.5023,10.4599,10.4902,10.5167,10.506,10.459,10.451,10.4489,10.4526,10.426,10.3843,10.3279,10.2809,10.2518,10.1872,10.1357,10.1238,10.1457,10.1321,10.0688,10.0593,10.0324,10.0015,9.9313,9.8992,9.9123,9.8752,9.8523,9.8625,9.8298,9.8046,9.7944,9.7688,9.7428,9.713,9.6904,9.6712,9.6583,9.6145,9.5917,9.6193,9.615,9.6094,9.6059,9.6163,9.6003,9.605,9.645,9.6748,9.6851,9.7242,9.7082,9.6999,9.6804,9.6632,9.6331,9.5951,9.6138,9.669,9.6373,9.62,9.624,9.6185,9.6012,9.5908,9.5749,9.5475,9.5087,9.5031,9.4806,9.4614,9.4636,9.4588,9.3812,9.3134,9.2468,9.1658,9.0902,9.0926,9.1311,9.1208,9.0948,9.0966,9.1019,9.0881,9.0812,9.0812,9.0812,9.0812,9.0812,9.0812,9.0812,9.0812,9.0812,9.0812,9.0812,9.0812,9.0812,9.0812,9.0812,11.0672,11.0969,10.8777,10.8141,10.8356,10.7649,10.7158,10.6888,10.6217,10.6169,10.6378,10.6059,10.5568,10.5432,10.6034,10.596,10.5463,10.6034,10.6328,10.5872,10.5101,10.4655,10.517,10.5243,10.4871,10.4279,10.3981,10.3661,10.3234,10.2928,10.2979,10.2433,10.2497,10.2479,10.2007,10.1446,10.1416,10.1363,10.0123,9.9683,10.0256,9.9408,9.9109,9.9576,9.9278,9.9061,9.8823,9.8514,9.7989,9.727,9.6852,9.6969,9.726,9.6872,9.6939,9.7434,9.7357,9.7139,9.715,9.6944,9.6864,9.6632,9.6943,9.7196,9.723,9.7262,9.7354,9.7517,9.7368,9.7276,9.7264,9.6873,9.6804,9.7343,9.6779,9.649,9.6538,9.6335,9.6012,9.5675,9.5468,9.5267,9.4762,9.4806,9.4693,9.4557,9.4443,9.4328,9.4018,9.3298,9.2495,9.1843,9.1397,9.154,9.21,9.1932,9.1706,9.1583,9.1449,9.1123,9.0881,9.0812,9.0812,9.0812,9.0812,9.0812,9.0812,9.0812,9.0812,9.0812,9.0812,9.0812,9.0812,9.0812,9.0812,11.1637,11.1192,10.9966,10.9106,10.8427,10.7491,10.6958,10.6714,10.6203,10.604,10.6102,10.6034,10.5845,10.5833,10.6229,10.6271,10.6119,10.6308,10.646,10.6339,10.6009,10.5825,10.6009,10.6046,10.5814,10.5351,10.4747,10.4196,10.3816,10.3392,10.2931,10.2651,10.3258,10.3149,10.2551,10.2657,10.2493,10.2065,10.133,10.0841,10.0972,10.0636,10.0441,10.0521,10.0159,9.9906,9.9753,9.9375,9.8762,9.8095,9.8199,9.8193,9.8185,9.789,9.7729,9.7801,9.746,9.7253,9.7196,9.7056,9.6847,9.6789,9.7301,9.7658,9.7692,9.8146,9.8112,9.7981,9.7658,9.7453,9.7125,9.6851,9.6851,9.684,9.6772,9.6757,9.7033,9.6792,9.6344,9.6227,9.6193,9.5749,9.5125,9.4727,9.4557,9.427,9.4179,9.4168,9.401,9.361,9.2788,9.301,9.2791,9.2722,9.2763,9.2651,9.2479,9.2301,9.1997,9.1433,9.1088,9.0812,9.0812,9.0812,9.0812,9.0812,9.0812,9.0812,9.0812,9.0812,9.0812,9.0812,9.0812,9.0812,9.0812,11.1735,11.1394,11.0031,10.9168,10.8631,10.7519,10.6796,10.6423,10.6127,10.5954,10.5867,10.5867,10.5867,10.5831,10.5997,10.6077,10.6077,10.6077,10.6077,10.6114,10.637,10.6377,10.6279,10.6249,10.6267,10.6306,10.5772,10.5587,10.5589,10.5008,10.4735,10.467,10.4634,10.4489,10.4163,10.3591,10.3498,10.3163,10.2368,10.1844,10.2024,10.146,10.1239,10.1269,10.0889,10.0669,10.0359,10.0044,9.9534,9.8955,9.8883,9.9053,9.9115,9.8764,9.8658,9.8744,9.8412,9.8122,9.7947,9.777,9.7533,9.7389,9.7823,9.8019,9.8121,9.847,9.8342,9.8369,9.8207,9.7968,9.7754,9.7652,9.754,9.7292,9.708,9.7105,9.7334,9.7288,9.707,9.6886,9.6563,9.6253,9.5456,9.4955,9.4557,9.4294,9.427,9.4236,9.4191,9.3669,9.3372,9.3404,9.3208,9.2899,9.2941,9.2866,9.298,9.2837,9.2184,9.1709,9.1295,9.0881,9.0812,9.0812,9.0812,9.0812,9.0812,9.0812,9.0812,9.0812,9.0812,9.0812,9.0812,9.0812,9.0812,11.1416,11.1731,10.9603,10.8849,10.8856,10.7652,10.6701,10.6127,10.5954,10.5787,10.5655,10.5567,10.5567,10.5603,10.5692,10.5611,10.5611,10.5655,10.5765,10.602,10.6385,10.6619,10.6452,10.6503,10.6627,10.6851,10.6879,10.7035,10.7061,10.7269,10.7357,10.6818,10.6336,10.6155,10.5576,10.4624,10.4417,10.4278,10.3251,10.2716,10.2766,10.2273,10.1895,10.1888,10.1602,10.1187,10.0906,10.0658,10.0377,9.9675,9.9427,9.972,10.0046,9.9619,9.9615,9.9929,9.9537,9.9161,9.9061,9.877,9.8572,9.814,9.8235,9.8432,9.8364,9.8215,9.8276,9.8633,9.8614,9.8417,9.8565,9.8727,9.8284,9.7678,9.7661,9.7515,9.7106,9.758,9.795,9.7322,9.6795,9.6485,9.5981,9.5399,9.475,9.4523,9.4385,9.4155,9.4087,9.3746,9.3555,9.3498,9.3201,9.2801,9.2878,9.3099,9.325,9.3256,9.2395,9.1813,9.1399,9.1054,9.0881,9.0812,9.0812,9.0812,9.0812,9.0812,9.0847,9.0812,9.0812,9.0812,9.0812,9.0812,9.0812,11.1934,11.18,11.0623,10.9723,10.8956,10.7873,10.7011,10.6285,10.5728,10.5551,10.5559,10.5425,10.538,10.538,10.5514,10.5611,10.5603,10.564,10.5903,10.6559,10.6669,10.7053,10.7226,10.7462,10.7526,10.7572,10.7526,10.7533,10.7492,10.7626,10.7398,10.735,10.7194,10.6735,10.6108,10.571,10.5193,10.4716,10.4047,10.3736,10.3674,10.3357,10.2938,10.2797,10.2297,10.184,10.1573,10.1465,10.136,10.1255,10.1111,10.0999,10.0704,10.0495,10.0318,9.9987,9.9778,9.9485,9.9307,9.8915,9.8553,9.8371,9.8187,9.8126,9.8126,9.8064,9.8064,9.8187,9.8126,9.8187,9.8249,9.8249,9.791,9.7563,9.7847,9.7915,9.7216,9.7508,9.7751,9.7378,9.7173,9.6703,9.5749,9.5183,9.4796,9.4727,9.4408,9.4039,9.3879,9.3743,9.3723,9.3702,9.3589,9.3271,9.3463,9.3653,9.378,9.3601,9.2813,9.2019,9.1606,9.1123,9.0881,9.0812,9.0812,9.0847,9.0985,9.095,9.1019,9.0916,9.0916,9.0985,9.1019,9.095,9.0812,11.1874,11.1503,11.0777,11.0103,10.9454,10.8474,10.7495,10.6649,10.6097,10.5617,10.5326,10.5153,10.5108,10.5108,10.5244,10.5253,10.5399,10.5689,10.6271,10.6961,10.7361,10.7787,10.8093,10.8514,10.8587,10.8202,10.8046,10.8097,10.8328,10.8305,10.8365,10.8317,10.7931,10.7522,10.6871,10.6328,10.5788,10.5525,10.4984,10.4705,10.4817,10.4739,10.4385,10.3869,10.3305,10.2928,10.2799,10.2799,10.2764,10.2709,10.26,10.2084,10.1262,10.1199,10.0952,10.0275,9.986,9.9543,9.9248,9.895,9.8614,9.831,9.8064,9.8003,9.8003,9.8003,9.8003,9.8003,9.8003,9.8003,9.8003,9.8003,9.7732,9.7631,9.7916,9.7984,9.7618,9.7941,9.8198,9.7898,9.78,9.7219,9.6464,9.5538,9.491,9.4933,9.4648,9.4247,9.3981,9.3903,9.3879,9.3869,9.3903,9.3951,9.4123,9.4237,9.4378,9.4014,9.3296,9.2502,9.1916,9.1364,9.0812,9.0881,9.0985,9.1192,9.1295,9.1261,9.1502,9.1847,9.1916,9.1571,9.1295,9.1192,9.0985,11.1613,11.1148,11.0668,11.0257,10.99,10.9115,10.8054,10.7013,10.6571,10.5843,10.5161,10.4996,10.526,10.5141,10.5358,10.5286,10.5457,10.5833,10.6557,10.7316,10.7871,10.8221,10.8582,10.8944,10.9209,10.8787,10.8679,10.8992,10.945,10.9448,10.9133,10.9438,10.8713,10.8074,10.7677,10.6799,10.6161,10.6132,10.5652,10.5468,10.577,10.5776,10.5419,10.4792,10.422,10.3838,10.3692,10.3672,10.3777,10.3826,10.3743,10.2931,10.196,10.1638,10.146,10.0367,10.0056,9.9798,9.9504,9.9309,9.9212,9.8425,9.8329,9.8267,9.824,9.8104,9.8003,9.8003,9.8003,9.8003,9.8003,9.8003,9.8003,9.7969,9.8003,9.8003,9.8064,9.8493,9.8478,9.8232,9.7823,9.734,9.6864,9.6178,9.5549,9.5047,9.4796,9.4579,9.4372,9.4063,9.4063,9.4005,9.4005,9.4005,9.4179,9.4545,9.4666,9.442,9.3724,9.3089,9.2433,9.2088,9.164,9.1192,9.1261,9.1537,9.1847,9.2054,9.2399,9.2882,9.2778,9.2295,9.1882,9.1468,9.1295,11.1447,11.1221,11.1118,11.0678,11.0003,10.9429,10.8462,10.7175,10.6562,10.587,10.538,10.5705,10.5865,10.6046,10.6662,10.6738,10.6474,10.6618,10.6953,10.7602,10.7962,10.8214,10.8804,10.9129,10.9467,10.9819,10.9616,10.9688,10.9963,10.9475,10.9389,10.9677,10.9123,10.8425,10.7921,10.7418,10.6801,10.653,10.6121,10.597,10.6032,10.6001,10.5814,10.527,10.4874,10.4475,10.396,10.3743,10.3525,10.3333,10.3868,10.3452,10.2584,10.1983,10.1255,10.0517,10.0491,10.0383,9.9956,10.0378,10.0342,9.9921,9.9404,9.9097,9.8809,9.8375,9.807,9.8003,9.8003,9.8003,9.8003,9.8003,9.8003,9.8003,9.8003,9.8003,9.8003,9.8092,9.814,9.7888,9.7627,9.7456,9.7077,9.6772,9.6395,9.5858,9.5458,9.5412,9.5321,9.475,9.427,9.4121,9.4005,9.4005,9.4063,9.4488,9.4782,9.4687,9.4235,9.3744,9.3192,9.2985,9.2606,9.2226,9.2019,9.2157,9.2502,9.2847,9.3123,9.3503,9.3261,9.2951,9.264,9.2364,9.195,11.1229,11.1007,11.1007,11.0787,11.0413,11.0197,10.9201,10.7848,10.7162,10.6533,10.6143,10.6067,10.6278,10.6545,10.6871,10.716,10.7242,10.7202,10.7584,10.8159,10.8339,10.8447,10.9022,10.9274,10.972,11.013,11.0116,11.0397,11.0837,10.9454,10.9388,10.9654,10.9208,10.8496,10.8101,10.7671,10.7483,10.7028,10.6798,10.6711,10.6877,10.6809,10.6618,10.658,10.6077,10.5656,10.5601,10.5137,10.4862,10.4703,10.4774,10.4205,10.3451,10.2696,10.2026,10.1332,10.1258,10.1149,10.0746,10.1132,10.0984,10.0193,9.9853,9.9492,9.904,9.8476,9.8037,9.8003,9.8003,9.8003,9.8003,9.8003,9.8003,9.8003,9.8003,9.8003,9.8003,9.8003,9.7889,9.7767,9.7949,9.7849,9.7463,9.7262,9.7114,9.6761,9.6189,9.6132,9.6212,9.5367,9.4557,9.427,9.4063,9.3889,9.3947,9.4351,9.4715,9.4747,9.4606,9.4152,9.3847,9.3537,9.3503,9.3365,9.3192,9.302,9.333,9.3744,9.3916,9.4054,9.3916,9.3709,9.3503,9.3227,9.2778,11.1007,11.0791,11.0791,11.0791,11.0791,11.0791,10.9986,10.8726,10.8173,10.7507,10.6806,10.6637,10.6798,10.7076,10.7255,10.7503,10.7843,10.7793,10.8101,10.8532,10.8855,10.8978,10.9193,10.9732,11.0342,11.0701,11.0457,11.1064,11.1251,10.9988,10.9685,11.0008,10.9438,10.8869,10.8797,10.8547,10.8283,10.8143,10.7805,10.7734,10.7931,10.8005,10.8038,10.8403,10.7666,10.7366,10.7284,10.6796,10.6436,10.6041,10.5702,10.506,10.4362,10.3788,10.3229,10.2746,10.2445,10.1974,10.175,10.198,10.19,10.0941,10.0227,9.9797,9.9244,9.8679,9.8003,9.8003,9.8003,9.8003,9.8003,9.8003,9.8003,9.8003,9.8003,9.8003,9.8003,9.8003,9.8064,9.8147,9.8371,9.8172,9.7745,9.7966,9.7981,9.7494,9.7036,9.6693,9.6635,9.5525,9.4784,9.4385,9.4097,9.3864,9.3864,9.4121,9.4466,9.4625,9.4666,9.4407,9.4207,9.3985,9.402,9.4089,9.4123,9.402,9.433,9.4503,9.4641,9.4675,9.4641,9.4537,9.4365,9.3882,9.333,11.0836,11.0791,11.0791,11.0791,11.0791,11.0791,11.0278,10.9384,10.8855,10.8306,10.7569,10.7726,10.781,10.7903,10.8116,10.8287,10.8292,10.8101,10.8085,10.8371,10.8836,10.9086,10.932,11.0017,11.073,11.1193,11.0838,11.1089,11.1444,11.0659,11.05,11.0946,11.0463,11.0107,10.9874,10.966,11.0053,10.9946,10.934,10.8733,10.8359,10.8485,10.857,10.8595,10.8564,10.8541,10.8185,10.7741,10.7436,10.7224,10.6233,10.5775,10.5593,10.4859,10.4462,10.3962,10.3393,10.2524,10.2378,10.2936,10.3104,10.2063,10.138,10.0731,9.9746,9.8747,9.8003,9.8003,9.8003,9.8003,9.8003,9.8003,9.8003,9.8003,9.8003,9.8003,9.8003,9.8003,9.8064,9.8249,9.8371,9.8206,9.7925,9.842,9.8778,9.8317,9.7861,9.7517,9.7001,9.5902,9.4818,9.4385,9.4039,9.3747,9.3747,9.4039,9.4179,9.4523,9.4578,9.4584,9.4544,9.4393,9.4572,9.4641,9.471,9.4779,9.4917,9.5055,9.5262,9.5227,9.502,9.5124,9.5262,9.4641,9.3951,11.0517,11.0415,11.0379,11.0415,11.0415,11.0517,11.0088,10.9422,10.9027,10.8612,10.817,10.81,10.8192,10.8274,10.8348,10.8264,10.8248,10.8143,10.8091,10.8091,10.8483,10.8662,10.8929,10.9768,11.0803,11.116,11.1571,11.2035,11.1982,11.1267,11.0838,11.1409,11.0874,11.0339,11.0553,11.0446,11.0375,11.0268,11.0053,10.9625,10.9376,10.9356,10.9474,10.9453,10.9283,10.9117,10.9038,10.8547,10.8019,10.7771,10.6943,10.6692,10.644,10.5946,10.5609,10.5091,10.4693,10.4055,10.3478,10.3952,10.3673,10.3063,10.2159,10.1195,9.9848,9.8679,9.8003,9.8003,9.8003,9.8003,9.8003,9.8003,9.8003,9.8003,9.8003,9.8003,9.8003,9.8003,9.8064,9.8249,9.8337,9.8206,9.8267,9.8778,9.9136,9.8935,9.8423,9.7941,9.7368,9.6441,9.5332,9.4213,9.3923,9.363,9.3747,9.3864,9.4005,9.4236,9.45,9.4578,9.4735,9.4799,9.482,9.4999,9.5089,9.5227,9.54,9.5365,9.5365,9.5365,9.5365,9.54,9.5365,9.5262,9.4675,11.0285,11.0123,11.0123,11.0123,11.0123,11.0332,11.0097,10.954,10.9215,10.9026,10.8703,10.8398,10.8274,10.8348,10.816,10.8143,10.8091,10.8091,10.8091,10.8126,10.8305,10.859,10.9268,11.016,11.091,11.0981,11.2087,11.2587,11.2337,11.1838,11.1481,11.1873,11.1517,11.116,11.1053,11.1124,11.116,11.0803,11.0659,11.0337,11.0032,10.999,11.0081,11.0046,10.9888,10.9737,10.995,10.9564,10.886,10.8587,10.7983,10.7576,10.7235,10.674,10.6195,10.5678,10.534,10.4935,10.4357,10.4254,10.4105,10.3522,10.237,10.0895,9.9294,9.8335,9.8003,9.8003,9.8003,9.8003,9.8003,9.8003,9.8003,9.8003,9.8003,9.8003,9.8003,9.8003,9.8003,9.8126,9.8242,9.8315,9.8514,9.9077,9.9382,9.9406,9.9018,9.8457,9.7483,9.6544,9.5618,9.4385,9.4039,9.3806,9.3806,9.3889,9.3947,9.4063,9.4328,9.4466,9.4647,9.4816,9.4894,9.5164,9.5344,9.54,9.54,9.54,9.54,9.54,9.54,9.54,9.5365,9.5331,9.5262,11.0285,11.0123,11.0123,11.0123,11.0087,11.0332,11.0306,11.0067,10.9799,10.9572,10.9342,10.8857,10.8419,10.8231,10.825,10.8198,10.8126,10.8091,10.8198,10.8448,10.8804,10.934,10.9982,11.0767,11.1731,11.223,11.2694,11.2765,11.2765,11.2551,11.248,11.2658,11.2302,11.248,11.2444,11.2195,11.198,11.1605,11.1389,11.0814,11.0416,11.0279,11.0399,11.0461,11.0629,11.0839,11.0874,11.0451,11.0108,10.9894,10.9018,10.8435,10.8085,10.7492,10.6781,10.6229,10.6022,10.5513,10.4892,10.4479,10.4288,10.3508,10.2255,10.0752,9.922,9.8397,9.8037,9.8037,9.8003,9.8003,9.8003,9.8003,9.8003,9.8003,9.8003,9.8003,9.8003,9.8003,9.8003,9.8064,9.8181,9.8228,9.8402,9.8873,9.9117,9.9131,9.8904,9.8343,9.7047,9.604,9.5502,9.4671,9.4236,9.4005,9.3947,9.4005,9.4097,9.4121,9.427,9.4443,9.458,9.475,9.4975,9.5143,9.531,9.531,9.54,9.54,9.54,9.54,9.54,9.54,9.5296,9.5193,9.5227,11.0285,11.0123,10.9945,10.9849,10.9849,10.9908,10.9861,10.9716,10.9668,10.9474,10.9287,10.9024,10.866,10.8393,10.8662,10.8804,10.8804,10.884,10.8804,10.8876,10.9197,10.9447,11.0089,11.0946,11.1766,11.2195,11.2516,11.2801,11.2801,11.2801,11.2801,11.2765,11.2837,11.2765,11.2765,11.2801,11.2587,11.2516,11.2173,11.1794,11.1369,11.1199,11.1105,11.0769,11.0816,11.098,11.098,11.0861,11.0683,11.0373,10.9731,10.9382,10.9067,10.8314,10.7706,10.6988,10.6885,10.6264,10.5229,10.4746,10.4383,10.3871,10.2775,10.1374,9.9874,9.9322,9.8628,9.8329,9.8003,9.8003,9.8003,9.8003,9.8003,9.8003,9.8003,9.8003,9.8003,9.8003,9.8003,9.8064,9.8126,9.8181,9.8357,9.8599,9.8744,9.8822,9.856,9.8125,9.6829,9.59,9.5375,9.4897,9.4523,9.4351,9.4294,9.4213,9.4155,9.4213,9.4236,9.4443,9.4557,9.475,9.4975,9.5143,9.5254,9.531,9.54,9.54,9.54,9.54,9.54,9.54,9.5262,9.5158,9.5331,11.0374,11.0403,11.0127,11.0067,11.003,10.9813,10.9897,11.0075,10.9931,10.9669,10.9342,10.932,10.9161,10.9019,10.9304,10.9411,10.9268,10.9197,10.9233,10.9233,10.9233,10.9554,11.0196,11.0981,11.1802,11.2016,11.2409,11.2801,11.2801,11.2801,11.298,11.3051,11.2853,11.2691,11.2801,11.2801,11.2908,11.3087,11.3012,11.279,11.2283,11.2112,11.1669,11.1133,11.098,11.098,11.098,11.0921,11.0802,11.0563,11.0192,10.9949,10.9676,10.9324,10.8826,10.8383,10.7872,10.7285,10.5919,10.4953,10.4341,10.3684,10.3253,10.2098,10.108,10.0084,9.909,9.8538,9.8206,9.8037,9.8037,9.8003,9.8003,9.8003,9.8003,9.8003,9.8003,9.8003,9.8003,9.8003,9.8031,9.8024,9.793,9.8069,9.842,9.8455,9.8205,9.7735,9.6804,9.5956,9.5465,9.5112,9.475,9.4636,9.4614,9.45,9.4385,9.4328,9.4385,9.45,9.4671,9.4806,9.4975,9.5031,9.5199,9.531,9.54,9.5434,9.54,9.54,9.5434,9.5468,9.5848,9.5813,9.5779,11.0596,11.1214,11.0961,11.09,11.0863,11.0067,11.0525,11.1426,11.0664,11.0203,11.0177,10.975,10.9768,11.0125,11.0268,11.0125,10.9732,10.9554,10.9554,10.9625,10.9715,11.0339,11.0927,11.1551,11.1924,11.2623,11.2746,11.2746,11.2801,11.2925,11.3246,11.3369,11.2953,11.2541,11.2746,11.2837,11.3229,11.38,11.3614,11.3297,11.3013,11.2691,11.2082,11.1297,11.098,11.098,11.098,11.098,11.0861,11.0623,11.0503,11.0262,10.9983,10.9922,10.9425,10.8686,10.852,10.7539,10.5911,10.5049,10.4332,10.3755,10.3401,10.2624,10.1367,10.0405,9.9627,9.9181,9.8544,9.8172,9.807,9.807,9.8138,9.8037,9.8037,9.8104,9.8104,9.8003,9.8003,9.8003,9.7935,9.7861,9.757,9.7567,9.7985,9.8122,9.7919,9.7343,9.6516,9.5943,9.5474,9.5315,9.4975,9.4975,9.4897,9.4671,9.4557,9.4557,9.4614,9.4784,9.4841,9.4919,9.5031,9.4997,9.5177,9.5434,9.5468,9.5468,9.5779,9.6089,9.5641,9.571,9.6124,9.6503,9.6503,11.1735,11.1844,11.1746,11.2022,11.2348,11.166,11.1462,11.1492,11.1243,11.0927,11.0731,11.0696,11.0553,11.066,11.0981,11.1017,11.0838,11.0838,11.0838,11.0767,11.057,11.0817,11.1331,11.1683,11.2039,11.2363,11.249,11.2636,11.2801,11.3028,11.3309,11.341,11.3276,11.2708,11.2699,11.2917,11.3578,11.3888,11.3832,11.3665,11.3362,11.3076,11.2469,11.1344,11.1168,11.105,11.1085,11.1085,11.0991,11.0802,11.0683,11.0443,11.0287,11.0227,10.9879,10.9478,10.9382,10.8878,10.7393,10.6275,10.4919,10.4306,10.3867,10.3253,10.2173,10.1749,10.0935,9.9921,9.9153,9.8815,9.8747,9.8747,9.8713,9.8273,9.8206,9.8273,9.8273,9.8104,9.8003,9.8003,9.7969,9.7969,9.7753,9.7692,9.8045,9.8049,9.7826,9.6977,9.6102,9.5813,9.5413,9.5413,9.5289,9.5289,9.5177,9.5009,9.4953,9.4953,9.5065,9.5177,9.5199,9.5143,9.5143,9.5199,9.5379,9.5503,9.5917,9.6331,9.6779,9.6917,9.6538,9.6296,9.6641,9.7021,9.7296,11.2424,11.2493,11.2529,11.3,11.3471,11.2566,11.1904,11.1719,11.1749,11.1625,11.1553,11.1606,11.1552,11.1445,11.1731,11.1731,11.1659,11.1624,11.1588,11.1569,11.126,11.1419,11.1663,11.1702,11.1936,11.2155,11.2155,11.2267,11.245,11.3084,11.3411,11.3594,11.3867,11.362,11.3368,11.3269,11.3738,11.4285,11.4584,11.4548,11.4178,11.3735,11.3173,11.2365,11.1848,11.1401,11.1401,11.1331,11.1261,11.1061,11.0837,11.0683,11.0563,11.0503,11.0322,11.0227,10.9574,10.9113,10.8104,10.6932,10.5815,10.5402,10.4884,10.4021,10.3077,10.2488,10.1836,10.0918,10.0023,9.9627,9.9491,9.9491,9.9322,9.8882,9.8679,9.8747,9.8612,9.8442,9.8037,9.8037,9.8003,9.8003,9.8003,9.814,9.824,9.8019,9.7789,9.691,9.6124,9.5917,9.571,9.5641,9.5537,9.5448,9.5413,9.5344,9.5289,9.54,9.54,9.54,9.54,9.5254,9.531,9.5503,9.5779,9.6158,9.6779,9.7227,9.7469,9.7607,9.7538,9.7365,9.7296,9.7469,9.7779,11.2638,11.329,11.3362,11.3761,11.4109,11.2828,11.2273,11.2386,11.2106,11.2322,11.2658,11.1909,11.1926,11.2587,11.273,11.2373,11.1819,11.1712,11.1712,11.1603,11.1379,11.1699,11.1815,11.1837,11.1758,11.1793,11.1851,11.1921,11.2049,11.3111,11.3645,11.401,11.4797,11.4515,11.3999,11.3657,11.4115,11.4843,11.5265,11.5172,11.4927,11.4492,11.3869,11.3246,11.2633,11.2209,11.2138,11.2033,11.1647,11.1331,11.105,11.1015,11.098,11.098,11.0802,11.0268,10.9235,10.8878,10.8389,10.7416,10.685,10.6402,10.5471,10.4667,10.394,10.3255,10.2535,10.1819,10.1059,10.0599,10.0332,10.0235,10.0168,9.9796,9.9424,9.9254,9.9051,9.8747,9.8273,9.8104,9.8037,9.8037,9.8003,9.8147,9.8228,9.8224,9.8034,9.7768,9.7035,9.6676,9.6434,9.6055,9.5917,9.5675,9.5606,9.5675,9.5468,9.5503,9.54,9.54,9.54,9.5434,9.5537,9.5779,9.6296,9.6814,9.7503,9.7848,9.7986,9.809,9.84,9.8262,9.8124,9.7883,9.7952,11.3942,11.4159,11.4159,11.4203,11.4108,11.3226,11.2928,11.2948,11.2716,11.2677,11.2765,11.2296,11.2332,11.2765,11.2545,11.2458,11.2351,11.2189,11.2079,11.1876,11.1525,11.151,11.1422,11.1296,11.1238,11.1355,11.1483,11.173,11.2726,11.3622,11.4456,11.5165,11.5095,11.4919,11.4743,11.4346,11.4751,11.5153,11.5542,11.5542,11.5389,11.4917,11.4422,11.3857,11.3372,11.2981,11.2911,11.2419,11.2033,11.1787,11.1226,11.098,11.098,11.098,11.0861,11.0503,10.9931,10.9425,10.9074,10.8176,10.7574,10.7402,10.654,10.57,10.4868,10.4064,10.3398,10.2677,10.2023,10.1529,10.1301,10.1204,10.0942,10.054,10.0202,9.9965,9.9694,9.9119,9.8645,9.8442,9.8375,9.8037,9.8003,9.8064,9.8147,9.8221,9.8309,9.8152,9.7952,9.754,9.7124,9.671,9.6572,9.64,9.6193,9.6193,9.5848,9.5572,9.5468,9.54,9.54,9.5468,9.5675,9.6227,9.6986,9.771,9.8366,9.8573,9.8745,9.9124,9.9366,9.9159,9.8917,9.8573,9.8297,11.442,11.4435,11.4231,11.4026,11.3677,11.336,11.3146,11.3038,11.282,11.2801,11.2746,11.2399,11.2434,11.249,11.2323,11.2211,11.2379,11.214,11.2084,11.1971,11.1643,11.1493,11.1203,11.0826,11.0886,11.1074,11.132,11.1647,11.2752,11.3818,11.4736,11.5465,11.5017,11.5193,11.5263,11.5078,11.512,11.5397,11.5611,11.5695,11.547,11.5234,11.4786,11.4561,11.4085,11.3753,11.3648,11.2981,11.2489,11.2068,11.1366,11.098,11.098,11.098,11.098,11.0683,11.0348,10.9975,10.9599,10.9047,10.8556,10.8057,10.7368,10.6485,10.5741,10.4971,10.427,10.3604,10.295,10.2461,10.2335,10.2111,10.1678,10.1216,10.0946,10.0709,10.0134,9.9559,9.9221,9.8984,9.8612,9.8172,9.8003,9.8003,9.8064,9.8208,9.8444,9.8693,9.8534,9.8309,9.7826,9.7365,9.7296,9.7227,9.6986,9.6607,9.6124,9.571,9.5434,9.54,9.54,9.5606,9.5917,9.6848,9.7917,9.8504,9.9021,9.94,9.9642,9.9883,9.9883,9.9642,9.9262,9.8917,9.8711,11.418,11.4369,11.3834,11.343,11.3199,11.3199,11.3038,11.2801,11.2801,11.2801,11.2746,11.2434,11.2267,11.2323,11.2042,11.1872,11.2021,11.1929,11.1815,11.1851,11.1471,11.1296,11.1062,11.0767,11.0788,11.1058,11.1408,11.1778,11.2373,11.3615,11.4991,11.5579,11.5544,11.5544,11.5509,11.5509,11.543,11.5552,11.5769,11.583,11.5724,11.5478,11.5266,11.5629,11.513,11.4491,11.428,11.3753,11.2981,11.2244,11.1506,11.105,11.098,11.098,11.098,11.0802,11.0563,11.0322,10.9922,10.9475,10.9199,10.8562,10.7678,10.6926,10.6216,10.5294,10.4483,10.4057,10.3433,10.3087,10.2898,10.2582,10.2123,10.1724,10.1453,10.1386,10.1183,10.0405,9.9559,9.9187,9.851,9.8104,9.8003,9.8003,9.8003,9.8187,9.8432,9.8821,9.8915,9.8788,9.8573,9.8124,9.8228,9.8124,9.7469,9.7021,9.6365,9.5951,9.5641,9.54,9.54,9.5744,9.6158,9.7331,9.8538,9.909,9.9573,9.9814,9.9883,9.9883,9.9883,9.9883,9.9607,9.9262,9.8952,11.3782,11.3782,11.3466,11.3253,11.3199,11.2983,11.291,11.2801,11.2801,11.2801,11.2691,11.2303,11.2099,11.2211,11.1758,11.1643,11.1864,11.1621,11.1528,11.1448,11.1273,11.1039,11.0707,11.0348,11.0627,11.1142,11.1596,11.2164,11.3449,11.4553,11.521,11.5579,11.5614,11.5614,11.5614,11.5614,11.5614,11.5614,11.5676,11.5798,11.5693,11.5631,11.5596,11.5667,11.5263,11.5158,11.4807,11.3964,11.3437,11.2876,11.1612,11.112,11.098,11.098,11.0861,11.0683,11.0563,11.0348,11.0105,10.9799,10.9552,10.9061,10.8279,10.7464,10.6512,10.5375,10.4563,10.4269,10.3954,10.3644,10.3331,10.2951,10.2597,10.2228,10.1927,10.2028,10.213,10.1115,10.0032,9.9254,9.851,9.8206,9.8104,9.8003,9.8003,9.8126,9.8371,9.8675,9.8975,9.9058,9.9283,9.9044,9.9331,9.909,9.8262,9.7607,9.7055,9.6434,9.6055,9.5744,9.5503,9.6331,9.7227,9.8159,9.9124,9.9504,9.9745,9.9814,9.9883,9.9883,9.9883,9.9883,9.9883,9.9607,9.9262,11.3483,11.3536,11.3271,11.3146,11.2983,11.2856,11.2801,11.2801,11.2801,11.2801,11.2711,11.2323,11.2099,11.2099,11.1643,11.1636,11.1823,11.1437,11.159,11.1543,11.112,11.0778,11.0383,11.0114,11.0532,11.1081,11.2057,11.3052,11.45,11.4982,11.5332,11.5553,11.5614,11.5614,11.5614,11.5614,11.5614,11.5614,11.5614,11.5614,11.5614,11.5614,11.5614,11.5614,11.5333,11.5333,11.5052,11.421,11.3543,11.2911,11.1787,11.1155,11.098,11.098,11.0921,11.0802,11.0683,11.0563,11.0227,11.0044,10.9799,10.931,10.8258,10.7235,10.7092,10.5926,10.4651,10.4288,10.4288,10.3982,10.3582,10.3205,10.2823,10.2462,10.2296,10.2299,10.213,10.1521,10.0608,9.9829,9.9085,9.8442,9.8273,9.8003,9.8003,9.8064,9.831,9.8493,9.8795,9.9189,9.9485,9.9743,9.986,9.9573,9.8676,9.8193,9.7883,9.7227,9.6572,9.6641,9.6745,9.7538,9.8366,9.8883,9.9331,9.9676,9.9883,9.9883,9.9883,9.9883,9.9883,9.9883,9.9883,9.9883,9.9607,11.3306,11.343,11.3253,11.2983,11.2856,11.2944,11.2873,11.2782,11.3015,11.2925,11.2672,11.2577,11.2318,11.1908,11.1705,11.1872,11.1917,11.1787,11.1833,11.1658,11.1138,11.0888,11.0576,11.02,11.0827,11.1731,11.2775,11.3729,11.488,11.5083,11.5305,11.5491,11.5614,11.5614,11.5614,11.5614,11.5614,11.5614,11.5614,11.5614,11.5614,11.5614,11.5614,11.5333,11.5052,11.4982,11.4912,11.4456,11.3613,11.2841,11.2103,11.1717,11.1436,11.1436,11.1261,11.1201,11.0991,11.0837,11.0623,11.0443,11.014,10.9487,10.8088,10.7454,10.7347,10.6394,10.5083,10.4539,10.4505,10.4166,10.3734,10.3394,10.3015,10.2695,10.2597,10.2468,10.2164,10.1889,10.1145,10.0337,9.9593,9.8882,9.8476,9.8206,9.8003,9.8064,9.8187,9.8371,9.8614,9.9009,9.9367,9.9568,9.9802,9.9412,9.9021,9.8676,9.8366,9.7986,9.7469,9.7641,9.7814,9.8021,9.84,9.9055,9.9469,9.978,9.9883,9.9883,9.9883,9.9883,9.9883,9.9883,9.9883,9.9883,9.9883,11.291,11.2929,11.291,11.2856,11.2873,11.3444,11.3262,11.2775,11.3975,11.3736,11.2765,11.3166,11.3111,11.1921,11.1942,11.2138,11.2359,11.2214,11.2099,11.1949,11.1552,11.1265,11.1081,11.0973,11.1578,11.2481,11.3483,11.4299,11.474,11.4929,11.5118,11.5208,11.5482,11.5579,11.5614,11.5579,11.5509,11.5544,11.5614,11.5614,11.5614,11.5614,11.5614,11.5509,11.5474,11.5474,11.5298,11.4666,11.3964,11.3227,11.2525,11.2349,11.2279,11.2173,11.1963,11.1822,11.1577,11.1201,11.1047,11.0893,11.0532,11.0157,10.8939,10.8045,10.7584,10.6605,10.5481,10.4746,10.4556,10.4078,10.3644,10.3394,10.3015,10.2823,10.2695,10.2631,10.2431,10.2119,10.1606,10.0768,9.9931,9.9356,9.8882,9.851,9.8003,9.8003,9.8003,9.8187,9.8432,9.8829,9.9189,9.9426,9.9685,9.9825,9.9676,9.909,9.8745,9.8435,9.8297,9.8366,9.8262,9.7917,9.8331,9.9228,9.9573,9.9849,9.9883,9.9883,9.9883,9.9883,9.9883,9.9883,9.9883,9.9883,9.9883]}]]